GFSGL_850_spd_000.txt.gz
Wind_Speed
30 34 40 43 45 41 25 16 14 11 7 6 8 11 16 18 15 12 12 12 14 17 19 21 25 25 26 26 26 26 27 26 29 34 30 28 29 25 26 27 30 32 31
30 36 42 42 36 26 19 7 6 5 6 7 14 12 8 13 18 19 19 20 22 23 25 27 27 27 28 27 26 26 26 25 26 31 30 26 25 26 26 26 28 34 36
34 37 37 34 29 20 10 10 9 9 9 11 13 15 16 16 21 22 24 25 26 27 28 28 27 26 26 26 26 28 29 29 30 32 34 33 32 31 30 29 31 32 34
35 31 29 26 24 13 9 10 10 8 14 17 19 16 18 22 22 26 29 29 29 27 26 26 27 28 31 33 35 37 38 38 38 40 41 41 36 37 37 37 40 40 40
29 25 23 20 20 16 13 12 14 18 22 18 20 16 19 23 28 30 29 26 26 28 30 32 34 35 35 36 36 37 35 34 32 30 31 30 29 29 32 36 37 38 40
23 22 16 16 16 14 12 14 17 21 22 23 21 20 25 28 29 26 25 25 28 31 34 37 39 37 34 31 27 25 25 26 28 29 30 31 31 29 28 29 32 33 37
23 12 6 7 13 20 22 23 23 23 22 21 24 27 27 25 23 23 25 28 33 36 38 36 34 31 29 28 28 27 27 27 29 31 33 33 33 29 26 25 24 26 30
18 16 18 18 16 18 20 23 24 25 25 25 25 25 25 25 25 28 31 34 35 34 32 31 30 27 25 25 25 26 28 28 28 28 30 30 31 31 28 26 26 27 28
14 20 19 18 20 23 25 24 23 24 25 26 24 25 26 28 30 31 30 31 32 30 28 24 23 22 22 23 24 28 28 27 24 25 27 28 27 26 27 26 28 28 29
19 20 19 21 22 23 23 24 24 25 24 24 26 27 29 29 28 28 27 29 30 28 24 25 21 22 24 26 25 27 29 28 27 28 27 24 24 25 25 26 27 29 29
20 18 21 21 21 22 23 23 23 24 26 27 28 27 26 26 28 25 25 24 22 25 27 25 23 22 25 25 23 26 28 28 25 25 24 24 23 25 26 26 28 30 31
17 19 20 20 21 23 23 23 24 25 27 28 30 31 30 28 25 25 22 19 20 22 23 21 23 27 30 25 22 19 19 20 22 22 22 23 23 24 25 28 28 28 29
18 19 20 21 23 24 24 25 26 26 28 29 31 33 34 31 29 24 20 21 23 18 17 18 23 26 24 19 16 16 15 15 15 15 17 19 20 20 21 22 22 19 21
17 19 20 22 25 25 25 25 25 26 27 28 30 31 32 31 30 26 28 26 22 17 20 21 20 21 16 14 11 11 11 10 10 11 12 15 14 12 14 15 17 18 19
18 19 21 22 25 27 25 23 24 24 25 27 27 28 27 29 27 24 25 24 18 18 18 17 17 18 18 16 13 11 12 12 9 8 8 9 10 5 5 7 11 15 17
19 21 22 24 26 25 23 24 22 21 24 23 23 23 21 22 22 23 23 18 15 15 13 13 16 17 19 20 21 15 12 15 13 10 7 8 8 7 5 2 7 11 15
21 22 22 24 24 23 23 24 25 23 22 21 22 21 21 20 20 22 21 15 12 11 11 12 14 17 19 20 22 21 16 15 15 13 10 10 10 9 4 2 4 5 7
20 19 20 22 20 20 23 21 21 24 26 26 22 21 21 19 18 19 18 13 10 12 13 14 15 16 18 20 21 22 19 15 13 13 12 10 10 10 9 9 5 1 3
16 17 18 16 19 21 22 20 20 21 21 24 24 22 19 18 17 16 16 16 15 14 14 14 16 17 18 19 19 19 20 19 16 14 12 10 9 8 7 7 6 5 3
15 14 14 16 18 21 19 18 19 20 20 22 23 24 22 19 18 18 17 16 14 14 14 14 15 16 17 18 19 19 18 19 20 18 15 13 11 10 9 8 7 5 4
10 10 14 15 19 18 19 18 19 20 19 20 20 21 20 19 17 17 16 15 14 13 14 14 14 15 16 17 17 18 19 18 19 20 19 16 12 9 9 8 8 7 6
8 11 16 18 17 15 16 18 17 17 17 19 19 19 17 16 15 15 15 14 13 14 15 14 15 15 16 17 17 17 18 18 18 18 19 18 15 12 11 9 8 8 7
9 12 16 16 16 13 14 17 17 16 16 17 18 17 15 15 15 14 13 13 14 14 14 13 12 12 13 14 15 16 18 19 19 17 16 16 16 16 13 12 10 9 8
9 11 14 17 14 13 14 16 17 15 15 16 16 16 14 14 14 12 11 13 14 14 14 14 14 14 14 13 14 14 15 16 16 17 16 14 13 13 14 13 12 11 10
8 10 14 17 16 14 13 14 16 17 14 15 15 14 11 11 10 9 10 13 14 13 13 13 13 14 14 14 14 14 15 14 14 15 15 15 13 11 11 11 11 11 11
7 11 14 16 16 14 14 14 15 16 14 14 14 12 10 8 9 10 10 10 12 12 12 12 12 12 12 13 13 14 14 15 15 15 15 14 14 13 12 11 10 10 10

GFSGL_850_spd_003.txt.gz
Wind_Speed
25 25 31 34 35 30 27 21 15 10 9 8 9 11 12 17 20 15 12 13 17 16 16 16 17 19 19 16 17 19 21 22 26 30 24 23 24 23 23 23 24 25 24
24 30 32 29 26 26 21 18 10 10 7 9 14 19 23 20 14 16 18 18 19 21 21 22 22 22 22 23 23 21 19 20 23 28 26 24 24 23 21 21 22 23 23
31 33 30 26 25 21 19 14 11 12 14 17 21 22 20 17 17 19 19 22 25 26 25 23 21 21 22 22 24 23 22 23 25 28 29 27 26 26 28 28 27 28 29
33 29 24 23 21 19 16 15 15 14 18 21 17 18 22 21 20 21 25 29 28 25 23 23 24 25 26 28 27 27 26 26 27 28 29 29 28 27 28 29 30 28 30
25 23 26 21 17 15 12 14 19 20 22 22 23 24 24 23 24 28 30 27 24 24 25 28 30 31 31 31 27 25 24 25 26 26 27 26 27 24 26 26 29 28 29
23 23 17 18 17 16 16 19 22 23 23 23 22 23 26 26 25 24 23 23 24 26 28 31 31 32 30 28 26 24 24 24 26 26 25 26 26 25 24 24 25 25 28
18 13 15 16 17 17 20 24 26 25 24 23 22 23 24 23 22 21 22 25 27 30 30 27 27 25 24 20 20 21 23 25 27 28 29 29 29 25 23 23 23 23 25
14 14 17 19 20 22 24 24 24 24 25 26 24 22 23 23 24 25 26 27 27 27 27 27 23 21 18 18 18 20 21 23 23 24 26 27 27 26 28 27 26 25 24
15 17 18 20 22 22 23 24 25 26 25 24 24 25 25 25 24 25 26 24 23 24 25 20 18 19 19 18 19 22 24 24 22 22 22 23 23 24 24 24 27 27 26
15 20 19 21 21 22 22 24 25 25 25 25 26 25 25 25 26 25 23 20 22 21 20 19 20 18 19 17 21 24 24 22 21 21 20 22 23 23 24 26 27 26 24
14 19 19 19 20 21 23 25 26 26 26 26 28 27 25 24 25 23 20 18 18 20 20 20 18 19 19 25 24 23 22 22 22 21 21 20 21 21 21 23 26 30 27
18 17 18 19 20 22 25 26 26 26 27 28 30 26 21 24 22 21 18 17 17 19 20 18 15 21 26 24 18 15 16 17 16 18 17 18 19 20 20 20 23 26 27
19 17 18 19 21 24 25 26 26 24 24 25 22 24 23 22 20 21 21 21 19 15 14 14 20 20 19 15 12 12 13 12 12 12 12 13 16 18 19 19 19 20 22
18 17 18 21 22 24 25 24 22 22 20 20 22 22 22 21 20 21 22 21 18 15 15 17 16 14 14 12 9 7 8 9 8 9 10 10 9 11 12 13 15 16 17
18 18 19 22 23 25 23 21 21 21 21 20 19 19 21 21 21 22 23 21 16 16 11 12 11 13 15 15 12 7 9 12 9 7 6 6 7 8 6 7 11 13 15
18 18 20 21 22 22 21 21 19 17 19 18 20 20 18 18 19 21 21 15 14 12 9 9 12 15 16 16 16 13 10 11 13 10 7 7 7 6 5 3 5 8 10
18 19 18 18 20 18 20 22 21 20 17 16 19 21 20 18 17 19 18 13 10 9 11 13 14 15 15 15 18 18 15 13 12 12 10 8 8 8 6 3 3 3 4
16 15 16 16 14 17 20 20 19 20 22 22 21 22 20 18 17 17 16 12 10 12 14 15 15 16 17 17 18 18 18 16 13 11 10 9 8 7 6 6 3 0 3
14 14 11 11 14 17 19 18 19 20 20 20 23 22 20 18 16 15 15 15 14 14 14 14 15 16 16 17 18 17 16 17 16 13 11 10 9 8 6 5 4 2 2
11 9 9 13 15 17 17 17 19 19 18 19 22 23 22 20 18 18 17 15 14 13 14 14 14 15 16 17 18 18 17 16 17 17 14 12 9 8 7 7 6 4 2
11 7 10 14 17 15 14 17 19 18 18 18 19 20 19 18 17 16 16 16 16 16 15 14 14 14 15 16 16 17 17 17 16 17 18 15 12 9 8 7 7 6 5
10 10 11 15 16 14 13 16 18 17 16 17 18 17 17 16 15 14 14 15 16 16 16 15 14 14 15 15 16 16 17 18 16 15 16 16 15 12 10 8 7 6 5
7 8 11 14 16 15 14 15 17 17 16 17 17 16 16 16 14 12 13 14 15 15 15 14 14 13 14 14 15 15 16 17 18 17 15 14 14 13 11 10 9 8 7
10 8 10 14 15 16 14 14 16 17 16 15 16 14 13 14 12 11 11 12 14 14 14 14 14 14 14 14 14 14 14 14 14 14 15 14 12 11 10 10 10 10 10
9 6 9 14 15 15 14 14 15 16 16 15 15 14 11 10 10 10 10 10 11 14 13 13 12 13 13 14 13 14 14 14 14 13 13 14 13 11 10 9 9 9 8
7 8 11 13 15 16 15 14 15 15 15 14 14 13 11 10 9 9 9 10 11 11 12 11 11 11 12 12 12 13 13 14 14 14 13 13 12 11 10 10 9 8 8

GFSGL_850_spd_006.txt.gz
Wind_Speed
13 18 20 21 20 20 19 17 15 14 12 10 10 11 12 17 26 25 14 11 11 11 12 14 16 16 17 17 17 18 20 20 25 24 22 22 23 23 23 22 22 23 23
20 19 18 17 17 17 17 15 13 13 11 11 13 18 24 18 15 14 14 15 15 16 16 17 18 18 18 18 18 19 20 21 23 26 25 24 24 24 25 25 24 23 24
19 16 15 16 18 16 16 17 15 16 16 18 18 18 16 17 18 17 16 16 19 20 20 19 18 17 17 17 18 20 21 22 23 25 28 26 25 25 27 27 27 27 28
17 17 17 17 15 16 18 15 16 15 16 17 20 20 19 19 19 19 18 20 20 20 17 16 17 18 19 20 21 22 23 25 25 26 28 28 26 26 27 29 30 28 29
14 17 12 10 11 14 15 15 15 16 18 18 18 18 18 19 19 21 18 18 20 20 20 20 20 21 26 29 27 24 24 25 26 26 27 28 27 26 28 28 30 28 29
16 11 9 11 13 14 14 17 18 18 17 17 18 18 19 18 21 22 22 19 20 22 24 23 23 25 24 25 28 28 25 25 27 26 26 27 27 25 23 23 25 26 28
14 10 12 13 13 14 16 17 17 18 18 19 19 18 18 17 23 26 27 25 23 23 24 24 24 23 24 22 23 25 25 25 26 26 27 28 27 24 22 23 23 24 26
14 14 13 13 13 15 16 17 18 19 20 19 19 18 20 20 25 28 27 25 21 23 23 23 24 24 22 22 21 21 21 21 22 24 25 26 26 25 24 26 27 26 26
17 16 13 13 13 15 16 17 19 20 20 19 19 20 22 22 23 26 26 22 21 23 22 21 21 22 21 22 21 22 22 23 23 27 27 27 29 29 28 24 24 25 30
15 12 13 13 13 15 16 18 20 21 21 19 20 20 22 21 21 24 20 20 21 21 21 20 20 20 20 20 19 21 24 24 23 23 21 21 24 25 25 28 27 28 27
12 14 14 13 13 14 17 19 22 23 21 21 23 24 20 21 23 23 22 19 19 21 20 20 18 20 21 21 24 28 23 24 22 21 21 21 21 21 23 25 26 29 30
15 16 14 12 12 15 18 21 23 22 20 22 22 23 20 22 22 22 22 20 21 21 20 18 17 15 25 24 21 17 18 16 16 15 15 16 16 17 19 20 22 22 25
16 16 13 12 13 16 20 22 21 18 18 19 20 22 22 21 19 21 22 22 21 19 17 17 21 20 18 13 14 12 10 10 11 11 12 13 13 14 17 20 21 20 21
16 15 13 13 15 17 19 17 17 16 16 17 19 20 21 20 19 21 21 22 19 17 17 11 18 14 10 11 10 9 7 9 9 9 10 11 10 10 12 13 15 18 20
15 13 12 12 14 16 15 14 13 13 16 16 16 17 19 20 19 22 22 21 18 18 12 10 10 10 10 11 11 9 8 8 9 8 8 8 9 8 9 8 9 11 14
17 10 10 14 12 12 12 13 16 19 18 16 17 19 17 16 19 19 20 17 15 12 7 8 10 11 12 13 13 12 10 10 10 9 8 7 7 8 8 7 5 6 8
14 14 10 11 9 9 11 13 13 13 19 20 20 19 18 16 16 17 16 13 10 7 8 10 11 13 13 13 13 13 12 12 11 9 10 8 7 8 9 7 6 5 4
14 11 9 7 6 9 11 11 11 13 15 14 16 20 19 16 15 14 13 10 9 9 9 11 12 13 12 13 13 13 13 13 12 11 9 9 8 8 8 8 7 4 4
9 6 7 7 9 13 12 10 11 12 13 13 14 13 16 16 16 15 13 12 11 11 11 11 11 11 12 12 13 13 14 13 13 14 12 10 8 9 8 8 7 9 5
8 7 5 6 8 9 8 9 11 11 12 12 13 13 14 12 12 12 12 11 10 11 11 10 10 11 11 12 13 13 13 14 14 13 14 13 11 9 9 8 9 8 7
7 6 6 6 7 8 8 8 10 10 10 11 11 12 16 11 10 10 10 11 11 11 11 10 10 10 11 11 12 12 13 13 13 13 14 14 13 11 10 8 8 7 7
5 6 5 7 7 8 8 8 8 9 9 9 10 10 14 10 8 8 9 10 13 13 12 11 11 11 12 12 13 12 12 12 13 13 12 13 12 11 10 9 9 8 7
6 5 6 6 9 10 9 8 9 8 9 8 8 9 7 9 9 8 9 10 12 13 13 12 12 12 12 13 13 14 14 15 15 14 13 12 11 10 10 9 9 8 8
9 7 7 7 9 10 9 9 9 10 10 8 8 8 7 7 8 8 9 9 9 11 12 12 11 11 11 12 12 13 13 13 13 13 12 12 10 10 8 8 8 9 8
7 5 6 8 9 8 10 10 9 9 10 9 8 7 7 8 8 8 8 8 8 8 11 11 11 10 11 11 11 11 12 12 12 12 11 10 10 9 8 8 8 7 8
6 5 7 8 9 10 10 10 9 10 10 9 8 8 8 8 8 8 8 7 8 8 9 9 10 10 10 10 11 11 11 12 11 11 10 9 9 9 8 7 7 6 7

GFSGL_850_spd_009.txt.gz
Wind_Speed
16 16 16 17 17 18 20 20 19 22 19 20 17 20 22 25 28 21 17 18 18 17 16 17 18 18 18 19 20 20 22 21 25 25 21 20 21 21 22 22 21 22 22
14 16 17 18 20 21 19 22 20 18 18 19 20 22 21 19 19 19 20 17 18 19 19 20 21 22 22 21 21 21 22 22 24 27 25 25 24 23 24 23 24 23 23
16 18 19 19 19 18 17 18 17 17 18 19 21 22 23 23 23 22 21 22 20 21 22 24 24 24 23 22 21 22 21 22 23 26 27 25 26 26 26 25 26 26 26
18 19 19 18 16 16 15 15 17 18 19 20 20 21 21 21 22 22 18 19 22 23 24 24 24 24 24 23 21 21 21 22 23 26 28 28 27 26 26 27 28 27 27
20 20 20 17 16 16 15 17 18 19 19 19 19 20 20 21 22 21 23 23 22 23 24 25 26 25 26 30 30 28 24 23 24 26 28 29 28 26 26 25 26 25 25
21 21 20 18 16 15 16 17 18 18 19 19 20 21 21 21 24 28 30 30 26 25 25 25 26 27 26 25 25 29 29 24 24 26 29 29 26 25 23 24 24 24 26
22 22 21 17 17 16 16 18 18 19 19 21 21 21 21 21 25 29 34 33 26 25 25 26 26 25 26 25 25 25 21 24 25 25 28 28 28 26 24 24 25 24 23
25 23 20 17 19 17 18 18 19 19 21 22 21 20 21 22 26 32 34 31 24 24 24 25 26 25 25 25 22 23 24 23 22 23 25 26 24 24 25 28 27 27 27
27 20 19 20 17 17 18 19 19 21 22 22 19 21 23 24 25 29 31 26 22 24 23 23 23 25 26 27 24 23 23 23 22 24 27 29 31 31 30 30 28 24 25
24 17 17 17 17 16 18 19 20 22 22 21 20 23 24 25 24 28 26 26 25 23 22 23 23 23 24 22 23 24 24 21 22 25 25 24 22 24 25 31 29 30 31
22 14 16 17 15 15 17 19 22 23 22 19 26 26 23 21 24 22 24 23 23 26 24 24 22 21 15 15 18 24 28 28 26 24 23 22 21 23 25 23 26 28 31
21 15 15 15 13 15 18 20 21 23 18 20 23 24 22 23 21 21 24 25 24 25 24 22 22 20 24 28 26 20 20 21 17 14 16 17 17 16 17 19 21 25 27
15 16 15 12 13 16 17 20 21 17 17 19 20 22 23 22 21 21 25 24 24 22 21 22 20 17 23 15 13 15 11 8 12 13 13 13 13 14 15 17 20 21 23
17 13 13 13 14 15 16 17 15 16 17 17 20 20 21 21 21 21 24 25 24 22 21 13 16 15 11 11 13 10 8 8 10 10 12 11 10 10 12 14 14 14 17
14 12 13 12 13 15 15 13 14 13 20 23 18 18 20 21 21 23 23 24 21 20 14 14 13 13 11 11 11 10 8 9 9 9 10 10 9 8 9 9 9 9 11
13 11 11 12 12 11 11 12 16 18 20 23 22 23 27 18 20 20 21 19 17 14 11 12 13 14 14 15 14 13 11 12 11 10 10 9 9 7 9 7 7 6 7
13 11 10 10 9 8 10 13 13 13 19 21 22 25 28 28 19 18 18 14 14 12 10 12 13 16 16 16 17 15 15 15 13 11 10 10 10 8 8 6 7 6 7
13 11 10 8 7 9 10 11 11 12 14 14 18 22 23 26 19 17 17 12 12 12 11 13 14 14 14 14 15 16 16 15 14 13 12 10 10 9 9 10 8 9 6
13 8 11 8 9 11 10 11 10 12 13 14 15 14 18 18 17 17 16 11 12 13 13 12 13 13 13 13 14 14 16 16 14 12 12 12 11 9 9 10 9 9 6
10 15 8 7 8 10 11 10 9 11 11 13 13 15 16 14 13 12 13 12 11 10 11 11 11 12 13 13 13 12 14 15 16 13 13 13 13 10 10 9 10 9 8
11 11 11 8 8 9 9 9 10 10 10 12 13 18 20 13 12 11 11 11 10 10 10 10 10 10 11 12 12 12 13 13 13 14 12 13 13 12 11 10 9 8 8
10 9 10 10 10 10 10 10 10 11 10 11 11 13 19 12 10 11 10 10 10 11 11 10 10 11 12 12 12 12 12 13 12 13 12 13 14 11 11 11 9 9 9
11 9 9 11 11 12 11 11 11 12 12 11 11 11 11 11 10 9 10 10 9 10 11 11 10 11 12 12 12 13 14 14 15 15 12 13 11 11 11 10 12 11 10
11 12 11 11 12 12 11 12 12 12 13 12 12 12 11 10 10 10 11 11 10 9 10 11 11 11 11 11 11 12 12 13 13 13 11 11 11 11 9 9 8 11 10
12 10 8 9 11 13 13 12 12 11 12 14 12 12 11 11 9 9 9 9 10 9 9 10 10 11 11 11 11 11 12 12 12 12 11 9 10 10 8 9 8 8 9
12 9 10 10 11 11 13 12 12 11 12 13 13 13 12 11 10 10 9 10 10 11 11 11 10 11 11 11 11 11 12 12 12 11 11 10 10 9 9 9 9 8 8

GFSGL_850_spd_012.txt.gz
Wind_Speed
17 15 14 16 17 17 16 19 24 30 24 22 23 26 25 26 25 24 25 25 23 23 22 22 22 20 20 20 22 20 22 22 26 26 21 20 20 16 16 20 19 17 17
14 15 18 18 17 17 20 23 24 21 21 20 21 23 24 22 22 23 24 24 25 23 22 23 26 25 25 24 21 21 21 21 24 29 25 23 24 25 23 20 19 19 21
16 18 18 19 20 20 20 19 19 19 20 21 23 23 24 23 23 23 23 20 20 22 23 26 24 26 27 28 26 26 25 22 23 23 25 24 24 23 25 23 22 22 21
23 19 17 20 18 16 16 20 18 20 22 22 22 22 22 23 24 24 22 25 29 33 36 30 30 26 26 26 25 21 24 27 28 30 31 28 25 26 24 26 28 27 29
21 26 23 23 18 14 16 17 19 20 21 20 22 23 24 24 23 25 30 32 33 35 37 33 27 26 28 26 26 27 25 26 29 30 30 25 23 22 22 19 17 15 16
23 27 28 23 17 13 20 14 16 20 20 22 22 24 23 21 24 29 32 33 34 36 39 34 25 26 26 25 23 25 25 26 26 27 27 27 29 27 27 22 20 19 20
29 23 21 24 21 15 16 11 14 19 21 23 25 22 19 19 24 32 35 36 36 37 30 27 29 28 27 26 24 25 26 22 22 25 25 29 30 27 28 33 32 26 23
35 32 29 19 11 15 15 10 14 18 22 24 22 21 22 29 33 30 32 31 35 32 27 27 27 27 26 25 26 27 26 27 29 26 29 28 26 24 25 25 25 27 30
40 31 29 19 13 16 13 11 13 21 23 20 21 23 28 32 32 28 27 33 29 31 30 24 24 26 26 22 23 24 24 23 21 21 25 27 25 26 29 32 35 33 34
30 30 26 22 13 15 11 12 17 20 18 24 28 28 32 30 25 26 29 27 28 31 30 28 26 24 27 25 23 23 24 23 20 27 30 33 34 33 29 24 27 31 33
30 27 23 18 13 11 9 16 18 19 20 22 26 28 27 23 24 24 27 24 25 30 29 27 23 23 22 24 24 25 27 28 30 30 27 23 18 17 19 21 28 28 26
30 27 25 21 12 9 13 16 17 19 18 22 26 25 23 21 27 25 22 23 30 26 26 24 26 24 22 22 21 14 16 19 16 10 13 17 18 18 17 13 17 21 24
26 22 18 17 12 13 14 18 17 16 18 25 26 27 25 27 25 22 28 28 24 25 22 22 15 16 19 13 13 14 12 10 14 12 13 13 14 15 15 14 15 16 20
21 20 16 15 14 13 13 15 14 17 23 25 24 26 27 29 27 26 26 25 25 22 19 16 15 16 12 9 13 12 10 9 10 11 11 11 11 10 10 11 13 10 12
18 14 13 13 13 15 14 14 15 19 22 22 23 23 26 29 28 24 22 24 23 21 14 15 15 16 16 16 15 12 11 11 10 9 9 11 10 9 7 8 7 9 9
13 13 13 14 12 13 10 13 16 19 19 22 21 24 27 27 29 22 20 20 17 18 13 15 16 17 16 18 18 14 15 15 13 11 10 10 11 8 9 8 8 7 8
18 15 12 11 11 11 13 16 19 16 17 19 21 24 25 26 26 21 20 17 15 16 14 13 15 17 16 15 16 16 19 17 13 12 12 11 10 8 11 9 8 8 7
14 15 15 11 14 14 14 13 14 16 18 16 20 21 18 26 22 20 21 18 15 16 15 14 15 16 16 15 15 14 17 18 15 13 12 12 11 9 10 10 8 9 8
12 19 21 17 10 10 13 13 14 14 15 16 17 16 20 27 18 17 18 19 17 14 15 13 13 14 15 14 13 11 13 15 16 11 12 13 13 10 10 9 9 8 8
10 15 19 14 10 11 13 14 14 14 15 15 17 20 23 27 17 17 17 18 18 15 14 12 12 13 14 13 12 10 11 11 11 10 10 13 14 10 12 10 9 8 8
12 17 17 14 11 12 14 13 14 15 15 14 16 20 21 22 16 17 16 16 16 16 15 13 12 13 14 13 13 12 12 13 12 10 7 10 13 11 11 11 8 8 10
20 19 10 13 13 14 13 15 13 13 15 15 17 17 19 18 20 18 14 16 15 15 15 14 13 14 15 15 14 14 14 15 15 14 9 8 10 8 9 10 11 9 9
11 12 13 12 13 15 16 14 13 13 15 17 16 16 16 17 19 18 17 15 14 14 13 14 13 12 13 13 13 14 15 15 15 15 12 10 12 9 7 7 8 12 10
10 12 13 13 12 13 15 14 14 16 14 15 16 16 16 17 19 17 17 16 17 15 14 12 13 13 13 13 12 13 14 14 14 13 12 12 11 10 8 8 4 8 12
14 12 14 11 12 12 14 16 15 15 13 13 16 16 17 16 18 16 17 16 16 15 15 14 13 13 13 14 13 13 13 14 14 13 12 11 10 10 8 8 6 5 9
18 17 14 13 14 14 14 14 17 16 14 14 14 15 16 17 18 17 17 18 16 15 17 15 14 13 13 13 13 13 13 13 13 13 12 11 10 10 9 10 8 7 7

GFSGL_850_spd_015.txt.gz
Wind_Speed
22 24 26 24 19 19 23 26 26 31 27 20 17 17 22 22 22 24 24 24 23 23 19 18 19 18 20 25 27 24 26 25 24 28 24 18 17 18 12 14 16 15 9
22 26 20 24 25 26 27 25 28 25 19 15 17 23 22 22 24 23 24 25 26 25 24 26 26 29 31 25 22 26 26 24 26 30 30 27 21 16 18 13 13 13 12
28 25 22 19 25 25 27 26 19 20 21 19 20 21 21 24 26 26 26 26 25 29 32 34 34 32 31 29 24 24 27 26 23 26 30 30 30 27 26 27 24 22 21
29 28 35 37 26 20 19 15 16 22 19 18 18 19 23 24 24 23 26 30 34 37 35 35 36 36 33 29 26 26 26 28 28 30 31 32 32 34 30 23 23 22 24
28 32 34 26 20 23 34 25 21 16 15 13 17 21 20 22 25 27 30 33 36 40 39 38 38 33 24 20 22 22 20 23 23 26 26 27 26 23 22 21 20 17 16
32 33 33 28 29 33 26 19 13 13 14 16 20 19 19 21 26 29 31 35 36 32 31 35 33 28 23 23 24 24 23 23 24 23 24 25 27 26 24 25 31 30 26
29 33 27 33 37 30 20 13 15 15 13 19 18 18 19 27 26 28 34 31 29 30 32 31 32 26 22 23 24 25 25 21 19 19 20 21 22 25 22 21 19 20 21
32 30 33 37 37 29 19 17 10 12 18 16 15 20 25 23 27 29 28 29 31 30 28 29 30 26 24 24 24 24 24 26 23 21 22 26 23 23 21 21 22 24 25
25 29 34 35 28 24 19 15 17 16 17 13 21 24 25 27 26 28 29 31 28 29 27 30 27 26 22 21 23 22 21 21 21 19 18 21 22 23 21 20 23 25 29
26 29 33 32 25 25 16 8 12 15 12 19 21 23 26 27 28 26 27 25 24 27 33 34 24 19 20 18 19 21 23 22 22 21 21 24 27 31 32 32 33 31 27
29 32 29 27 22 17 10 11 11 15 16 18 21 25 26 28 26 28 26 24 28 32 30 26 22 21 21 19 20 21 20 16 17 19 18 16 12 11 11 12 17 21 29
31 32 27 22 16 12 13 13 13 14 17 20 24 28 27 26 26 26 25 25 21 23 24 21 18 20 16 18 15 12 13 13 11 10 12 10 11 11 11 15 12 15 17
35 24 21 14 13 11 10 10 15 18 19 22 25 26 25 27 28 29 25 22 21 21 19 16 15 19 14 11 11 11 9 9 9 8 10 10 10 10 9 9 9 10 13
27 25 16 12 11 12 15 18 16 17 20 23 23 23 24 26 29 30 27 25 22 22 15 16 17 14 12 14 14 11 10 11 9 9 8 8 8 7 6 7 7 5 4
24 18 13 14 15 13 14 12 16 19 22 20 20 21 25 25 29 24 23 23 21 20 16 15 16 18 16 17 16 13 14 14 10 8 9 9 9 7 7 9 4 4 5
25 16 16 12 13 11 12 15 16 18 16 17 18 21 24 24 28 23 19 19 15 19 15 14 16 18 17 16 15 16 17 17 11 10 9 10 9 10 8 8 7 6 7
20 19 15 17 15 14 15 18 19 13 12 15 18 19 23 23 29 25 18 20 16 15 16 14 16 17 17 15 14 14 17 17 11 10 10 10 10 9 9 9 7 6 4
19 14 17 20 20 17 14 11 12 14 16 15 17 18 21 22 28 21 17 19 19 17 15 14 15 16 17 16 14 13 12 13 12 10 11 11 10 10 10 9 8 7 6
13 13 15 19 19 16 10 11 13 13 13 14 14 18 20 21 24 18 18 20 21 19 17 14 14 16 17 15 13 11 12 13 11 8 10 10 10 13 10 8 8 7 7
11 13 15 17 20 13 11 13 14 13 15 14 15 17 19 21 22 21 22 20 20 17 16 16 14 15 16 15 14 14 14 15 12 6 7 9 7 10 12 10 9 8 9
13 16 20 22 21 13 12 13 13 16 13 14 15 18 19 19 21 21 23 21 19 18 15 14 15 15 14 14 14 14 14 15 14 10 7 7 7 6 8 8 8 7 8
17 20 24 21 11 12 12 13 16 13 13 14 15 17 17 18 20 20 22 20 20 18 16 13 14 15 15 15 15 14 14 14 13 11 9 9 7 4 6 5 7 8 7
17 16 12 12 12 11 13 13 15 13 14 15 14 14 16 17 19 19 21 19 19 19 17 14 13 13 13 13 14 15 15 15 15 14 12 11 10 8 6 8 5 8 8
12 12 12 11 12 11 12 12 13 15 14 14 13 13 16 17 19 19 20 19 19 19 17 15 14 13 13 13 12 13 13 14 14 13 13 12 11 9 7 7 4 7 10
15 15 15 16 15 12 14 14 14 15 16 16 14 14 15 17 17 17 19 19 19 19 15 17 15 13 13 13 12 12 12 13 14 13 12 11 10 9 8 8 7 7 9
18 18 19 19 18 16 17 16 16 16 18 16 15 15 16 17 16 16 17 17 18 18 17 18 16 14 14 13 12 12 12 12 12 13 12 11 10 8 8 8 7 7 7

GFSGL_850_spd_018.txt.gz
Wind_Speed
17 21 25 27 27 28 25 25 26 24 22 21 25 21 21 25 22 22 23 23 24 23 23 24 26 30 31 32 32 30 26 21 26 27 23 24 25 21 20 19 14 12 14
20 22 23 26 29 29 30 34 32 27 19 20 20 20 23 23 23 25 26 25 24 26 26 30 34 34 33 31 30 29 28 25 22 25 23 24 25 21 21 22 20 16 13
19 15 22 24 27 29 30 29 13 16 30 13 19 24 21 20 25 24 27 24 25 28 29 33 37 36 36 35 33 31 29 27 23 24 27 26 27 27 26 25 25 27 27
21 20 26 30 25 23 25 25 31 35 24 11 17 15 19 21 22 25 25 27 28 31 33 35 29 29 30 29 25 24 22 24 26 27 25 25 22 23 24 24 24 22 25
23 28 32 32 27 30 29 29 31 23 16 12 11 16 20 20 20 24 28 28 32 34 29 27 29 27 28 23 20 23 21 21 22 22 24 22 21 22 21 20 20 22 21
28 29 29 31 31 33 35 26 17 17 6 13 14 17 19 17 25 24 28 32 30 28 29 30 28 29 27 22 20 19 22 21 21 18 19 20 20 21 21 18 20 20 23
23 24 31 30 33 38 27 24 19 17 6 11 15 17 17 24 22 27 28 28 28 29 28 28 28 26 26 21 21 20 20 21 22 22 22 20 19 20 19 23 23 18 19
23 29 29 32 36 32 21 23 16 5 13 12 11 17 23 22 25 27 29 29 29 30 26 27 29 28 22 20 19 22 20 18 17 19 21 22 21 20 20 19 18 18 20
26 28 30 32 33 26 18 10 7 9 11 7 18 20 22 25 26 27 29 29 27 27 28 28 23 22 20 17 20 21 18 18 17 16 15 18 19 18 17 17 18 17 19
27 27 30 31 24 17 14 9 7 11 9 15 14 18 22 24 25 26 25 28 28 26 25 23 20 17 17 18 18 19 22 23 19 18 20 22 22 24 24 26 29 31 31
24 30 29 22 17 10 11 10 9 9 8 11 16 20 22 23 25 26 27 21 21 22 23 20 17 18 19 20 18 17 17 13 15 16 13 10 10 13 15 16 16 18 23
30 28 21 20 13 12 10 9 8 10 11 15 18 20 21 22 23 27 24 18 18 18 20 17 18 21 16 12 11 12 10 10 8 8 6 7 7 7 8 10 13 14 16
29 26 24 17 10 9 10 12 13 13 14 17 19 19 20 21 23 26 26 23 19 18 20 15 18 15 12 13 13 10 9 8 7 8 8 8 7 5 4 6 8 10 12
25 23 21 13 13 12 13 12 11 13 17 18 17 17 20 21 24 26 27 24 20 20 20 15 15 15 14 13 11 11 11 9 8 8 7 7 7 5 4 5 2 2 3
22 21 17 14 13 12 9 10 13 16 18 15 15 17 19 21 24 22 21 20 17 21 17 13 14 16 16 14 12 13 13 12 11 8 7 8 7 7 6 7 4 3 3
21 17 16 13 12 11 12 13 15 17 12 12 15 16 18 20 23 21 18 19 18 17 15 14 15 17 17 15 13 12 13 14 12 10 9 8 8 9 8 6 6 4 7
22 16 16 13 13 15 15 17 16 7 9 11 13 15 17 19 21 23 19 19 18 17 15 13 14 16 16 15 14 12 14 13 10 9 10 8 6 7 8 7 6 4 4
15 15 13 14 15 17 16 12 9 12 14 12 13 15 16 17 19 21 20 18 18 16 17 15 15 16 17 15 15 14 14 12 9 8 9 9 9 7 6 8 8 7 4
14 14 14 15 13 15 16 14 12 12 10 13 13 14 16 17 17 19 19 20 20 18 16 16 15 16 16 15 14 13 14 14 10 6 7 8 8 8 7 7 7 7 7
15 15 15 14 15 16 17 16 12 12 12 13 11 13 16 16 16 17 19 20 20 18 16 14 14 14 15 14 14 13 13 13 12 7 6 7 6 7 8 7 6 7 9
16 16 15 15 18 20 18 15 13 13 14 10 11 12 15 14 16 17 17 18 18 18 17 15 14 13 14 14 13 13 13 13 13 11 9 8 7 5 5 5 6 8 8
19 16 17 19 19 14 13 14 14 14 13 11 13 12 12 13 15 16 17 17 17 17 17 15 14 14 14 14 14 13 13 13 12 11 10 10 9 7 6 7 7 8 9
19 16 14 14 14 14 14 13 14 14 13 13 13 12 13 13 15 15 15 16 15 15 16 14 14 14 14 13 13 13 14 13 14 14 12 11 10 9 8 8 8 8 10
18 16 14 13 12 13 14 13 14 14 14 15 14 15 14 13 13 14 15 15 14 14 15 14 14 13 14 12 12 12 12 12 13 13 13 12 11 10 9 8 9 9 11
17 18 17 17 17 17 18 17 15 16 16 16 17 18 15 15 15 15 14 14 13 13 13 14 14 13 13 12 12 12 11 11 12 13 13 12 11 10 10 10 9 8 9
18 21 21 21 20 20 22 20 19 18 18 18 18 16 16 16 15 12 12 11 12 12 13 14 14 14 14 12 12 11 10 10 11 12 12 12 11 10 9 9 9 9 8

GFSGL_850_spd_021.txt.gz
Wind_Speed
13 14 16 15 17 20 23 22 23 21 28 25 26 19 19 19 19 18 21 23 25 25 26 24 26 29 32 35 33 31 31 28 28 32 26 23 21 21 22 20 21 18 14
15 19 20 18 24 27 21 21 25 29 28 28 32 22 18 19 19 20 22 24 25 26 26 28 32 35 37 33 30 30 29 28 28 31 28 21 22 22 23 23 19 21 23
18 17 19 26 31 26 23 25 27 27 28 31 30 21 15 20 19 23 24 23 23 27 28 33 35 33 31 30 30 30 28 24 24 25 28 29 25 22 22 23 23 24 22
18 22 28 29 26 26 26 30 32 24 27 24 21 15 13 15 22 20 20 25 27 28 33 32 29 28 30 29 29 29 25 25 21 23 24 24 24 22 22 22 21 22 24
24 27 26 27 27 28 31 35 25 21 23 22 15 10 14 17 17 19 24 27 30 32 31 30 29 28 25 26 25 26 25 24 24 22 19 19 21 21 21 20 20 19 19
28 25 22 23 27 29 34 30 21 18 20 19 13 11 15 17 19 22 27 29 30 31 31 31 29 28 26 27 28 22 22 23 24 26 26 21 18 16 18 19 19 18 20
21 18 20 24 28 33 32 24 21 20 12 7 12 14 15 18 20 25 28 28 29 30 29 28 28 28 26 24 21 18 18 20 20 22 25 25 24 21 18 19 20 21 23
16 19 24 29 33 32 26 19 15 8 9 11 13 11 16 20 25 27 28 28 29 30 27 23 23 22 21 20 21 24 23 19 15 17 16 18 22 22 22 22 21 21 21
21 26 29 32 31 25 18 15 8 8 11 7 12 16 18 23 24 24 25 29 30 25 21 21 19 18 16 21 20 19 20 21 21 22 21 20 20 14 17 16 19 16 18
27 27 29 27 23 22 15 12 10 10 8 12 12 17 21 21 21 23 26 27 25 22 21 19 15 17 20 22 20 19 20 19 18 15 16 17 19 23 23 24 23 25 24
26 27 25 22 23 18 14 13 12 10 10 11 16 18 19 19 20 22 25 23 21 22 21 21 19 19 19 17 17 15 17 18 16 16 14 11 10 11 15 20 24 26 27
26 24 23 22 21 14 11 9 9 10 11 13 15 16 15 17 18 22 23 20 19 19 21 21 20 19 17 16 16 14 14 13 10 10 12 11 10 9 10 12 14 15 18
26 21 21 21 16 13 13 13 12 10 11 14 15 14 14 16 17 21 21 22 22 20 22 18 17 18 17 14 11 11 12 11 11 10 11 10 10 9 7 6 10 13 14
20 17 20 19 16 15 14 12 11 11 13 15 14 13 13 15 18 20 22 22 23 21 19 18 17 16 14 11 9 11 13 10 11 10 10 10 9 6 4 5 5 3 3
18 18 21 17 14 13 10 10 13 15 16 15 13 13 14 15 18 19 17 21 21 21 19 16 16 16 16 13 10 12 14 12 10 11 10 9 8 8 8 7 6 3 4
21 20 20 16 12 12 12 13 14 17 15 12 13 12 12 14 17 18 18 19 19 19 18 16 16 16 17 16 16 14 14 13 11 11 10 8 8 9 9 7 6 5 5
20 20 15 16 13 13 15 16 18 7 9 11 13 12 12 14 15 16 17 18 17 17 17 16 15 16 17 16 16 15 16 13 9 9 10 10 7 7 7 8 7 4 4
20 16 16 17 16 17 15 15 14 14 12 12 11 12 11 12 13 14 15 17 15 15 16 16 16 15 16 15 16 16 16 14 9 7 8 9 8 7 7 7 7 7 6
19 17 16 16 16 14 14 14 14 15 15 12 13 12 10 12 12 13 14 16 15 15 15 14 14 15 15 14 14 14 14 15 13 9 9 8 7 7 7 6 6 7 8
19 21 18 17 14 14 16 17 16 15 15 13 14 11 11 12 10 11 13 14 14 14 13 13 13 13 14 14 14 13 13 13 12 11 10 9 8 7 7 8 9 10 10
21 20 21 17 16 17 19 19 16 16 15 14 12 12 13 13 11 12 12 12 13 12 12 13 12 12 13 13 13 13 13 13 13 12 11 11 10 9 8 9 9 10 12
26 24 22 19 17 18 17 12 15 16 17 16 14 12 13 13 13 12 12 11 12 11 11 11 12 13 12 12 13 13 13 13 12 11 11 11 11 10 9 8 9 9 11
27 26 20 19 15 14 14 13 15 16 16 17 16 15 14 16 15 14 12 11 12 11 11 11 11 13 13 12 13 13 13 13 13 13 12 11 11 11 10 10 11 10 11
23 19 17 18 17 16 15 14 14 17 18 18 18 18 18 16 16 16 14 13 12 11 10 10 11 12 12 13 13 13 12 13 12 12 12 12 11 11 10 10 10 10 9
22 20 18 20 21 20 20 20 20 18 19 21 21 20 20 21 19 18 16 15 13 12 11 10 11 11 12 13 13 13 12 11 11 11 11 11 12 11 10 10 9 9 9
22 21 20 21 23 24 25 26 24 22 21 21 22 22 23 20 18 17 16 14 12 12 12 11 12 12 12 13 13 12 11 11 11 11 11 11 11 10 10 10 9 9 9

GFSGL_850_spd_024.txt.gz
Wind_Speed
13 15 16 14 16 21 25 22 17 18 22 26 28 26 27 24 17 17 15 18 22 23 23 27 28 29 33 36 34 33 29 27 33 39 37 37 34 25 22 24 25 27 25
12 13 13 16 22 22 20 19 21 27 26 23 24 24 29 25 14 18 13 20 23 23 27 31 31 33 36 34 31 31 31 28 28 32 33 33 32 23 22 25 27 26 24
12 14 19 22 21 21 24 26 29 31 26 22 20 26 21 10 14 12 18 20 22 26 31 32 35 35 35 33 32 32 31 30 26 25 32 30 29 25 27 25 25 25 24
15 20 22 21 21 24 26 29 33 29 22 19 22 23 15 13 12 18 18 20 27 30 32 33 34 34 32 32 30 31 30 28 28 29 27 28 24 23 22 25 25 23 24
20 22 18 17 20 26 30 32 32 24 20 18 20 18 11 14 17 14 19 25 29 32 33 34 33 31 26 26 27 28 31 30 27 26 28 26 27 21 20 21 22 20 21
20 18 17 19 25 28 31 32 26 22 20 18 16 10 12 13 15 19 22 28 30 30 32 33 32 28 25 22 24 23 23 24 25 25 27 29 27 26 25 21 18 19 20
18 18 17 23 27 30 29 26 21 20 12 6 10 13 11 14 19 22 27 28 28 29 31 27 24 23 21 19 17 20 22 23 22 23 24 21 22 23 23 26 24 18 20
16 17 22 25 28 28 24 23 18 15 12 13 13 9 14 17 22 25 26 25 27 27 25 22 22 21 18 19 26 24 24 24 22 21 21 22 22 21 19 23 24 24 25
19 21 23 26 27 25 25 20 15 14 15 13 10 12 16 21 23 23 23 24 25 24 22 20 20 20 18 22 23 23 23 19 17 17 20 21 21 23 23 17 18 19 22
20 22 25 26 25 24 23 16 14 13 13 12 12 15 20 21 20 20 21 23 24 24 23 21 20 18 19 20 21 22 21 22 22 19 18 17 17 19 21 24 24 23 17
21 24 25 24 23 23 19 13 12 11 11 12 15 18 19 19 18 18 21 21 22 24 23 24 20 18 19 19 18 17 19 21 18 15 14 15 13 12 13 14 19 26 28
23 25 24 21 21 20 16 15 14 13 13 13 15 17 16 15 17 18 20 19 20 22 22 21 20 19 20 19 15 15 17 17 16 14 14 13 13 13 12 12 14 15 16
25 25 21 20 20 18 17 16 15 14 13 14 16 16 14 14 16 18 19 18 20 21 21 20 18 19 20 17 13 14 16 15 14 13 14 14 14 13 11 10 10 11 13
24 23 18 20 21 18 16 14 13 13 15 16 17 15 13 13 14 17 18 19 20 20 20 20 18 17 17 16 14 12 14 14 13 14 14 13 11 10 10 11 5 4 4
23 21 19 20 22 19 14 12 12 15 17 17 15 13 13 13 14 16 16 18 19 19 18 18 17 17 17 16 15 15 15 12 11 12 13 12 12 12 12 12 11 8 4
21 20 20 19 18 17 15 14 15 15 20 14 12 13 13 13 13 14 15 17 17 17 17 17 17 17 18 18 18 18 18 14 11 12 13 13 12 12 13 11 8 9 9
19 20 20 18 16 18 16 17 18 15 16 14 13 13 13 12 12 12 13 15 17 16 15 14 15 16 17 17 17 17 18 18 13 11 12 13 11 11 11 11 10 9 7
19 19 19 19 18 20 18 19 18 17 15 15 14 14 12 12 11 12 13 14 14 14 14 14 13 14 15 15 16 17 16 16 14 11 11 11 10 10 9 9 10 10 10
20 20 19 21 20 20 18 16 17 17 17 17 16 14 14 12 12 11 12 13 14 14 14 13 13 13 13 13 14 15 16 16 15 14 13 12 11 9 9 9 10 10 10
21 19 18 20 22 20 18 18 19 19 20 18 18 16 14 15 14 12 13 13 13 14 14 13 12 12 12 12 13 13 13 14 14 14 13 12 12 11 10 10 11 11 11
27 26 24 25 24 22 20 20 21 21 20 19 18 15 16 16 14 14 13 13 13 13 13 13 13 12 12 12 12 12 13 13 14 14 14 13 12 11 10 10 11 11 10
24 21 24 28 25 21 22 19 17 16 17 19 18 19 16 18 16 16 16 15 14 14 13 13 13 13 12 12 12 12 12 12 12 12 12 12 12 11 11 10 10 10 10
25 23 24 23 20 19 20 18 17 17 17 18 18 19 20 19 17 16 17 16 16 15 14 13 12 13 13 12 12 12 12 12 12 12 11 12 11 11 11 11 10 10 9
24 23 22 21 20 19 20 21 19 19 19 19 21 22 22 22 21 20 18 17 17 16 15 14 12 12 12 12 13 13 12 11 11 11 11 11 11 11 10 9 10 9 9
23 24 22 21 20 20 22 24 25 25 25 24 24 22 24 24 24 23 22 20 20 19 17 15 13 12 12 12 13 13 12 11 11 11 10 10 11 11 10 9 9 9 8
23 23 21 20 20 20 22 25 28 28 28 29 29 27 23 24 24 23 21 18 19 19 17 16 14 13 13 12 12 12 11 11 10 10 10 10 11 10 10 9 9 9 9

GFSGL_850_spd_027.txt.gz
Wind_Speed
8 8 9 10 14 20 23 21 20 21 24 26 24 24 23 24 24 28 15 12 17 19 21 23 25 27 25 24 24 24 23 24 31 36 31 29 29 28 27 25 23 24 24
7 9 11 15 20 22 20 20 22 26 28 26 23 19 17 21 27 17 11 14 17 20 21 25 29 26 26 25 25 25 25 25 27 34 32 29 24 25 25 24 22 23 24
9 10 16 20 20 17 16 21 27 30 29 24 20 17 21 23 12 11 11 17 20 20 26 29 31 28 27 25 25 26 24 22 22 25 32 27 26 24 21 21 22 25 23
10 15 18 17 15 15 21 27 30 29 25 22 19 17 17 14 9 12 16 16 19 25 29 31 31 28 25 25 24 23 22 22 22 24 28 26 22 21 16 17 19 19 22
14 17 17 16 15 20 26 29 28 24 22 21 16 13 11 9 13 11 15 20 25 28 28 29 30 29 25 21 19 20 21 22 22 23 24 23 22 20 19 20 20 18 18
16 16 15 15 18 24 27 26 24 22 20 15 9 8 9 13 11 16 19 24 27 27 28 29 26 23 18 20 17 14 17 23 25 22 24 24 24 21 19 18 18 17 16
16 15 12 17 21 24 24 23 23 20 16 12 11 12 11 10 15 19 25 26 25 25 26 25 22 18 18 17 17 22 22 22 23 25 25 24 22 18 18 19 17 18 17
15 14 16 19 21 23 23 22 20 16 14 14 15 13 11 14 18 24 25 23 23 24 24 22 18 18 17 17 22 21 19 20 19 19 20 22 20 20 20 20 22 18 19
15 16 18 20 21 23 23 22 18 14 14 14 13 12 14 17 23 23 22 22 22 23 22 18 17 18 17 18 19 20 20 19 17 21 20 18 18 21 21 19 19 17 16
17 17 19 20 22 23 22 20 15 13 14 15 14 14 16 20 21 20 20 21 21 21 20 19 20 18 16 18 18 18 18 19 21 19 16 14 15 15 14 15 16 19 19
18 19 21 22 22 21 21 18 14 13 13 13 14 15 18 20 20 18 18 19 18 19 19 21 19 19 18 19 17 13 17 21 19 17 15 14 13 13 13 12 13 15 19
19 22 23 24 21 19 20 18 15 15 15 15 15 17 18 19 18 17 18 18 18 18 19 21 20 19 20 19 17 16 17 18 16 14 13 13 14 13 13 13 13 14 16
21 23 24 23 19 17 19 18 16 16 15 16 16 19 18 17 17 17 17 17 17 17 19 19 19 18 19 18 17 16 16 16 14 13 14 14 14 13 12 14 10 9 10
23 24 23 22 20 18 19 18 16 14 14 16 19 19 18 16 16 16 17 17 17 17 18 18 18 17 16 16 16 15 16 14 13 13 14 13 13 14 13 15 14 7 4
25 22 20 21 19 21 20 17 15 14 14 16 19 19 16 16 15 15 16 16 17 18 17 16 16 16 16 16 16 16 16 14 11 12 13 14 13 13 14 13 12 12 10
21 20 19 18 19 18 17 16 18 16 16 17 17 14 14 15 15 15 15 15 15 17 16 16 15 15 16 16 16 17 17 18 14 12 13 14 14 14 14 13 12 10 9
17 18 18 17 18 18 18 19 20 18 20 18 17 15 16 15 15 15 15 14 15 16 15 15 15 15 15 15 15 16 16 17 17 15 14 14 13 12 12 12 12 11 10
17 17 17 19 19 20 20 20 22 22 22 20 18 17 17 16 16 15 15 15 15 16 15 14 14 13 14 14 15 15 15 15 15 15 14 14 13 12 12 12 12 13 12
18 18 19 20 19 19 21 22 21 21 21 22 20 18 17 16 17 17 17 17 16 16 15 14 13 13 13 13 14 14 15 14 15 15 15 14 14 13 11 11 10 10 11
20 20 22 23 22 23 23 23 24 21 22 22 22 20 18 16 18 18 18 19 17 16 15 14 13 13 12 13 13 13 13 14 14 14 14 14 13 13 12 11 11 11 10
22 22 23 20 19 23 27 26 24 22 23 22 21 20 18 19 18 18 19 20 19 17 16 15 13 13 12 12 12 12 12 12 13 13 13 13 13 12 12 11 11 11 10
25 27 26 24 21 23 24 22 21 23 22 21 19 18 19 21 23 20 20 20 19 19 17 16 14 13 12 12 12 12 12 11 12 12 12 12 12 12 11 10 10 10 9
26 25 26 24 22 21 23 22 21 23 22 21 20 19 19 22 23 23 22 19 19 20 19 18 16 14 13 12 11 11 11 11 11 11 11 11 11 11 11 10 10 9 9
24 24 24 23 22 21 22 22 21 24 24 24 24 24 23 22 24 25 24 23 22 21 21 20 18 15 14 13 12 11 11 10 10 10 10 10 10 10 10 9 9 8 8
24 24 23 21 22 22 22 20 21 22 25 26 26 27 29 29 27 25 26 26 25 23 23 22 20 17 15 14 13 12 11 11 10 10 10 9 9 10 9 8 8 8 8
26 20 19 22 21 23 22 22 22 21 21 22 24 25 28 30 32 32 28 25 25 24 22 22 21 19 17 15 13 12 11 11 10 9 9 9 9 9 9 8 8 7 7

GFSGL_850_spd_030.txt.gz
Wind_Speed
4 7 5 5 9 9 8 10 11 15 18 20 21 20 19 19 18 19 20 17 14 15 16 18 19 22 25 26 26 28 29 30 36 41 34 31 29 29 29 27 26 26 27
7 4 4 9 9 9 10 11 13 17 19 20 19 18 16 16 17 18 17 11 13 15 17 18 21 25 26 26 27 28 30 30 31 36 33 30 28 27 27 27 27 25 25
6 5 6 8 10 10 11 13 16 19 19 17 17 16 16 16 15 12 8 10 12 13 16 20 23 23 24 24 25 27 27 26 26 28 33 28 28 26 25 23 23 21 22
6 6 9 10 11 11 12 15 18 18 17 16 16 15 12 10 8 7 9 8 13 16 19 20 19 19 21 22 22 22 22 23 24 26 28 27 24 23 22 23 23 21 19
9 9 11 11 11 11 13 16 17 16 15 15 14 12 10 8 7 7 8 13 16 18 17 17 18 21 27 20 18 19 20 20 21 24 27 26 24 23 22 23 22 22 22
11 10 11 11 10 12 15 17 15 15 14 14 11 9 8 7 13 11 15 16 17 16 17 17 17 19 16 22 19 20 18 22 25 25 26 26 27 25 24 21 20 20 21
12 12 11 11 12 13 15 14 14 14 14 13 11 11 10 9 12 15 19 21 15 14 15 17 17 16 20 19 19 20 22 22 23 24 26 23 23 23 21 21 20 21 21
13 10 10 12 12 14 14 14 14 14 13 13 12 11 10 11 14 18 22 18 14 14 15 15 16 17 17 21 19 20 20 19 19 20 21 24 23 23 22 21 23 23 22
10 11 11 12 14 14 14 14 15 13 13 13 13 12 11 10 17 21 21 17 13 15 14 14 16 16 18 17 19 20 20 18 18 21 22 22 19 17 18 18 19 19 20
12 12 13 14 15 16 16 14 14 11 12 12 12 12 13 14 20 20 18 15 14 14 14 15 17 21 22 18 18 18 19 18 20 21 18 16 15 16 18 17 15 16 17
14 16 14 15 16 16 15 15 14 12 13 12 16 15 15 17 16 20 18 16 13 14 14 14 14 21 21 19 18 14 18 20 18 18 16 14 14 14 14 15 16 17 16
15 15 15 16 17 15 13 15 15 13 12 12 15 16 13 15 17 18 16 16 16 16 14 14 18 20 19 18 15 17 17 16 14 14 14 14 14 15 15 16 17 17 17
16 17 17 15 14 13 14 16 17 14 13 13 13 13 13 14 13 17 15 14 16 15 15 16 17 17 17 15 16 15 15 13 12 12 13 14 15 16 16 18 14 10 10
18 17 14 13 15 15 15 17 15 13 13 13 13 14 14 14 13 11 11 11 13 12 14 17 16 15 15 16 13 12 12 15 12 12 13 14 14 14 15 16 16 14 9
17 16 14 13 14 15 16 16 14 14 14 14 13 13 15 16 13 15 14 12 11 13 17 14 11 12 11 10 10 11 10 13 12 11 12 14 14 14 14 15 14 13 12
17 15 13 15 14 15 16 15 16 17 19 19 19 18 18 16 16 17 16 15 15 15 15 11 12 11 11 10 10 10 10 12 14 14 12 12 13 13 14 13 13 13 13
17 18 15 17 17 17 16 16 16 16 20 20 20 21 20 18 17 17 16 16 16 15 12 11 12 11 11 10 10 10 10 13 14 14 13 12 12 12 13 12 12 12 12
19 21 19 16 19 21 22 21 19 21 19 19 21 19 19 19 18 17 16 16 14 15 14 11 12 11 11 10 10 10 11 12 12 14 13 13 12 12 11 11 11 12 12
22 19 19 21 21 21 22 24 23 22 23 21 15 18 19 18 18 18 17 20 17 15 14 13 12 11 11 10 10 12 12 11 12 13 12 12 12 11 11 10 10 11 11
20 19 20 19 19 22 21 22 23 24 22 21 18 17 15 19 20 17 18 20 20 18 16 14 13 12 11 11 11 11 10 10 10 11 12 12 11 10 11 10 10 10 9
20 19 21 23 20 20 18 21 22 21 22 22 21 21 18 18 20 18 19 21 22 19 18 16 14 13 12 12 11 10 9 10 10 11 11 11 12 10 10 9 9 9 9
25 26 26 27 26 24 22 21 22 24 21 22 20 18 19 19 20 21 22 23 23 21 19 19 17 14 13 12 11 11 10 11 10 10 10 11 10 8 9 9 9 9 9
29 26 26 26 25 25 23 21 22 22 21 22 23 20 19 21 21 20 21 21 23 23 21 21 22 21 19 17 15 13 12 11 11 11 10 9 9 8 8 7 8 8 8
25 26 27 27 26 24 23 23 23 22 21 21 22 25 26 26 26 27 26 23 23 25 26 25 24 23 22 20 18 15 13 12 12 11 9 9 8 8 8 7 6 8 8
25 24 23 24 23 22 23 24 23 23 21 19 20 22 26 28 30 31 31 31 31 28 28 28 28 25 24 23 20 17 15 12 12 11 10 9 8 8 8 7 7 6 7
22 20 22 21 21 21 21 21 22 21 21 22 22 22 22 23 23 24 25 26 30 32 31 29 28 25 24 23 21 19 16 13 12 11 10 10 9 8 7 7 7 5 6

GFSGL_850_spd_033.txt.gz
Wind_Speed
12 8 5 5 8 7 7 7 8 10 12 15 16 17 17 18 17 17 19 20 19 15 14 15 15 16 18 22 25 28 29 30 34 38 37 34 30 29 30 28 30 30 31
11 9 7 9 8 9 9 9 10 12 14 16 16 16 17 17 18 19 18 14 12 13 14 14 16 19 22 24 25 25 28 29 32 36 36 32 29 28 30 30 30 26 28
9 6 8 10 10 10 11 11 12 14 16 16 15 16 17 17 16 12 11 10 12 10 13 15 19 21 22 21 22 24 25 25 26 28 32 30 30 28 28 26 26 26 24
10 9 11 12 11 12 12 12 13 15 16 15 15 16 16 14 13 10 8 9 9 13 16 18 19 19 19 19 23 20 21 23 23 24 26 28 28 26 27 27 28 23 24
9 11 12 12 11 12 13 13 14 15 15 15 16 15 14 12 10 9 9 11 13 16 18 17 16 19 27 25 21 21 20 20 21 24 27 29 28 28 27 28 28 27 24
10 13 11 11 11 12 13 14 15 15 15 15 15 14 13 12 17 14 12 15 15 16 16 16 16 17 17 21 20 22 24 21 24 25 26 28 28 26 27 24 26 25 25
12 11 11 11 11 12 13 15 15 15 16 16 16 15 14 13 18 16 15 17 16 13 14 15 16 15 18 18 17 22 21 21 23 25 25 25 26 26 27 26 25 24 24
9 10 10 11 11 12 14 16 16 15 17 16 15 14 13 14 19 18 17 20 12 13 14 15 15 15 16 24 26 19 19 19 19 20 22 25 26 26 23 22 25 26 26
9 10 11 11 13 14 15 17 17 17 17 16 15 14 13 14 18 21 19 18 12 13 13 14 15 16 17 23 23 20 20 18 17 21 24 24 21 20 18 21 24 22 23
10 11 11 13 14 15 16 17 17 16 17 16 15 13 13 12 19 22 18 17 14 13 13 12 16 22 24 23 22 20 19 18 21 22 19 18 17 18 18 18 21 24 21
9 12 12 12 15 16 17 17 16 16 17 16 21 16 14 15 15 20 21 18 14 13 13 12 10 21 21 20 19 17 17 24 20 17 18 16 16 15 15 16 17 20 24
13 11 13 14 15 16 16 16 15 17 17 16 19 21 18 17 18 23 20 17 16 17 13 12 14 19 19 17 17 16 18 16 16 17 15 15 16 17 19 18 21 19 19
11 14 14 15 15 15 15 17 18 17 17 16 16 18 15 12 15 18 19 18 17 15 13 13 16 17 16 15 14 17 16 14 14 15 15 16 16 18 18 18 19 18 20
13 13 14 14 15 15 16 17 17 18 17 17 17 15 15 13 15 16 19 18 18 16 11 14 20 14 15 16 15 12 12 13 14 13 15 16 17 16 16 17 19 19 18
13 14 14 15 14 16 17 17 17 17 18 20 17 18 18 19 16 18 19 17 16 15 18 19 11 11 11 11 12 12 12 12 12 13 13 14 15 16 15 15 16 17 16
16 15 16 17 16 17 18 17 18 20 19 22 24 24 26 26 23 20 20 21 20 19 17 12 11 12 12 11 11 12 11 12 12 12 13 13 14 15 15 15 15 15 15
17 17 17 15 16 18 18 19 21 22 22 22 22 22 22 24 24 21 20 19 19 19 17 11 13 13 12 11 11 11 11 11 14 12 12 13 14 13 13 14 14 14 14
19 19 18 16 18 20 19 20 23 26 27 27 24 23 22 21 20 21 19 18 19 18 16 14 13 13 13 11 11 11 12 11 10 11 11 12 12 13 12 12 12 14 14
20 18 20 23 24 21 23 23 25 26 26 26 25 26 22 20 19 18 19 21 19 19 18 16 15 15 15 12 13 15 13 11 11 11 10 11 11 11 12 12 11 12 13
22 25 26 26 25 23 25 28 27 27 26 25 26 25 22 19 20 21 19 20 22 23 24 20 17 16 16 17 15 15 12 11 10 10 10 9 10 10 10 12 12 11 11
28 30 28 32 28 28 29 30 28 26 27 27 25 24 25 23 24 22 22 21 21 21 23 22 22 20 20 19 16 14 13 11 11 10 9 8 10 8 9 10 10 11 11
30 31 29 29 31 29 30 29 27 28 27 26 26 24 24 24 24 23 22 23 23 22 24 24 22 24 22 19 16 16 14 12 12 10 9 10 8 7 8 8 9 10 10
28 32 28 27 27 28 29 31 31 27 25 24 24 23 23 25 25 24 22 20 21 21 22 25 26 25 24 23 23 20 17 13 13 12 11 9 8 6 7 6 7 8 9
28 27 29 29 27 26 27 27 29 28 24 24 24 23 22 24 25 26 25 26 26 25 25 25 28 29 27 23 25 23 20 17 15 13 10 9 9 7 6 6 5 8 7
31 33 31 26 22 24 25 26 26 25 24 21 21 21 21 20 21 23 24 25 26 28 30 30 30 30 27 26 26 25 21 19 15 14 13 10 9 9 8 6 6 5 7
29 30 32 24 20 21 23 22 21 19 19 20 22 22 21 22 22 22 22 23 24 25 26 27 30 30 31 26 26 25 24 23 17 15 13 12 10 8 7 7 7 5 5

GFSGL_850_spd_036.txt.gz
Wind_Speed
21 19 18 13 13 10 6 10 13 13 13 12 14 16 16 15 17 21 23 19 17 15 12 11 14 15 15 18 20 20 23 23 29 33 33 32 32 34 36 33 32 34 32
19 19 16 17 7 8 9 12 14 13 12 13 15 15 14 17 19 19 21 15 14 12 15 15 14 16 17 19 22 25 27 30 32 32 31 31 29 33 29 29 28 29 30
21 20 15 8 11 13 10 12 14 14 14 15 16 15 15 18 19 17 15 16 14 12 12 14 15 17 22 22 23 26 29 27 24 28 33 34 30 28 30 28 31 29 28
21 13 12 15 12 12 14 14 15 15 17 17 15 14 17 18 19 17 12 10 9 11 13 16 18 20 20 23 27 31 25 24 27 28 29 29 29 29 26 30 27 29 28
16 20 13 9 15 15 13 15 16 17 20 17 15 15 19 21 14 13 13 16 16 17 17 18 16 18 23 24 23 25 25 27 29 27 27 29 29 29 28 28 32 29 29
21 13 13 13 10 13 13 15 16 17 16 16 18 17 19 16 19 19 21 18 17 18 15 16 17 16 17 20 19 21 24 27 27 24 29 32 32 29 27 31 31 32 32
13 10 13 12 13 12 12 13 16 18 18 19 18 19 21 20 21 20 19 17 17 17 14 15 18 14 19 21 25 27 27 20 20 23 27 25 23 25 33 32 29 26 28
13 8 9 12 12 12 14 15 15 18 19 19 20 20 20 19 22 21 19 18 18 16 13 17 16 16 23 26 25 28 26 22 16 16 23 27 28 31 20 23 25 27 27
5 9 10 11 12 19 14 17 17 19 20 20 21 17 19 19 21 20 19 18 21 18 17 14 15 18 23 25 27 27 24 21 13 18 26 23 17 17 18 25 25 29 30
6 7 11 14 20 16 19 18 19 19 20 18 18 18 17 19 21 19 19 22 21 19 14 14 17 17 22 24 26 24 23 20 23 22 17 18 15 16 17 18 20 23 25
5 5 15 14 14 17 19 20 21 21 18 19 23 25 23 22 26 22 21 22 22 21 18 17 11 20 23 24 21 19 18 21 18 19 21 18 18 18 19 17 16 19 26
14 15 14 17 15 17 21 23 20 16 19 20 21 24 24 21 21 23 21 20 19 18 19 18 16 18 19 17 16 15 15 16 17 22 17 19 19 19 19 19 18 19 22
10 17 20 15 16 18 19 18 19 21 22 24 23 24 23 19 17 18 20 20 20 20 19 16 15 15 15 14 14 15 16 18 18 23 19 21 17 20 20 19 18 17 16
17 17 15 17 18 19 18 17 19 20 21 21 23 23 23 20 19 18 21 21 21 19 20 15 17 20 11 13 13 14 16 17 17 19 22 20 16 18 20 18 18 19 18
13 17 17 17 18 19 20 16 20 23 25 28 25 23 23 21 22 22 22 21 20 17 21 23 23 14 13 14 12 12 15 16 17 18 21 19 19 19 17 14 18 18 17
18 17 18 18 19 20 17 21 22 23 26 24 23 23 24 26 27 27 26 23 22 25 27 26 23 14 14 17 14 10 14 15 18 20 15 16 18 20 17 14 16 18 18
19 20 21 21 21 18 19 23 27 26 21 24 26 24 24 24 23 24 24 24 22 22 25 24 20 13 16 17 13 11 15 17 20 14 17 13 16 15 17 17 14 16 18
29 29 27 25 23 21 25 27 25 26 27 29 25 25 25 24 22 22 22 22 24 23 23 22 18 16 16 16 13 12 17 19 18 14 16 10 14 14 13 16 17 14 14
28 29 29 29 29 29 30 32 29 29 29 29 28 25 23 25 24 21 20 23 23 25 23 22 19 16 15 18 18 17 20 19 14 12 12 13 13 12 11 13 15 17 12
27 29 31 32 33 33 28 32 31 30 31 30 28 29 26 25 26 23 23 22 22 23 22 24 25 23 20 20 20 20 20 16 11 12 13 15 11 13 8 11 12 15 16
30 32 33 34 31 30 33 29 30 29 30 31 29 28 26 24 24 27 23 23 23 22 21 21 23 23 23 25 26 25 21 18 15 15 14 12 11 11 7 8 9 12 11
33 33 34 33 33 33 31 29 28 31 31 31 32 26 22 24 24 24 27 25 27 26 24 23 24 24 22 23 26 26 22 18 16 16 13 11 11 9 7 8 6 10 11
31 33 35 36 31 27 28 30 29 26 27 29 29 27 21 24 24 26 26 25 22 22 24 24 24 24 25 26 25 25 24 22 20 17 15 13 11 10 8 8 7 6 11
37 38 36 35 33 33 30 29 23 24 25 26 23 23 20 20 20 20 23 23 23 23 23 23 24 26 27 27 27 27 26 26 23 21 17 14 12 10 9 8 7 7 7
35 38 35 31 32 31 33 21 18 18 20 19 17 17 16 17 19 19 19 18 18 19 21 22 23 23 23 27 29 28 26 23 23 22 17 13 11 10 9 9 9 6 5
30 29 25 22 25 25 13 12 18 16 17 17 20 21 19 19 16 16 18 17 17 18 18 19 20 20 21 21 23 29 26 24 23 20 18 15 12 10 9 9 7 6 5

GFSGL_850_spd_039.txt.gz
Wind_Speed
25 26 25 23 20 17 13 11 10 12 19 19 19 18 19 16 15 20 23 28 22 17 16 15 16 17 13 12 15 17 21 25 29 35 36 38 39 38 39 37 29 28 27
27 28 25 21 15 14 9 9 11 16 20 21 19 20 19 16 17 22 25 24 19 19 17 16 14 14 15 18 22 26 29 27 30 38 35 34 35 33 27 26 25 24 25
26 24 22 19 15 10 16 14 12 18 18 19 21 23 18 18 20 23 22 19 18 14 11 11 13 17 20 24 25 25 27 30 28 25 31 33 28 24 25 25 26 25 25
23 22 19 14 12 15 9 10 18 16 17 22 25 24 18 20 22 23 24 19 18 16 16 16 19 19 19 21 25 28 26 29 26 29 32 27 25 24 25 28 30 29 35
24 23 16 15 14 13 18 14 15 26 22 23 24 20 20 23 25 26 22 17 18 19 20 20 19 20 22 25 23 25 28 27 30 32 30 27 28 29 27 26 30 39 36
24 21 19 16 13 6 9 14 16 16 22 22 23 23 25 24 25 26 23 20 20 21 20 20 17 20 20 21 24 24 24 28 31 27 26 26 29 23 26 33 35 30 34
23 18 11 8 11 14 14 13 15 19 22 23 25 25 23 24 25 27 24 22 20 20 19 19 17 19 21 22 24 25 23 25 23 21 21 22 27 27 31 32 23 27 30
15 13 9 7 4 4 7 10 17 19 22 24 22 24 28 26 24 25 24 22 21 21 20 20 19 21 21 23 25 24 25 24 21 16 17 25 29 27 19 19 24 27 25
12 8 5 7 3 6 14 14 22 24 22 26 27 27 27 24 22 23 23 24 20 20 21 18 18 19 21 23 23 24 25 21 18 16 16 14 13 12 13 17 19 24 30
11 7 4 3 7 9 15 19 17 23 26 27 29 25 23 25 25 25 28 24 23 21 21 21 19 19 21 21 22 24 23 19 18 15 17 14 11 13 14 16 18 21 23
4 1 12 9 7 13 16 19 20 24 28 27 21 22 25 27 27 26 25 24 23 22 20 17 18 20 20 20 22 21 17 16 16 16 20 18 16 15 15 14 15 16 21
15 20 11 9 16 17 18 20 22 23 23 22 24 25 24 26 28 24 23 22 21 21 19 19 17 19 19 17 17 13 12 13 17 18 21 20 23 17 16 16 17 16 15
5 7 14 19 18 17 19 20 23 22 23 22 24 26 28 27 26 24 22 21 21 21 21 19 19 17 13 17 12 12 12 15 18 18 21 21 22 17 18 17 14 13 13
10 16 16 17 19 19 20 19 20 21 22 24 25 28 29 27 25 26 24 22 21 21 20 20 20 17 18 17 14 14 13 15 17 18 21 23 19 18 18 13 15 16 19
16 17 19 20 20 21 21 22 19 18 23 26 27 28 28 27 25 23 23 24 23 23 21 22 23 23 24 20 15 16 15 14 17 19 21 23 18 18 16 13 14 15 17
23 23 20 22 24 25 25 27 22 22 24 23 23 25 27 27 25 24 24 25 25 24 24 24 25 28 26 21 16 17 15 13 18 19 22 18 18 16 15 14 16 15 16
22 26 29 31 32 29 27 26 29 30 29 26 22 22 21 23 22 25 25 26 24 24 27 27 26 26 26 20 16 18 17 15 19 20 22 17 15 13 13 14 16 16 14
26 26 29 31 32 33 33 34 36 35 36 29 25 23 23 20 21 20 22 26 26 26 29 28 27 23 18 19 17 18 16 18 20 22 20 13 11 14 13 11 13 15 16
22 25 27 29 32 33 35 35 35 36 36 28 30 27 25 22 21 21 21 25 29 28 27 26 25 21 17 16 17 18 19 19 20 21 14 12 12 15 12 9 10 12 15
32 33 31 33 35 36 35 33 29 30 32 28 28 30 27 25 25 24 24 23 30 29 26 23 22 20 20 19 19 20 23 21 21 22 16 14 14 13 11 9 8 11 14
30 30 30 32 32 35 34 33 34 35 28 25 29 29 27 28 27 24 24 24 25 28 23 23 22 21 19 19 22 25 24 23 23 23 17 14 15 11 11 9 6 9 12
29 32 36 37 38 37 35 34 33 24 23 25 25 25 26 24 26 23 22 24 23 27 24 23 24 23 21 20 21 22 26 26 25 23 17 15 14 10 10 9 7 9 10
32 30 29 32 36 33 31 30 29 24 25 22 20 22 23 24 21 19 21 22 21 28 26 21 22 23 23 21 20 23 25 24 22 20 18 16 13 11 12 9 9 9 9
23 24 30 28 30 27 30 32 30 26 24 13 14 16 17 16 16 17 17 18 18 18 23 20 21 21 20 21 22 23 23 22 22 21 20 19 15 13 13 11 8 8 9
25 25 23 27 28 31 29 23 17 13 8 9 14 15 16 18 20 20 15 12 15 15 15 15 16 17 18 18 19 19 20 22 23 22 19 19 16 14 13 11 10 8 8
24 24 25 26 26 23 20 19 17 15 15 15 12 11 12 12 13 16 19 22 20 10 13 13 14 14 16 17 17 16 16 19 25 22 21 18 17 15 12 12 11 9 7

GFSGL_850_spd_045.txt.gz
Wind_Speed
27 26 30 29 31 30 28 30 31 31 32 28 25 17 14 9 12 16 19 18 19 20 22 24 20 17 17 17 17 18 20 22 26 32 31 32 32 31 31 28 27 26 25
28 30 27 28 27 27 30 30 30 29 23 20 15 12 10 11 14 18 18 18 19 20 22 23 19 18 18 19 20 21 23 22 24 30 32 31 30 30 31 28 26 24 23
29 28 29 30 29 29 28 25 22 20 15 10 11 8 9 14 18 18 20 19 21 23 23 21 19 19 20 21 23 23 22 23 25 27 32 33 32 31 30 28 25 23 23
28 29 28 28 28 24 23 22 20 15 12 10 6 9 10 18 22 21 20 21 22 23 25 23 21 20 20 22 22 21 22 22 23 26 29 31 32 30 29 27 30 30 31
30 29 29 28 24 22 21 14 11 10 9 9 6 12 18 24 20 20 20 22 22 24 23 24 22 22 24 23 22 21 21 22 23 25 28 31 31 29 27 28 30 30 26
27 28 26 24 21 19 18 18 17 14 7 15 23 23 21 19 20 21 22 24 23 23 23 24 24 23 24 22 23 22 21 22 23 25 27 29 28 26 27 26 24 25 28
25 23 24 23 22 20 18 11 3 13 22 21 15 19 20 21 21 20 22 23 24 22 24 26 25 24 28 21 22 22 23 22 24 25 28 25 25 23 24 27 23 23 26
22 25 25 26 23 14 2 14 19 15 12 12 16 22 22 20 22 22 23 24 22 21 25 29 23 25 24 19 22 23 22 22 23 24 24 21 20 21 21 22 24 27 30
24 23 18 12 3 7 20 21 10 10 14 17 19 20 22 25 25 26 21 21 21 23 24 25 23 23 22 20 22 22 23 22 22 21 19 18 17 17 17 23 24 25 31
18 12 4 4 16 25 11 7 12 16 18 20 22 22 24 26 25 25 22 23 23 26 25 26 25 23 21 20 21 22 24 21 20 17 15 15 15 16 17 18 19 23 26
3 10 18 17 9 7 9 14 18 20 21 23 24 25 27 27 28 26 23 23 25 28 26 25 25 23 21 21 21 22 21 19 17 17 16 15 14 16 18 18 18 20 22
9 9 6 6 10 14 16 17 18 21 24 26 28 30 29 29 28 26 23 25 27 28 28 26 24 23 23 23 22 21 18 18 18 17 17 15 15 17 20 20 20 18 17
4 6 9 11 14 16 19 20 21 23 27 30 31 33 34 31 27 27 26 26 26 28 27 27 27 26 26 25 22 19 17 18 18 19 18 15 15 18 21 22 20 18 18
7 9 11 13 15 17 19 22 26 29 31 32 35 36 35 34 31 28 28 27 25 26 28 28 27 33 29 26 24 21 20 19 20 20 18 16 16 18 22 22 21 20 21
10 13 17 20 23 27 28 30 32 35 32 33 35 34 35 37 35 34 31 27 26 26 26 28 27 23 25 28 28 24 22 22 22 20 18 16 16 18 22 19 18 18 18
16 19 23 26 29 31 34 40 38 39 40 39 37 34 36 38 36 38 42 24 26 24 24 28 30 27 28 27 30 26 23 23 21 19 17 16 15 18 21 17 16 15 17
21 24 26 29 31 33 34 36 41 45 41 40 35 33 32 33 32 29 26 26 24 23 25 28 28 27 32 28 26 25 24 23 22 20 18 14 15 17 17 16 15 15 15
23 26 28 30 32 33 34 35 36 37 40 43 38 33 32 30 28 26 25 29 23 25 28 29 31 28 26 29 27 23 22 21 19 20 16 13 13 15 14 15 14 14 14
26 28 30 31 31 31 32 33 34 35 36 37 37 32 30 29 26 25 22 24 25 30 30 28 27 30 25 26 29 21 21 20 19 21 18 14 13 14 14 14 13 12 12
26 28 29 29 29 29 29 31 29 30 34 33 34 34 35 30 36 23 23 24 25 27 28 26 24 24 25 24 22 19 19 20 20 21 20 16 14 14 13 14 12 11 11
26 26 26 26 26 26 27 27 26 26 29 32 27 25 28 29 26 22 23 24 24 23 22 23 19 22 23 22 18 20 19 20 22 21 19 19 17 15 13 13 11 10 10
24 24 24 25 25 26 26 25 25 26 28 29 30 28 22 13 10 9 12 13 13 16 21 15 18 20 20 19 19 21 21 20 20 23 22 18 18 15 14 13 11 10 9
23 23 24 24 24 24 24 24 25 26 28 28 28 28 27 25 21 19 15 14 14 12 12 14 16 17 17 14 16 19 21 19 17 18 18 18 18 17 15 13 11 10 8
22 23 23 23 24 24 24 25 25 26 26 27 26 25 24 23 24 22 21 18 15 16 18 17 16 17 15 14 12 16 17 18 18 17 18 19 18 17 17 15 13 10 9
21 21 22 23 24 24 24 24 25 25 26 26 26 25 24 23 23 23 21 20 17 15 15 15 17 16 16 14 12 12 13 14 15 16 19 19 20 19 18 15 14 11 10
21 21 22 22 23 23 24 25 25 25 26 26 25 25 25 25 25 24 23 21 19 16 15 14 14 14 16 16 11 12 14 16 17 16 15 17 20 20 19 17 15 13 11

GFSGL_850_spd_048.txt.gz
Wind_Speed
31 34 33 31 28 25 24 26 27 28 32 30 25 18 16 11 8 8 10 15 17 15 16 17 18 16 15 14 15 16 18 19 25 28 27 26 27 26 27 27 27 27 26
28 25 25 25 25 25 28 26 27 27 26 26 17 14 10 10 8 8 19 13 15 15 16 16 18 19 18 16 17 19 20 23 24 27 28 28 27 27 28 28 26 24 23
22 24 24 26 26 23 22 22 20 22 19 13 11 14 16 5 13 19 14 18 15 16 16 19 20 20 19 19 20 21 22 22 22 26 28 29 29 28 29 28 26 26 26
21 24 27 25 21 20 20 20 19 18 14 19 16 8 13 20 17 16 19 16 17 20 19 21 22 22 21 22 22 22 22 22 22 24 26 28 28 28 28 29 29 27 27
24 23 21 21 21 20 19 18 19 20 17 12 16 15 23 21 16 15 16 20 21 22 23 22 24 23 22 23 25 22 22 22 22 23 25 27 28 28 28 27 27 29 28
17 16 18 20 19 20 19 19 18 15 14 15 21 26 23 15 14 17 21 23 22 24 24 24 25 24 25 24 23 25 23 22 22 23 24 27 27 27 25 25 25 26 23
15 16 17 18 19 16 14 14 11 7 11 23 23 17 14 16 19 22 23 25 25 25 25 24 25 27 26 25 23 28 22 23 23 22 25 25 27 23 23 24 24 25 25
14 14 16 17 17 16 9 3 14 20 26 15 11 13 19 21 21 23 25 27 28 28 26 24 25 24 25 25 24 24 23 23 22 23 25 25 23 20 20 22 24 28 28
12 16 17 15 10 4 7 17 24 15 10 13 16 19 22 25 25 25 25 25 27 26 25 24 25 26 25 25 24 23 23 23 21 23 24 23 19 18 17 21 23 25 29
16 14 10 4 5 15 18 7 9 13 16 19 21 23 25 27 26 26 27 28 30 29 27 25 24 27 26 26 25 23 24 22 20 21 21 19 17 17 17 18 21 23 24
6 3 9 11 10 7 9 12 15 17 20 22 25 26 27 27 28 28 29 29 29 28 27 27 28 26 28 29 27 25 24 19 20 21 19 18 16 16 16 17 18 20 22
4 5 4 4 7 9 12 14 17 20 23 25 28 32 32 32 31 31 30 28 28 27 29 29 29 27 27 29 27 27 23 21 21 20 19 18 17 15 16 16 18 18 19
2 2 4 7 10 13 16 19 22 24 28 32 35 38 41 40 38 31 28 29 29 29 31 30 28 27 26 30 29 28 26 23 21 21 21 19 16 15 16 17 18 18 18
4 7 9 13 16 18 21 24 27 29 31 34 36 39 41 43 43 38 33 31 30 31 32 28 27 25 28 29 30 31 30 24 22 23 21 19 17 16 16 17 20 18 19
8 11 15 19 22 25 27 29 30 30 30 32 33 35 34 38 39 37 35 34 33 34 34 25 25 28 28 28 27 25 28 27 25 24 21 21 19 17 16 17 18 16 18
13 17 20 24 26 27 30 33 32 33 33 33 32 30 33 31 33 34 31 31 29 28 28 24 26 27 27 28 28 25 24 26 27 24 23 21 20 17 15 16 16 15 16
18 20 22 24 27 29 31 33 38 38 35 34 35 35 30 30 28 29 29 31 27 23 25 29 24 27 29 26 25 27 28 23 22 22 24 22 20 17 15 14 13 13 13
19 21 22 24 26 27 28 30 32 34 38 42 37 36 34 31 29 27 24 27 25 25 23 23 24 28 28 27 27 26 24 23 21 22 23 22 19 17 14 12 11 12 12
20 22 23 23 24 25 26 27 28 29 29 33 36 35 36 37 34 31 28 22 25 19 23 26 27 27 29 26 24 23 23 22 21 21 20 21 19 17 13 11 10 11 11
20 21 22 23 23 24 25 26 27 27 28 30 32 33 36 35 35 27 17 15 14 16 21 24 25 26 26 22 21 22 23 20 21 22 20 22 21 18 14 11 10 9 10
20 20 21 21 22 24 24 25 26 26 28 29 30 30 30 30 29 28 29 25 22 15 14 17 18 23 22 15 20 22 20 19 20 20 20 21 21 20 14 12 11 9 9
20 20 21 22 22 22 23 24 24 25 27 29 30 30 29 28 28 27 26 27 26 24 19 14 10 9 12 14 16 17 16 20 21 19 21 21 21 20 18 15 12 10 9
19 19 20 20 21 22 22 22 24 25 27 27 29 29 29 28 28 28 27 26 25 24 22 18 15 15 15 16 16 14 16 17 21 20 18 21 22 21 20 17 14 12 9
19 20 20 21 21 22 22 23 24 25 26 27 28 28 28 28 28 28 27 27 25 22 20 19 16 16 18 19 17 16 14 12 16 18 17 19 20 20 20 19 16 12 10
19 19 20 21 22 23 23 23 24 25 26 27 27 28 28 28 28 28 27 26 25 24 21 18 17 16 16 15 16 16 13 9 14 17 19 19 21 21 20 19 17 14 12
19 19 20 21 21 23 24 25 25 26 27 27 27 28 28 28 28 28 28 27 26 24 22 19 16 15 16 15 14 15 13 8 9 11 14 17 22 22 22 21 19 16 13

GFSGL_850_spd_051.txt.gz
Wind_Speed
28 26 26 28 31 33 30 27 27 26 30 33 31 28 23 16 14 8 9 18 16 14 14 14 15 15 16 15 15 15 15 16 20 21 20 18 25 26 23 26 28 27 27
23 24 24 23 20 23 25 20 24 24 26 27 28 22 20 18 19 18 21 14 12 14 13 15 16 16 17 16 18 19 19 17 19 24 20 19 21 22 26 27 26 25 25
18 20 20 21 21 21 20 17 15 16 20 25 22 20 17 17 17 18 17 13 15 15 15 17 17 18 21 21 20 22 22 22 24 22 23 20 21 21 21 22 23 23 23
18 19 20 19 17 13 12 11 14 16 17 19 22 21 19 17 18 20 19 17 18 18 19 21 20 21 23 23 23 22 25 26 21 22 22 21 19 18 20 19 19 19 21
14 14 11 10 9 9 10 12 13 16 19 19 17 15 16 18 23 20 17 19 18 21 24 24 24 25 25 25 26 25 26 25 21 21 21 20 19 18 18 19 19 19 21
6 7 6 6 8 10 11 13 15 18 19 15 12 15 20 26 19 13 15 19 24 27 27 28 27 27 28 27 30 30 27 22 26 22 21 22 20 19 18 17 18 18 19
3 4 6 7 9 10 11 12 12 7 7 10 16 20 23 15 14 17 21 26 27 28 31 30 31 30 28 28 29 27 28 26 27 24 24 22 21 19 18 17 16 17 19
8 9 10 11 12 12 10 8 3 6 13 19 13 10 14 17 19 21 23 27 30 32 31 30 30 30 29 27 30 26 28 27 25 24 25 25 23 24 21 18 16 18 20
12 14 15 14 11 10 6 7 13 13 8 10 13 16 19 22 23 24 26 30 32 32 32 31 30 30 28 25 28 31 27 30 24 23 25 25 25 23 19 16 16 17 21
14 12 10 6 5 9 11 8 7 9 13 15 17 19 22 25 25 26 27 30 34 35 34 33 30 29 29 28 27 30 32 31 24 23 23 24 22 21 19 18 15 17 18
9 5 3 6 6 5 5 8 11 14 17 20 23 24 26 28 31 31 31 31 33 35 34 34 32 28 27 27 28 31 32 31 24 23 23 21 20 19 17 16 15 15 17
2 1 0 1 2 5 8 11 14 18 21 25 28 31 32 33 33 32 30 30 29 31 34 34 33 30 28 28 31 31 29 30 27 26 24 23 21 19 16 15 16 18 19
3 2 0 3 6 9 13 16 18 21 23 26 28 31 32 31 31 32 33 29 26 30 33 32 36 32 31 29 29 28 25 24 30 29 27 23 20 18 17 18 18 19 20
2 1 4 7 10 13 16 18 19 21 23 25 26 28 32 32 29 27 30 31 31 29 28 33 33 29 33 28 26 27 27 27 29 35 30 22 20 19 18 18 19 18 17
2 5 8 12 14 17 18 19 20 20 22 23 22 23 29 32 30 32 31 32 33 30 31 33 30 30 30 26 24 26 24 25 27 29 30 26 22 20 19 18 19 17 15
6 9 12 15 17 18 19 20 21 22 22 22 21 22 23 26 30 34 32 30 31 28 28 27 30 28 28 26 22 22 21 22 26 28 31 29 24 21 19 19 19 17 14
10 12 14 16 17 18 20 22 24 23 22 22 23 24 25 27 28 30 31 29 28 22 24 22 22 19 21 20 19 22 22 22 21 22 29 29 25 22 20 20 18 16 13
11 13 14 15 16 18 20 21 23 24 26 26 25 26 27 28 29 28 29 26 21 14 12 19 19 17 19 20 24 25 21 20 23 24 23 25 24 23 22 22 18 15 12
12 13 14 15 16 18 19 20 22 23 25 27 28 28 29 29 29 28 28 26 26 26 24 18 15 16 20 21 24 25 24 21 21 19 21 24 23 22 23 21 18 15 12
12 13 15 15 16 17 19 20 22 23 24 26 27 29 31 32 32 31 28 28 26 25 25 25 22 17 16 17 19 22 26 19 20 20 21 24 21 21 23 20 18 14 11
13 14 14 15 16 17 19 20 21 22 23 25 25 25 27 28 29 28 28 27 27 26 25 24 24 21 14 9 9 12 13 15 18 20 22 23 20 22 23 21 18 14 12
13 13 14 15 16 17 18 19 20 21 22 24 25 25 25 25 26 27 27 27 26 25 24 23 23 21 21 15 12 12 12 13 14 16 21 21 19 21 23 22 19 16 13
13 13 14 15 15 16 17 18 19 21 22 23 24 26 26 26 26 27 27 27 26 25 23 22 21 20 19 18 15 13 13 13 15 14 18 23 20 22 24 24 22 18 15
13 14 14 15 15 16 17 18 19 20 21 23 24 25 26 26 27 27 27 27 26 25 24 22 20 19 18 18 15 14 16 16 15 14 13 21 21 22 24 23 22 20 16
13 14 14 15 16 17 17 18 19 20 21 23 24 25 26 27 27 27 27 27 27 26 24 22 21 19 17 16 16 16 16 17 16 14 13 17 22 21 23 23 22 21 18
14 14 15 15 16 17 18 19 19 20 22 23 24 25 26 27 28 28 28 28 27 26 24 23 21 19 17 15 15 15 15 14 14 13 12 16 21 23 23 24 23 22 19

GFSGL_850_spd_054.txt.gz
Wind_Speed
16 16 17 16 15 18 21 21 18 20 20 22 19 30 32 32 27 18 19 18 18 15 15 14 15 15 15 14 16 17 18 19 23 24 21 21 21 22 21 22 22 24 24
12 12 13 16 16 17 16 18 18 17 18 20 27 29 28 25 23 24 16 16 16 15 16 17 17 16 17 18 19 20 21 21 23 26 24 24 23 23 24 23 22 21 23
9 11 14 15 17 17 16 14 13 14 15 16 19 24 24 24 20 13 15 17 16 18 19 18 18 19 20 21 22 23 23 23 24 25 27 24 24 23 23 23 22 22 21
12 13 13 14 13 10 9 9 10 11 13 16 18 20 23 19 13 17 16 17 19 19 20 20 21 22 23 24 25 25 25 25 25 26 27 25 24 22 21 23 22 20 21
10 10 7 5 4 5 6 8 10 11 11 14 18 17 10 14 16 19 20 25 19 21 20 21 23 26 28 30 29 28 26 27 26 26 26 24 24 22 22 21 23 21 20
5 6 5 5 5 6 8 7 9 10 12 10 10 10 14 18 21 21 20 18 20 20 23 25 26 27 31 32 34 35 34 32 29 28 25 25 24 23 21 21 21 20 22
7 9 8 8 8 9 8 8 8 7 8 10 11 15 18 19 18 15 17 23 23 23 25 26 28 28 30 31 32 34 35 36 37 31 28 27 24 23 22 22 20 20 21
12 11 11 11 11 9 7 6 4 5 7 11 13 10 9 11 17 18 21 26 26 26 28 29 30 31 30 30 30 29 31 29 32 30 29 26 24 22 20 20 19 20 19
16 14 13 10 7 4 1 2 6 6 3 4 6 9 11 13 20 22 25 28 27 29 29 30 31 33 33 32 32 33 31 32 28 32 30 30 27 28 26 21 19 18 20
15 14 11 9 5 2 3 2 2 2 5 8 10 13 17 20 20 25 28 31 34 31 31 32 33 34 36 35 35 36 34 32 26 28 26 29 29 28 26 24 18 18 18
13 9 7 4 3 1 1 1 4 6 9 13 16 18 20 20 22 25 25 25 27 31 33 35 33 32 33 34 31 35 36 32 25 29 33 22 19 18 17 17 16 17 18
8 6 5 5 3 1 2 5 8 11 13 14 15 15 14 15 18 21 23 24 26 28 32 32 31 33 34 34 35 35 34 34 30 28 28 26 20 18 17 17 17 18 18
8 7 6 3 1 3 6 8 8 9 10 11 11 12 13 16 16 19 22 26 29 29 30 32 34 34 33 33 35 30 31 31 29 30 28 27 23 19 16 17 18 18 19
9 6 4 2 3 5 6 7 7 9 11 12 12 13 15 16 16 22 26 27 29 30 30 32 35 34 32 32 29 28 28 30 28 26 26 24 23 22 18 17 16 16 16
7 4 2 3 3 4 6 6 7 10 13 13 13 16 18 18 20 27 28 30 32 32 33 32 31 25 26 25 26 23 21 20 23 22 23 25 26 23 21 16 17 15 16
4 3 2 4 5 4 4 4 12 11 13 14 15 17 19 21 24 26 28 30 30 30 27 23 25 26 25 21 18 22 19 19 19 21 21 23 24 24 23 17 17 16 15
2 2 4 5 4 5 5 6 5 10 15 15 16 17 19 22 23 25 27 28 26 25 19 20 20 18 18 16 15 15 16 14 15 17 19 21 25 25 23 19 19 16 15
2 4 4 5 5 6 7 8 8 9 10 11 15 19 20 21 22 23 24 25 23 20 19 20 21 23 23 20 17 16 15 17 19 18 20 20 23 24 24 21 19 17 15
3 4 5 6 7 7 8 9 10 10 11 12 14 15 21 23 23 21 20 17 19 20 20 20 20 20 21 21 18 18 18 22 21 23 21 19 20 23 24 20 17 17 16
4 5 6 6 8 8 9 10 10 11 12 12 14 16 22 25 21 18 17 17 18 18 19 20 20 20 21 21 20 17 12 11 15 17 18 17 18 23 23 20 18 17 15
4 7 7 7 8 9 10 11 12 12 13 14 14 17 23 24 18 17 18 17 18 19 20 20 21 21 20 21 20 18 14 10 10 14 17 18 19 23 23 17 19 17 14
6 7 7 8 9 10 11 12 13 14 15 16 17 18 23 19 17 18 19 18 19 19 20 20 22 21 20 20 21 19 18 12 10 9 13 14 18 21 19 19 19 18 14
7 8 9 10 10 11 12 13 14 15 16 17 18 19 19 20 21 19 20 20 20 22 22 22 23 23 21 20 19 19 19 17 16 13 14 12 15 20 19 19 21 19 15
8 9 10 11 11 12 13 13 14 15 16 17 18 18 19 21 21 20 20 22 23 23 23 23 24 22 21 21 19 18 17 17 19 19 16 16 15 20 21 19 21 19 16
10 10 11 12 12 13 13 13 14 15 16 17 18 19 20 21 21 21 21 23 24 24 25 24 22 22 21 20 19 18 17 17 18 18 18 17 16 19 23 21 20 20 19
11 12 13 13 13 14 14 14 15 15 16 17 19 20 20 21 21 22 23 23 23 25 23 23 22 21 21 20 18 17 16 16 16 16 17 17 16 18 23 22 21 21 20

GFSGL_850_spd_057.txt.gz
Wind_Speed
22 25 24 27 24 17 16 20 20 20 18 18 21 20 18 26 30 28 24 23 18 13 14 11 11 18 20 20 19 19 20 20 25 26 23 23 24 23 24 25 24 24 28
18 19 19 16 18 19 18 19 19 19 17 16 17 20 23 25 24 21 22 18 12 15 11 12 18 19 22 22 23 24 24 24 26 29 29 28 28 26 26 25 25 26 27
15 20 21 20 20 17 15 15 15 15 15 16 17 18 18 19 20 17 12 11 12 14 14 19 21 21 24 25 24 26 28 28 29 29 31 29 29 27 27 26 25 25 25
23 23 19 17 14 10 9 10 10 12 13 11 13 14 15 14 13 10 13 14 15 16 20 23 23 23 25 26 28 30 31 32 33 33 32 33 32 28 27 26 26 26 25
17 13 12 9 7 7 7 7 7 9 10 10 12 10 10 8 9 13 16 18 18 19 16 19 22 23 26 29 32 37 36 34 34 33 33 31 31 28 25 25 27 25 25
12 10 10 8 9 10 9 8 7 6 5 4 5 5 6 11 14 15 17 18 18 17 20 21 23 27 30 33 35 36 37 38 42 43 38 34 32 28 25 26 25 23 25
12 14 14 14 13 12 11 10 8 5 1 3 6 8 10 13 14 12 12 17 19 20 22 24 26 28 31 33 35 37 39 40 40 42 45 44 36 30 26 22 21 22 25
17 16 15 14 14 12 11 8 4 2 2 4 5 4 5 8 14 18 20 21 22 22 23 26 29 32 34 35 37 39 40 41 38 38 38 37 40 32 25 22 20 21 23
17 17 16 13 11 10 8 6 3 2 2 2 1 2 4 5 15 21 23 22 24 26 26 27 29 33 35 36 40 44 44 44 43 39 37 36 31 30 28 22 19 20 24
17 15 13 12 10 8 5 6 4 4 2 1 2 4 7 7 15 22 26 28 29 31 31 31 33 34 37 39 40 40 40 41 38 36 33 34 35 31 36 35 27 25 23
16 14 12 10 8 7 7 6 4 2 1 4 7 9 9 11 12 21 25 25 25 30 33 37 38 34 34 35 37 40 42 41 40 37 34 31 26 23 27 25 25 25 23
14 12 11 9 8 7 6 4 2 1 3 5 9 9 9 11 13 18 23 24 27 31 32 35 36 37 38 38 36 39 37 36 38 35 37 36 35 27 23 22 22 20 18
14 12 10 9 7 6 4 2 1 1 4 6 6 7 7 11 9 17 23 25 26 28 31 34 36 37 36 37 38 36 35 33 32 29 37 35 23 26 26 26 23 23 21
14 12 11 9 6 4 2 1 1 4 5 5 5 6 9 11 11 19 25 26 26 29 32 35 32 30 32 32 31 30 29 28 26 27 30 26 18 22 25 26 23 21 21
14 12 10 8 6 3 5 5 4 7 7 7 8 10 13 14 16 21 24 25 27 29 31 27 27 27 29 28 28 26 25 24 21 22 25 17 18 20 24 25 25 22 19
14 12 10 8 7 5 4 6 7 8 9 9 10 11 14 17 19 21 23 23 24 25 23 22 26 26 26 26 25 24 20 20 18 14 13 15 17 18 23 24 24 22 19
11 9 9 6 6 5 4 4 3 11 14 14 13 14 16 16 19 21 23 23 20 21 17 20 23 25 26 26 25 26 25 20 14 13 12 16 19 20 23 25 25 23 20
10 8 6 5 5 4 4 5 5 5 6 6 12 17 19 17 19 21 23 20 16 16 17 19 21 23 24 25 25 24 24 22 18 16 18 18 19 23 25 26 26 25 19
8 6 6 6 7 7 7 6 6 6 7 8 9 10 14 22 20 19 18 15 18 18 19 20 20 22 23 23 24 23 22 21 17 16 21 21 23 21 23 26 25 25 20
6 4 5 5 6 6 6 5 5 6 7 8 9 11 14 20 21 15 15 17 17 19 20 21 21 22 22 23 22 23 24 21 18 16 16 17 17 17 20 23 25 23 19
2 3 5 6 6 8 7 7 7 8 8 9 10 13 21 21 16 15 16 17 18 19 21 21 22 23 22 23 22 21 23 22 18 15 13 7 12 17 20 22 23 20 18
6 6 7 8 9 10 10 9 9 8 8 9 11 12 18 15 14 16 16 18 19 19 20 22 22 23 23 23 22 22 22 22 20 17 17 14 11 12 17 20 20 19 19
6 7 8 10 10 12 10 10 9 8 9 11 11 12 13 13 15 16 17 19 19 20 21 21 23 23 23 21 21 22 21 22 21 19 21 18 15 12 13 19 20 20 20
7 8 9 11 12 11 10 11 9 11 12 11 11 12 13 14 15 16 18 19 20 21 22 22 23 25 22 23 23 22 22 21 21 21 21 21 18 15 13 19 21 21 20
9 9 10 10 9 9 10 9 10 10 11 11 11 12 13 14 15 17 18 19 21 21 22 24 22 23 24 24 24 23 20 20 20 20 21 22 20 17 18 18 23 22 21
10 11 11 11 10 10 10 11 11 11 12 11 12 13 14 15 16 17 18 19 20 23 23 23 24 24 24 24 23 22 21 20 20 18 20 22 21 18 18 19 23 23 21

GFSGL_850_spd_063.txt.gz
Wind_Speed
43 43 46 45 43 43 35 24 28 25 24 25 22 19 19 19 19 22 18 19 21 24 22 17 14 15 15 15 17 20 22 26 31 36 35 32 32 32 33 31 35 38 39
44 42 44 43 37 38 15 25 28 23 24 18 18 19 18 19 20 18 19 21 22 17 13 11 12 14 16 17 18 22 24 26 31 38 38 38 37 35 35 36 39 40 36
35 31 27 26 26 33 27 23 15 19 15 17 18 18 17 20 19 17 18 16 14 12 10 12 15 17 18 19 21 24 26 28 31 35 41 40 40 38 36 34 34 34 32
42 28 24 23 21 21 21 17 16 15 14 15 15 16 17 17 15 15 14 12 11 10 11 12 14 14 13 14 17 21 25 28 30 34 39 42 43 44 42 40 38 39 40
26 21 19 23 21 19 17 15 14 14 13 13 14 16 15 13 13 12 12 11 11 11 10 12 12 12 14 17 20 23 25 28 30 33 37 39 42 42 40 41 41 41 36
18 22 23 20 18 15 15 15 15 15 14 14 14 13 12 11 11 11 11 10 10 11 12 11 13 16 20 22 24 28 30 32 35 34 36 36 38 35 33 36 39 40 36
20 21 21 20 17 16 16 17 17 17 16 14 13 12 12 11 11 10 9 8 7 9 12 15 17 20 23 27 30 33 35 36 39 42 45 44 42 39 36 34 36 37 37
17 19 19 17 19 19 20 20 20 19 16 13 11 11 13 13 11 8 7 8 9 11 14 17 20 22 23 28 32 35 36 36 36 36 37 40 40 41 39 34 31 35 36
24 23 22 22 24 23 21 21 20 17 13 12 13 13 10 10 9 9 10 11 13 15 16 15 18 20 23 26 30 34 37 37 34 32 32 33 35 36 34 32 35 30 33
26 25 24 24 24 23 21 19 15 12 15 16 15 13 12 12 13 14 14 14 14 13 14 16 19 21 22 23 27 30 34 35 35 35 33 32 30 26 26 23 26 28 32
27 26 25 24 22 21 19 17 19 21 21 20 18 16 15 14 14 15 16 14 14 15 17 19 19 21 22 23 23 25 27 31 34 33 33 33 32 30 31 23 21 26 30
29 28 27 24 22 20 20 21 22 23 22 21 19 16 15 15 14 15 13 14 16 18 19 20 21 20 21 23 24 27 28 28 30 31 31 33 31 30 33 26 24 23 26
30 29 27 25 23 22 22 24 24 22 20 19 17 16 15 14 13 13 14 15 16 17 19 19 20 21 21 23 25 27 28 26 28 28 29 30 30 29 31 27 22 19 22
29 28 28 26 25 23 23 23 23 20 18 17 16 15 15 14 14 14 15 16 16 17 18 19 20 21 23 24 26 27 27 27 26 26 27 26 23 31 34 22 27 18 13
30 30 29 28 28 27 24 21 19 17 15 14 14 12 13 14 14 14 15 15 16 18 19 20 21 22 25 27 29 29 28 28 28 27 25 23 24 22 25 14 9 11 14
30 28 28 27 26 24 22 21 18 13 13 13 13 13 13 15 13 13 14 14 15 17 18 19 20 22 25 28 30 31 31 28 27 26 25 22 21 21 17 15 13 13 13
28 27 25 23 21 19 16 13 12 10 9 8 9 11 12 14 12 13 13 14 15 16 16 18 19 22 26 28 29 30 31 28 26 25 25 24 20 19 15 13 15 17 18
23 22 23 21 17 14 11 10 9 9 8 9 10 10 13 13 12 12 15 16 16 15 16 18 20 23 25 27 28 29 28 28 26 26 23 23 21 21 20 15 16 19 20
19 18 17 16 14 13 12 11 12 11 11 11 11 11 14 14 15 17 19 18 17 17 18 20 21 23 24 25 27 27 27 27 26 25 23 22 22 22 21 17 15 24 20
15 14 9 7 7 8 8 8 10 11 11 11 13 15 16 18 20 22 18 17 17 18 20 22 24 24 23 26 27 27 27 27 26 24 23 21 22 22 20 20 14 11 11
6 9 14 12 9 7 8 10 12 13 14 15 16 16 18 20 19 17 15 16 19 21 23 25 24 24 26 25 25 25 27 26 23 24 23 23 22 23 20 19 18 12 13
11 11 8 6 7 7 10 12 14 15 14 15 16 17 18 19 19 18 17 19 22 22 24 24 25 25 23 22 25 25 23 24 25 24 24 22 21 21 21 20 17 13 13
4 4 5 6 8 10 12 12 14 14 14 16 17 18 19 18 18 19 20 21 22 23 24 25 25 22 21 22 21 22 24 24 23 22 23 24 24 22 21 20 17 15 11
3 3 6 8 10 11 12 13 14 15 17 17 16 16 16 18 19 20 23 23 23 25 26 24 20 22 21 22 22 20 20 20 20 21 23 25 24 21 20 20 18 15 12
4 6 7 9 11 13 13 14 14 14 16 17 17 18 19 20 22 24 23 24 25 26 24 19 21 20 21 21 19 18 18 18 18 19 22 23 24 22 20 19 18 16 13
8 9 9 10 10 11 12 14 16 16 17 18 19 20 21 23 24 23 25 26 24 23 21 21 20 19 20 20 18 17 17 17 18 18 20 23 23 21 19 19 18 17 15

GFSGL_850_spd_069.txt.gz
Wind_Speed
46 47 46 43 42 42 42 43 41 39 35 35 39 34 43 37 33 30 27 23 23 20 20 25 22 22 22 22 23 21 20 21 24 26 28 25 26 29 32 32 32 32 34
45 47 45 43 44 44 47 46 41 37 34 24 29 34 36 36 34 31 31 28 27 22 23 24 25 24 23 22 20 20 20 20 25 27 27 27 30 33 33 35 36 37 38
49 50 50 40 36 44 54 46 41 40 37 26 29 36 34 33 28 29 33 27 24 24 22 24 25 24 20 19 19 22 27 28 28 29 30 32 34 35 38 39 40 41 41
48 52 53 50 51 47 47 39 41 41 38 35 32 34 36 35 30 31 28 26 25 23 21 24 23 22 21 22 22 26 23 22 23 27 30 34 36 38 41 43 47 46 47
44 46 50 51 51 42 42 43 41 38 40 39 37 33 33 31 27 28 27 27 26 24 23 24 23 22 21 22 23 21 21 23 26 30 32 36 38 40 40 39 40 42 42
42 43 44 46 42 40 40 40 46 50 48 42 39 30 28 28 27 27 27 27 25 26 25 25 23 21 21 21 20 21 24 26 28 30 32 34 35 36 34 33 34 37 41
41 42 42 43 44 40 43 43 43 41 35 36 31 29 28 27 27 27 25 25 24 25 23 22 21 21 21 21 22 23 25 26 26 28 30 29 32 31 32 32 32 34 37
37 39 40 42 43 37 36 33 33 34 34 32 31 29 27 25 26 25 25 24 24 21 21 21 21 21 21 22 23 22 21 22 23 24 25 27 27 28 28 29 32 35 37
36 37 37 34 32 31 31 29 30 32 31 30 28 26 25 25 25 24 23 22 20 21 20 20 20 21 22 22 22 22 23 22 22 23 24 24 25 24 22 26 28 28 34
30 28 24 22 23 26 29 31 31 32 30 27 26 25 26 26 25 22 22 22 20 19 19 20 20 20 20 21 22 21 21 22 23 24 24 24 24 22 20 20 24 24 29
26 20 21 26 28 30 34 32 31 30 28 27 28 27 24 22 22 23 21 20 19 18 19 19 18 18 21 22 21 19 20 21 23 25 26 26 25 23 21 20 19 19 27
21 24 28 28 29 31 30 28 29 29 30 31 29 26 24 24 22 22 21 19 18 17 17 16 16 18 18 18 18 18 19 22 23 24 25 26 26 26 25 23 22 23 27
23 25 25 26 28 26 26 28 28 28 29 29 28 26 26 26 24 21 21 18 16 15 16 16 16 16 16 16 17 19 20 21 23 25 26 26 26 27 26 26 24 23 22
23 26 26 26 26 24 22 22 26 27 27 25 25 26 26 24 22 18 15 14 13 13 13 14 15 16 16 17 17 18 19 21 23 24 25 26 26 26 26 25 25 23 21
21 25 25 26 25 24 23 22 21 22 22 21 24 24 23 21 18 16 14 14 15 15 15 15 15 17 17 18 18 19 20 22 22 23 24 25 25 25 25 24 23 22 18
22 25 26 25 25 23 24 25 23 21 21 19 16 16 18 17 16 17 17 16 16 16 15 16 16 17 17 18 19 20 21 22 23 23 24 24 25 25 26 24 22 21 21
19 23 25 26 26 27 27 26 26 19 15 14 14 15 16 16 18 16 14 15 15 14 14 15 16 17 18 18 20 21 22 23 24 24 24 23 24 24 24 24 23 22 21
23 24 27 28 27 25 23 20 14 10 11 10 10 12 14 12 12 11 11 11 12 13 15 16 16 17 18 20 21 22 23 24 24 24 23 23 22 23 24 23 21 21 21
27 26 26 25 22 18 15 13 13 13 14 15 14 12 14 15 12 12 13 14 14 16 16 16 18 20 21 23 24 24 24 24 23 23 23 22 21 22 23 22 21 19 20
23 21 18 13 12 11 10 10 10 10 10 11 12 13 13 14 14 15 16 16 17 16 17 18 20 22 23 23 24 24 24 22 23 23 22 22 21 21 21 21 21 20 20
11 11 8 7 6 6 7 7 7 8 9 8 8 9 10 13 15 16 17 18 18 18 19 19 20 22 24 24 25 24 24 23 22 22 23 22 20 20 20 19 20 20 20
8 7 7 6 6 5 4 4 4 5 7 8 9 10 11 13 15 17 17 18 18 18 20 21 22 24 26 26 26 25 25 24 22 22 21 20 20 20 20 20 20 19 18
9 8 7 5 3 1 1 2 3 4 6 7 9 11 12 14 14 15 15 16 17 19 21 23 25 27 27 26 24 24 25 24 23 22 22 21 21 20 20 21 21 20 19
8 7 5 4 3 3 4 4 5 6 7 8 10 11 12 14 15 15 17 19 21 23 25 26 27 29 29 26 23 23 22 23 23 22 21 22 22 21 20 21 22 20 19
7 7 6 6 5 6 6 6 7 9 10 11 12 13 14 16 17 19 20 22 23 24 25 26 26 26 26 25 23 22 21 21 21 21 20 21 23 22 22 22 22 20 18
8 8 8 7 7 7 8 9 10 11 12 13 14 15 17 19 20 22 22 23 24 26 26 25 25 25 24 22 21 20 20 20 20 18 19 21 23 23 22 21 21 21 19

GFSGL_850_spd_072.txt.gz
Wind_Speed
36 37 40 41 41 40 40 39 39 38 37 35 35 36 36 37 40 40 34 36 33 31 29 24 23 20 23 24 23 23 23 23 23 22 24 26 30 28 26 27 29 29 31
37 37 37 37 39 37 40 38 37 39 37 34 35 38 41 40 42 34 38 35 32 29 29 26 23 22 26 25 26 25 23 21 23 24 25 27 28 26 27 30 31 33 36
41 41 39 40 39 39 46 41 44 41 37 33 35 34 34 26 20 28 33 32 30 34 28 28 27 25 23 25 26 26 24 21 22 25 26 27 26 27 30 32 35 36 37
43 43 43 45 42 46 42 42 45 43 40 38 42 42 40 31 30 35 32 32 30 33 30 26 27 24 23 26 25 24 21 21 22 22 22 24 26 28 32 35 37 37 39
37 43 46 44 43 46 47 47 46 40 33 42 43 39 39 35 34 32 30 32 31 33 29 25 25 25 26 26 23 21 21 21 20 21 23 26 27 28 31 33 37 39 39
30 33 37 42 45 46 48 48 49 48 43 38 41 42 38 34 33 30 29 31 27 29 29 27 25 25 26 24 21 19 20 19 20 21 23 25 26 28 30 31 34 37 40
26 29 31 32 36 42 45 46 46 44 39 41 39 40 40 37 32 25 24 27 27 27 27 25 24 24 22 19 18 20 20 20 21 21 22 23 25 26 29 30 31 33 35
28 30 29 31 34 36 36 37 39 42 41 42 38 37 35 28 26 28 29 28 25 25 24 23 22 20 20 19 19 19 20 19 19 21 22 22 24 24 25 27 29 32 35
30 32 31 30 31 32 33 34 37 36 38 34 32 29 29 28 31 30 27 25 24 23 22 21 20 20 20 19 19 19 18 19 20 20 22 22 23 21 22 25 26 28 36
31 31 31 30 31 30 32 34 35 32 31 27 29 29 28 27 24 23 22 22 22 21 19 19 19 19 19 19 19 18 18 19 20 20 20 19 21 21 20 21 24 27 30
27 28 26 22 20 21 19 20 24 28 29 29 28 26 23 21 22 22 21 20 18 18 19 18 17 18 18 19 19 18 19 20 20 22 22 22 22 21 21 21 21 23 27
17 17 18 18 18 22 24 24 27 29 29 27 25 24 24 23 21 21 20 20 19 18 16 16 16 17 18 19 20 20 20 20 20 21 22 22 23 22 22 22 21 21 23
15 14 16 19 22 23 23 25 27 26 25 25 26 25 25 24 22 19 19 18 16 14 14 15 15 17 18 18 18 17 19 20 21 22 22 23 23 24 24 24 23 23 24
13 16 19 18 20 21 22 22 23 23 24 24 25 24 22 21 20 20 19 16 14 14 14 14 15 15 16 16 16 19 20 20 21 21 22 23 24 24 24 24 25 25 27
13 15 15 18 19 19 19 18 15 15 16 18 20 19 19 19 20 18 15 13 14 14 14 14 14 14 15 17 20 19 19 20 21 21 22 24 25 25 25 24 23 24 24
13 13 14 14 16 18 17 16 15 13 13 15 15 16 19 16 15 14 14 17 16 15 14 14 15 16 18 19 19 19 19 21 21 23 24 25 26 27 26 25 23 23 25
12 14 18 19 19 20 20 20 22 23 20 16 13 13 11 11 12 15 16 14 13 14 15 18 17 18 17 17 18 20 21 22 23 24 25 24 25 26 26 26 24 24 24
19 22 26 26 26 27 23 21 19 16 15 12 10 10 10 12 13 14 14 17 18 18 16 16 17 18 19 19 21 21 22 24 23 24 25 24 23 25 26 25 23 24 24
22 24 22 19 18 18 16 12 8 5 4 5 7 8 8 9 9 9 9 10 11 13 14 15 16 17 18 20 21 22 23 23 24 24 23 23 22 23 24 23 23 22 23
16 17 18 17 15 11 8 5 4 4 5 4 5 6 8 8 9 10 11 12 13 14 14 14 16 18 19 20 22 23 24 24 24 23 23 22 21 21 22 22 21 22 21
19 17 15 13 11 9 8 7 6 6 5 5 5 5 6 9 10 11 13 13 13 13 14 15 16 18 20 21 23 25 26 26 24 23 22 22 21 21 20 21 21 21 21
15 14 13 11 10 9 7 6 4 3 2 2 3 4 6 8 10 11 12 12 12 13 15 16 18 21 23 25 27 28 28 27 24 22 22 22 21 21 20 19 19 20 20
14 13 12 11 9 7 6 4 3 1 0 2 4 5 7 8 9 10 11 12 14 16 19 21 24 25 26 27 27 28 28 26 24 22 22 22 21 21 20 20 20 20 20
12 11 10 9 7 6 5 4 3 3 3 4 6 7 9 10 11 13 14 16 18 20 22 23 25 27 28 28 27 26 25 24 23 22 21 23 22 20 21 21 21 20 21
11 10 8 8 7 6 5 5 4 5 6 7 8 9 11 12 14 15 17 19 20 21 22 24 27 27 27 26 25 23 22 21 20 20 21 22 22 21 22 23 22 21 20
10 8 8 7 6 5 5 6 6 7 8 9 10 11 12 13 15 16 18 21 23 24 25 25 25 24 24 23 22 20 19 18 18 18 21 21 21 21 22 23 22 20 20

GFSGL_850_spd_075.txt.gz
Wind_Speed
34 36 37 38 40 42 43 44 46 47 49 49 49 50 46 41 40 39 41 41 40 33 28 33 36 29 26 24 21 23 25 22 22 23 21 22 20 22 27 25 23 24 26
35 36 39 40 40 39 38 37 39 40 40 41 39 35 34 35 36 46 44 47 48 37 31 34 27 25 28 26 24 24 22 25 25 25 22 20 20 23 26 23 23 25 26
40 37 39 42 43 44 44 44 43 41 40 40 36 36 34 38 39 38 33 33 36 29 32 27 26 32 32 28 24 24 25 24 25 23 19 20 22 20 21 22 23 24 23
39 43 42 41 41 42 42 47 47 43 41 39 39 38 39 42 39 34 30 25 24 25 26 27 29 34 33 30 26 24 25 25 22 20 19 19 19 21 22 23 23 24 25
32 38 42 42 41 42 41 43 45 42 46 43 39 39 41 44 38 36 35 28 29 35 35 33 30 33 30 28 24 23 26 24 23 22 19 19 20 21 20 21 24 25 25
29 31 33 36 40 42 41 42 42 42 42 40 40 38 32 43 46 37 30 33 33 34 33 31 32 29 28 27 25 24 23 22 19 19 19 20 20 20 20 21 23 24 21
25 26 28 30 34 37 39 40 42 41 40 42 40 39 35 35 37 33 34 32 34 34 33 30 32 31 28 24 24 23 20 20 18 18 19 19 18 19 20 21 22 24 24
28 27 27 28 30 32 35 36 38 38 39 40 37 34 31 33 37 36 36 36 34 29 29 29 27 26 24 22 21 20 18 16 18 17 16 17 17 18 20 22 23 25 27
32 31 28 27 28 30 30 30 31 29 28 29 31 31 31 31 34 35 34 32 28 28 28 26 24 22 20 20 18 15 15 16 16 16 17 17 18 19 20 21 23 25 27
34 32 30 29 28 27 25 21 20 22 25 26 27 29 31 32 31 30 30 29 30 29 26 23 22 20 18 16 13 14 14 15 15 15 15 15 16 17 18 21 23 24 23
33 30 27 25 23 20 17 18 21 23 24 26 26 27 26 25 27 26 23 25 25 24 21 20 18 14 11 11 13 14 15 15 15 15 15 15 16 16 17 21 21 23 25
23 20 18 16 15 15 16 18 18 19 19 22 24 26 24 25 25 23 22 19 17 17 17 14 11 10 12 13 14 15 15 14 13 14 16 17 17 18 19 20 22 23 25
15 14 12 14 13 13 14 17 21 21 19 23 25 26 27 27 26 24 21 19 17 13 11 9 9 11 12 13 13 12 12 13 16 18 18 19 19 19 20 22 23 26 28
14 16 16 15 13 14 14 13 15 18 21 24 28 29 26 24 24 23 19 14 11 10 8 8 8 8 9 11 12 13 16 19 19 19 18 19 20 20 22 24 27 27 29
12 13 12 9 11 11 12 13 13 14 17 21 25 25 25 23 20 16 14 13 11 7 3 5 7 9 11 14 16 18 20 20 18 19 21 20 22 25 26 26 25 26 27
14 12 10 9 13 12 14 16 16 12 13 13 14 16 17 14 12 10 7 4 4 6 7 9 11 13 15 17 18 19 19 19 21 24 24 25 25 25 25 25 25 23 24
10 10 11 13 14 17 20 20 20 17 16 14 12 11 8 10 7 4 5 7 7 8 9 11 12 15 17 18 17 17 20 23 23 24 24 25 24 24 24 24 23 21 22
13 13 18 18 19 20 19 18 16 16 19 18 14 9 6 3 3 5 7 8 9 10 11 12 12 13 14 15 17 18 19 21 22 23 24 24 24 24 24 23 20 20 20
11 16 16 16 17 17 18 18 17 15 14 12 9 4 1 2 3 4 4 5 6 8 10 11 12 13 14 16 17 19 21 22 23 24 25 25 24 24 23 23 22 22 24
19 19 22 24 24 22 19 15 13 11 10 9 7 4 1 1 2 4 5 6 7 9 10 10 12 13 15 17 19 21 22 23 23 22 20 20 21 21 22 21 19 19 19
26 23 23 22 19 16 15 13 12 10 9 7 6 4 4 4 4 4 6 7 8 9 10 11 13 14 16 18 20 21 22 24 25 25 24 22 21 22 21 19 18 18 18
21 20 18 18 16 14 13 12 11 9 9 8 6 5 4 3 3 5 6 7 8 10 12 14 16 18 21 24 26 27 28 28 27 26 24 23 22 19 18 18 18 18 18
18 17 17 16 14 13 11 11 9 8 7 5 3 1 1 2 3 5 7 9 11 13 16 18 20 22 24 25 26 27 28 28 26 25 23 21 18 17 17 18 18 18 17
16 15 14 14 12 11 10 9 7 6 4 3 2 2 3 5 6 8 9 11 14 16 18 19 21 22 24 25 25 26 26 25 24 23 21 21 21 21 20 19 18 19 20
13 12 11 11 10 10 8 6 5 5 4 3 4 4 5 6 8 9 11 13 14 16 18 19 20 21 22 22 21 21 21 21 20 19 20 20 21 21 20 20 21 21 21
12 11 10 10 9 9 7 7 6 6 5 5 5 5 5 7 8 10 12 14 15 17 18 18 19 19 20 20 20 20 19 17 16 15 17 18 20 20 20 21 22 22 22

GFSGL_850_spd_078.txt.gz
Wind_Speed
32 33 34 36 38 38 44 43 44 42 41 40 40 39 39 38 36 35 34 33 34 41 40 37 35 32 30 31 32 31 27 25 27 26 17 23 23 22 23 21 21 21 20
34 35 37 38 37 42 48 51 52 51 46 43 42 41 41 41 40 40 40 48 42 43 48 52 45 45 34 36 33 29 28 28 27 30 28 28 28 26 25 23 21 21 23
34 36 37 41 40 42 45 44 41 41 43 42 41 45 46 45 42 43 52 43 39 38 41 48 48 37 31 43 39 35 33 31 32 29 30 30 30 26 24 25 24 24 25
37 37 38 42 44 43 42 41 41 40 40 40 41 44 43 42 39 43 40 38 37 38 33 27 21 27 35 35 31 37 34 35 35 30 29 29 26 25 24 21 19 20 21
39 40 44 41 39 39 39 41 42 41 39 39 41 42 41 38 40 42 41 39 39 39 35 34 31 34 34 36 32 40 40 36 31 29 28 26 23 21 18 13 19 17 19
36 39 38 38 40 41 40 39 39 42 41 37 39 39 40 40 41 40 44 43 43 37 36 36 35 34 35 35 34 36 34 31 31 28 25 22 17 18 20 18 16 14 12
31 32 33 34 36 37 37 37 37 37 35 37 39 41 39 39 45 39 39 39 43 43 38 38 39 35 36 34 34 34 34 31 27 24 21 18 17 18 19 16 15 13 14
31 31 32 32 32 30 30 33 33 33 35 34 33 32 33 40 40 35 36 39 37 39 39 38 36 37 36 35 34 33 27 24 22 18 15 18 19 20 18 17 16 17 17
34 33 32 32 31 30 30 29 27 28 29 27 32 32 31 31 27 29 32 35 37 39 37 35 33 32 31 27 28 26 23 19 15 13 15 18 19 19 18 18 17 13 16
34 34 28 28 28 28 26 25 30 27 26 24 25 26 27 29 31 31 31 31 35 36 35 32 29 28 27 25 21 18 16 13 13 15 17 17 17 18 17 18 17 17 14
26 29 29 27 29 29 28 26 25 23 21 24 25 26 26 26 28 30 32 32 33 33 31 30 28 25 22 19 15 12 12 12 12 13 13 15 16 16 18 19 20 20 17
31 33 30 28 29 26 24 24 22 23 23 23 22 23 23 24 24 24 21 19 22 26 28 25 22 19 15 12 11 10 11 11 11 12 13 14 15 17 18 20 20 21 22
19 22 24 23 22 20 19 21 21 21 20 21 21 20 20 19 21 19 17 17 19 20 19 19 14 10 9 10 8 8 8 10 11 12 15 16 17 19 21 21 22 24 25
17 18 19 21 23 22 20 19 17 18 20 21 20 20 20 21 21 22 22 22 22 18 13 11 8 7 6 3 4 7 11 15 16 16 16 17 18 19 21 21 24 26 27
15 16 18 18 18 18 18 16 14 14 13 14 16 18 22 24 23 21 19 17 13 11 10 7 8 9 10 9 10 11 12 13 13 14 15 15 16 17 17 17 20 21 20
14 17 18 18 17 18 17 15 15 9 7 7 9 14 19 16 17 13 9 7 5 5 5 8 8 6 6 7 6 6 9 12 11 12 12 13 14 15 16 17 18 18 19
15 16 15 14 15 15 14 17 20 18 18 15 16 14 13 16 15 13 10 7 5 4 4 4 4 4 5 6 6 6 6 11 17 12 12 13 14 16 17 17 18 19 19
6 8 8 10 12 15 17 21 23 26 29 27 23 21 18 15 12 9 5 2 2 3 2 2 2 2 3 3 5 6 7 9 11 12 13 14 16 17 17 18 18 19 19
14 17 17 18 17 20 23 24 25 26 26 25 21 17 13 11 9 9 11 7 6 4 3 2 1 1 3 4 7 8 10 11 14 15 15 15 16 16 18 18 19 20 20
17 19 22 25 26 26 26 25 24 24 22 20 17 14 12 9 8 6 5 4 4 3 4 2 2 4 6 7 9 11 11 12 14 16 17 18 18 18 19 19 19 19 19
25 25 26 26 24 22 21 21 18 18 17 16 14 11 9 7 7 6 4 3 3 3 4 4 5 7 8 9 11 13 15 16 17 18 19 19 19 19 18 19 19 18 19
22 21 21 20 18 16 17 18 16 15 14 12 11 8 5 4 5 4 3 3 4 5 6 8 8 9 10 11 13 14 15 16 16 17 17 17 17 17 17 17 18 18 18
19 18 18 17 16 15 15 15 13 11 11 10 8 5 4 4 3 3 3 4 6 8 10 11 12 13 13 15 16 15 14 14 15 16 16 16 16 16 16 17 18 18 18
15 15 15 14 13 12 12 12 10 10 10 9 8 6 4 3 3 3 4 7 8 9 11 13 14 15 16 17 17 16 15 16 17 18 16 15 15 16 16 17 17 18 18
11 11 11 11 10 10 10 9 8 8 7 7 6 6 5 4 4 4 6 8 9 11 12 14 15 16 17 17 18 18 18 19 19 18 17 17 16 17 17 17 18 17 18
11 11 11 10 10 9 9 9 8 8 7 6 5 5 4 4 5 7 9 10 11 13 14 15 16 17 17 17 18 17 17 17 15 14 15 15 16 16 16 17 17 18 19

GFSGL_850_spd_081.txt.gz
Wind_Speed
29 29 30 33 36 34 34 35 43 44 50 48 48 57 54 50 49 48 50 44 40 37 35 34 34 34 32 32 31 33 30 28 31 31 22 28 31 24 24 26 26 27 26
31 32 34 32 32 35 40 41 43 43 43 46 44 43 49 51 50 47 48 42 38 39 39 36 42 41 42 42 50 42 37 36 36 43 33 30 31 30 29 29 27 27 23
32 34 36 38 39 39 40 43 41 44 43 43 44 44 46 47 44 43 43 42 42 42 42 43 45 44 45 46 45 46 45 37 40 36 37 37 37 34 32 34 32 29 28
34 36 37 40 42 41 40 39 42 41 43 42 43 43 44 43 43 44 44 44 46 46 47 49 47 42 44 36 32 28 29 40 42 44 41 40 40 34 32 31 30 26 24
33 36 40 41 39 36 39 42 42 43 43 45 45 45 45 44 46 45 45 46 45 45 50 41 42 39 38 33 29 32 37 44 46 47 48 46 38 32 32 31 27 26 23
38 42 38 37 40 40 41 41 42 44 46 44 46 47 47 48 50 52 50 45 46 48 47 43 45 42 41 37 37 40 41 42 45 51 49 44 37 34 30 29 25 21 19
35 36 36 39 41 42 40 39 42 44 42 45 45 44 44 46 49 49 48 47 48 48 45 47 45 43 40 37 40 44 46 40 39 44 44 39 31 27 26 22 22 22 24
32 33 34 38 42 40 39 42 42 42 43 43 44 43 42 42 41 41 41 43 46 49 48 47 40 42 44 42 42 42 39 36 37 35 28 26 21 20 16 20 20 16 18
33 35 34 36 38 38 40 42 41 39 40 43 40 40 40 38 37 37 37 40 40 40 42 43 43 41 42 43 40 37 37 35 30 25 23 17 12 15 18 19 18 17 22
33 34 31 32 38 38 38 37 36 35 36 34 34 36 37 37 38 37 39 40 39 38 40 41 40 38 35 32 30 30 30 26 22 19 16 11 16 20 18 18 19 19 19
25 27 28 31 34 35 33 32 32 32 35 34 33 35 36 35 36 34 34 34 36 36 36 34 29 23 22 23 24 23 18 18 8 5 9 11 12 13 16 19 18 19 19
21 24 24 24 25 28 28 38 42 40 37 32 32 32 31 30 30 30 28 26 23 23 24 22 19 20 21 20 19 13 8 3 5 9 9 9 11 13 12 13 16 20 21
16 22 26 30 30 29 32 32 32 31 31 33 29 29 28 24 22 23 21 17 15 14 18 20 22 19 16 11 8 7 5 6 3 6 11 9 10 15 18 20 21 21 23
13 17 21 25 28 27 27 26 27 28 28 27 28 25 22 21 19 17 17 16 15 19 23 21 18 13 8 7 5 6 7 11 9 10 12 12 14 16 17 16 17 18 20
9 12 15 18 20 21 22 19 18 18 15 20 19 19 22 20 17 16 16 19 20 19 16 11 7 4 3 3 4 6 7 7 6 8 11 12 11 13 14 15 17 18 19
3 5 7 11 14 15 16 17 12 11 7 4 6 9 13 13 18 18 18 17 16 13 12 9 8 6 5 4 2 1 6 9 9 11 12 12 13 14 15 15 16 18 19
7 2 5 9 10 12 12 12 16 18 18 15 15 17 20 21 21 19 18 18 16 14 13 11 8 7 5 4 5 5 4 8 13 12 9 11 13 14 15 16 17 17 19
12 10 6 7 6 14 18 21 22 27 30 30 26 25 24 21 18 17 14 11 12 11 10 8 6 4 3 3 2 4 5 7 8 9 11 13 14 15 16 17 17 18 19
12 15 16 16 15 17 21 26 28 30 32 31 27 22 18 16 18 19 15 11 11 11 10 8 6 5 3 1 3 5 7 8 11 10 11 12 14 16 18 18 19 20 21
18 17 20 24 26 27 28 27 27 27 25 24 21 19 15 11 11 12 11 10 10 10 9 8 4 1 1 2 4 6 7 9 11 12 14 15 16 16 19 19 19 20 20
25 26 26 26 26 24 23 22 20 20 21 21 19 15 12 11 10 9 8 7 6 5 5 4 2 3 4 5 5 7 8 9 10 12 13 14 15 16 17 17 18 18 19
22 23 22 22 22 21 21 20 19 18 17 16 15 11 9 10 8 8 7 6 4 3 4 4 4 4 5 6 7 7 8 10 10 12 12 14 14 14 15 16 16 17 18
18 18 18 19 18 17 18 18 16 15 14 13 11 9 7 8 8 7 6 5 5 5 6 5 5 6 7 10 11 9 9 10 11 12 13 13 14 13 14 16 16 17 18
15 16 15 15 15 15 15 15 14 13 12 11 9 9 8 8 8 7 5 5 4 6 7 9 9 10 11 12 11 12 12 13 15 17 16 14 13 13 14 14 16 17 19
13 13 13 13 12 13 13 12 12 11 11 10 9 9 8 8 7 5 5 6 8 8 9 10 10 11 12 13 14 14 14 15 16 15 15 14 13 14 14 15 16 18 19
14 14 13 13 13 13 12 11 10 10 9 9 8 7 7 5 5 5 7 8 10 10 10 11 12 13 14 14 14 15 15 15 14 13 12 12 13 12 14 16 18 19 19

GFSGL_850_spd_084.txt.gz
Wind_Speed
29 34 40 43 41 38 38 41 49 52 53 54 54 54 52 52 49 48 45 44 45 46 44 44 44 44 38 37 37 36 38 40 42 41 40 31 23 27 31 33 30 31 31
32 30 32 39 42 43 40 41 42 46 57 57 56 58 56 56 57 57 57 54 51 45 45 46 46 44 43 41 42 41 42 43 45 45 45 33 32 30 39 37 33 32 31
33 35 33 32 36 40 43 42 41 41 48 54 55 52 57 61 62 63 61 55 52 50 49 44 45 45 42 44 45 45 45 43 46 44 43 42 37 35 39 37 36 34 35
34 35 38 37 37 37 39 41 42 39 41 47 52 55 54 52 56 53 51 49 50 51 48 49 47 43 45 46 46 47 46 44 43 41 41 40 40 36 43 44 45 44 39
34 39 39 40 40 39 38 39 39 46 46 47 48 49 47 48 49 48 47 49 52 49 47 46 46 48 50 55 51 50 42 42 44 43 37 45 44 45 49 52 50 44 40
35 38 38 37 40 42 44 42 42 43 48 49 48 49 49 51 53 51 51 50 49 48 49 50 49 51 52 51 49 44 43 47 44 43 44 48 49 54 54 54 48 40 30
36 36 37 39 40 42 42 44 46 46 45 49 49 50 52 53 52 51 50 50 48 46 46 46 47 50 52 49 45 45 48 47 42 45 49 49 48 48 50 41 33 30 24
34 36 37 38 41 40 41 44 46 48 49 48 48 48 48 51 51 50 49 48 50 53 49 48 48 52 51 45 45 47 48 47 47 47 44 39 38 34 29 27 24 20 18
31 35 36 35 37 38 40 45 44 42 43 47 47 47 48 49 46 48 45 47 48 50 52 52 51 51 51 51 46 45 46 44 39 35 31 27 26 21 20 17 13 10 15
15 27 34 34 35 38 40 39 38 39 41 39 39 42 44 45 46 44 42 42 43 45 46 49 48 47 46 48 42 35 33 29 22 17 15 15 13 10 9 4 7 14 17
19 22 17 36 34 35 35 37 36 37 39 39 41 42 43 42 44 42 41 40 41 44 46 45 42 43 42 37 25 22 23 23 18 14 8 2 3 2 3 6 9 16 19
20 18 15 21 26 28 30 34 35 38 40 40 40 41 43 43 42 43 43 40 35 32 32 30 28 27 22 18 20 21 20 16 12 8 7 6 3 9 10 11 15 18 19
20 19 17 12 18 26 26 29 33 36 35 32 35 40 39 38 38 36 38 42 36 26 23 21 18 16 19 21 18 17 13 9 7 6 4 5 7 11 13 14 18 20 23
22 18 14 14 12 15 15 19 22 29 33 33 35 32 26 15 18 23 19 15 17 18 20 19 19 18 14 12 10 7 5 5 3 2 4 6 9 10 11 13 16 17 19
19 24 16 11 7 6 7 11 13 16 20 27 27 21 24 17 4 10 12 16 18 22 24 23 20 16 12 11 9 6 5 4 2 1 2 4 6 8 10 14 17 19 20
11 11 13 12 8 7 8 10 12 9 6 1 14 15 15 18 21 18 19 22 24 20 22 19 19 17 14 8 7 6 4 3 2 3 5 7 8 10 12 15 17 17 18
5 8 8 8 7 8 9 16 24 28 26 24 21 30 28 27 24 25 26 26 24 19 20 20 17 14 11 8 6 4 2 0 3 6 6 8 10 12 14 15 16 17 19
7 9 11 13 13 16 22 26 31 35 35 36 28 35 34 30 26 24 21 20 21 18 17 16 14 11 9 6 4 2 1 4 7 8 10 10 11 11 13 14 16 17 19
15 15 16 17 19 22 26 26 32 32 32 32 29 27 28 25 23 20 17 18 18 17 15 14 11 9 6 3 1 2 4 5 7 6 8 10 12 13 12 14 16 17 18
22 24 25 27 28 28 29 29 32 31 29 27 23 18 16 15 16 17 15 14 14 12 10 8 6 4 2 1 1 2 4 5 7 8 9 10 10 11 11 12 13 15 16
23 23 24 23 23 23 23 24 24 24 24 22 20 14 12 13 14 13 12 10 10 8 7 5 3 1 1 2 3 4 4 4 6 7 7 9 11 10 9 10 11 12 14
20 20 20 22 22 21 22 21 20 19 19 17 15 13 10 10 10 9 8 7 5 4 4 4 2 2 2 3 3 3 3 3 6 8 10 10 10 8 8 9 11 13 15
18 19 20 20 18 18 18 17 17 16 14 12 11 9 8 8 7 7 7 6 5 5 4 1 1 2 3 3 3 4 5 8 10 12 12 12 10 7 9 10 11 13 14
15 16 16 16 15 16 15 16 15 13 11 11 11 10 9 9 8 7 6 5 3 4 6 5 5 6 6 7 7 8 10 9 9 11 12 12 11 10 10 10 10 12 15
12 13 13 13 12 13 12 12 11 10 10 10 9 8 7 5 5 4 4 6 5 5 5 6 7 8 9 9 9 9 9 10 11 11 10 10 10 10 9 10 12 15 18
13 13 13 12 12 12 11 11 10 9 8 7 7 5 3 2 2 2 4 5 5 5 6 7 8 9 9 9 10 10 11 11 10 9 9 9 9 10 11 12 14 15 17

GFSGL_850_spd_090.txt.gz
Wind_Speed
25 27 28 30 30 29 29 31 30 32 38 41 39 39 42 44 44 44 43 41 40 39 39 40 40 36 37 38 39 39 38 37 40 46 43 40 40 37 38 39 37 38 39
25 28 29 29 32 32 32 31 31 33 34 38 42 41 43 43 44 46 48 48 47 46 44 44 45 44 45 41 39 40 42 42 43 47 47 47 48 46 44 41 40 42 37
25 28 28 30 33 36 35 32 34 35 36 38 44 46 44 45 47 48 48 48 50 49 49 51 51 49 51 48 45 44 45 44 46 51 54 53 52 51 49 43 42 44 38
25 27 29 31 32 33 36 37 34 35 36 40 42 46 48 48 49 49 51 53 55 55 55 54 54 54 55 52 53 52 49 51 54 53 54 54 53 52 49 48 47 44 42
30 28 29 29 31 31 32 36 39 38 38 38 39 43 43 46 50 52 53 54 55 57 58 59 59 58 57 58 56 55 56 59 58 54 49 48 45 50 51 47 48 47 45
36 36 33 31 33 34 34 34 35 37 40 40 42 42 44 46 47 50 52 54 56 58 60 62 63 64 63 62 62 61 61 60 55 53 49 49 49 52 53 49 45 45 47
22 35 32 32 36 38 39 38 39 39 40 43 44 44 46 46 48 48 49 50 52 55 57 59 61 63 63 61 60 57 53 53 57 57 56 56 55 56 56 57 49 51 50
7 20 28 31 31 36 37 41 44 43 44 45 45 45 46 48 48 46 46 47 49 52 53 54 56 56 56 55 53 51 49 50 55 58 60 61 64 65 58 46 43 41 38
6 1 5 9 26 33 35 41 43 41 44 47 48 48 45 46 46 47 46 47 50 53 54 54 56 58 56 52 50 50 52 53 56 57 59 65 66 55 50 45 36 32 30
16 14 10 8 9 13 27 37 40 45 49 46 45 46 46 45 44 45 47 49 50 51 52 55 56 57 54 53 54 56 58 60 61 61 57 54 51 42 34 24 23 26 27
17 14 14 14 12 12 14 22 34 39 43 46 45 45 44 46 49 51 51 48 54 55 56 58 59 60 62 60 60 60 58 58 46 37 30 23 17 14 13 13 14 13 13
14 14 16 17 15 14 13 16 18 24 31 34 41 44 44 46 50 52 53 51 54 56 60 57 55 55 54 48 48 46 41 38 31 24 19 14 11 9 9 9 7 7 5
14 12 11 12 14 13 10 8 11 13 14 19 23 24 25 23 27 40 51 54 42 37 34 43 43 43 37 25 18 19 23 25 19 14 17 14 12 12 6 5 3 1 3
15 13 12 13 14 13 11 11 10 9 9 11 13 14 15 14 14 9 8 14 17 14 19 17 15 18 18 21 23 20 16 13 15 17 15 12 7 6 4 1 0 3 5
11 12 11 12 13 15 16 16 15 13 11 10 8 5 3 3 4 5 4 9 15 20 23 23 25 26 28 27 23 24 20 17 14 13 11 10 6 2 1 4 6 7 7
8 6 6 7 9 12 16 18 18 17 16 16 15 13 18 19 17 21 18 23 20 21 22 26 26 23 23 23 20 20 16 15 12 8 6 4 2 2 4 5 6 7 7
5 5 5 6 9 14 17 20 24 27 29 32 30 28 26 23 21 21 21 21 17 19 21 25 26 24 23 18 16 15 12 10 7 6 4 3 3 3 2 3 5 6 7
6 6 7 8 10 13 17 20 22 24 27 28 27 25 23 21 19 18 19 19 20 20 21 20 19 18 16 13 11 10 7 6 4 5 3 2 2 3 4 5 7 9 9
7 9 10 12 14 16 18 19 20 22 25 24 21 19 17 16 15 14 14 17 18 18 17 14 15 12 9 8 8 7 5 5 4 4 3 3 4 5 6 7 7 9 9
10 10 12 14 16 17 18 19 20 20 20 20 18 17 14 11 14 15 15 16 15 15 13 11 10 8 7 6 6 5 4 5 4 3 4 4 5 6 6 7 7 8 8
11 11 12 14 14 13 14 15 15 14 15 15 16 12 9 9 13 13 12 11 10 9 8 7 7 5 4 4 4 4 3 3 2 2 3 4 4 5 6 7 7 7 8
9 10 11 13 13 11 11 11 10 10 11 11 11 8 5 6 7 8 8 7 7 5 5 5 4 3 4 4 4 3 2 1 2 3 4 4 5 4 4 5 5 6 6
8 9 10 10 10 9 8 8 8 7 7 7 7 6 5 6 7 6 6 6 5 3 3 2 2 3 3 2 2 3 3 3 3 3 4 4 3 3 3 4 5 5 6
6 6 7 8 7 7 6 6 6 5 5 5 6 7 7 7 6 6 5 5 4 3 2 2 2 2 2 2 3 4 3 3 4 4 3 3 3 3 4 4 6 8 9
4 5 5 6 5 6 5 5 5 5 5 5 5 6 6 5 4 4 4 4 3 3 2 1 1 1 2 3 4 4 4 4 4 4 2 2 2 3 5 7 9 9 10
6 6 6 6 6 5 4 4 3 3 2 2 3 3 3 3 3 2 2 3 3 4 4 4 3 3 3 4 4 5 5 4 3 3 3 3 4 5 7 8 9 10 10

GFSGL_850_spd_093.txt.gz
Wind_Speed
27 25 24 23 22 21 25 28 28 28 29 31 33 36 35 35 37 39 39 39 45 42 41 41 42 39 39 39 39 37 39 37 39 42 42 40 37 39 40 40 38 37 40
26 25 24 24 24 25 26 27 27 29 28 29 35 39 37 34 35 38 39 40 45 45 46 44 44 41 42 44 41 39 40 37 43 46 44 44 46 43 42 45 47 48 46
24 24 24 25 26 27 27 27 27 29 29 30 33 40 43 39 38 41 42 43 45 48 50 48 47 45 46 45 45 46 48 47 45 44 47 46 48 47 49 53 55 54 51
24 23 24 25 27 27 26 28 29 29 31 32 34 35 37 38 42 43 45 47 49 50 51 52 52 51 52 50 50 52 52 52 50 50 49 51 52 53 56 55 55 51 52
23 25 25 23 25 26 27 26 27 29 31 32 34 36 37 40 44 47 47 47 49 51 54 55 56 55 55 55 54 55 57 56 54 53 52 52 54 50 50 50 50 51 52
14 20 23 23 24 26 27 29 29 30 31 32 37 38 40 43 45 46 49 51 52 53 55 56 57 57 59 59 59 58 58 57 56 57 53 48 48 50 48 51 52 51 51
12 13 14 19 23 25 26 30 32 33 33 36 37 37 40 43 44 44 45 48 49 51 53 55 56 58 58 60 59 60 60 61 62 62 59 58 58 54 51 52 55 55 54
6 11 11 13 17 21 21 24 27 32 37 41 42 42 40 40 41 42 43 43 46 49 50 52 54 55 56 56 56 57 56 57 57 57 60 61 61 58 57 56 52 52 58
5 2 3 5 8 13 20 25 30 30 31 33 35 42 44 46 44 43 40 43 48 50 50 51 53 53 51 50 51 53 53 53 53 54 54 56 57 58 62 66 64 55 49
11 9 6 1 5 6 10 14 20 28 34 38 39 36 37 40 43 45 46 46 47 49 45 49 51 51 52 52 55 57 59 58 55 59 58 58 58 59 59 53 47 38 38
12 11 10 10 9 8 8 9 10 12 18 28 30 35 39 43 44 45 45 46 48 51 51 52 54 58 56 57 59 61 61 59 56 53 45 35 23 17 15 13 14 18 18
11 11 11 11 11 11 11 10 9 8 7 11 18 26 29 32 38 42 47 48 49 43 41 36 44 56 57 60 56 41 41 51 46 32 22 15 12 12 10 9 9 6 4
10 9 10 11 12 11 11 11 10 9 7 5 3 7 13 18 23 27 29 28 27 27 29 29 31 19 17 27 26 26 27 17 15 18 17 16 13 11 10 9 7 5 3
10 11 9 10 11 12 12 14 13 10 11 9 7 6 6 7 8 10 12 11 10 6 3 3 3 4 3 14 17 18 19 20 19 18 15 15 12 10 8 8 6 3 2
8 8 7 8 9 10 11 14 15 15 12 10 10 8 7 7 10 8 8 9 11 14 15 17 20 21 22 26 23 20 21 19 18 17 16 13 9 5 6 5 4 5 6
5 4 5 7 8 9 13 14 14 12 10 14 14 15 18 16 13 12 13 15 14 13 16 20 21 21 22 23 23 20 19 18 15 11 11 9 8 6 8 7 7 6 7
5 5 5 6 7 8 11 14 17 17 15 18 20 18 17 16 14 14 13 12 13 12 19 22 21 20 19 18 17 15 14 13 10 8 8 7 7 5 6 6 6 7 7
7 5 5 7 9 11 14 16 17 18 19 20 18 16 14 13 12 13 12 12 17 18 20 19 18 15 13 13 12 11 10 8 7 8 6 6 5 5 6 7 7 7 7
8 8 8 9 10 10 11 13 15 16 18 18 14 13 12 10 9 11 10 12 16 17 16 15 13 11 9 8 8 7 7 7 8 7 7 6 6 7 8 8 8 9 9
9 9 9 10 11 12 13 13 14 14 15 14 14 14 10 6 9 12 12 13 13 13 11 9 9 8 8 7 6 6 6 6 6 6 6 7 7 8 8 8 8 9 10
9 9 9 10 11 11 11 11 11 10 11 11 12 10 8 7 9 9 9 8 9 9 8 7 6 6 6 5 6 6 5 5 6 6 6 7 7 7 7 7 8 9 9
7 7 7 8 9 9 9 8 8 8 8 8 8 7 6 4 5 5 6 6 6 6 5 5 5 4 4 4 4 4 5 5 5 5 5 6 6 6 6 7 7 8 9
5 5 5 6 6 6 5 6 5 4 5 5 6 5 4 5 6 6 6 6 5 5 5 4 4 4 3 4 4 5 5 6 6 6 6 6 5 5 5 5 5 6 9
3 3 3 3 3 3 3 4 4 4 4 5 5 5 5 5 5 5 5 5 6 6 6 6 5 5 5 5 5 5 5 5 6 6 5 4 4 3 4 5 7 9 10
2 2 2 2 3 3 3 4 4 5 5 5 5 4 4 4 3 3 3 4 4 5 5 6 6 7 7 7 7 7 7 7 7 6 6 5 5 4 4 6 7 8 9
4 4 4 4 4 4 3 3 3 4 4 4 4 4 3 3 3 3 3 4 5 5 5 6 7 7 7 8 8 8 8 8 8 7 6 6 6 5 5 7 8 9 10

GFSGL_850_spd_096.txt.gz
Wind_Speed
26 21 22 19 19 18 18 18 18 17 15 15 19 19 20 20 27 38 41 42 43 43 45 43 43 41 43 41 42 40 41 37 38 39 37 41 36 37 39 39 40 36 37
23 18 17 17 17 17 17 19 19 20 20 18 19 22 26 25 25 28 34 39 38 43 44 46 47 43 42 41 43 44 43 42 41 43 44 43 38 40 40 41 42 41 42
19 17 16 13 17 17 16 17 18 21 22 22 23 25 27 30 31 30 32 34 37 40 45 50 48 49 45 43 43 44 43 44 45 46 48 44 47 47 45 43 44 46 47
17 17 15 12 12 16 15 15 19 21 22 22 24 25 27 30 34 37 36 33 37 39 41 41 49 50 49 50 47 48 48 47 47 48 50 52 53 54 52 51 53 51 53
15 16 17 14 10 10 17 17 16 17 20 22 24 26 27 30 34 40 42 41 40 42 42 43 45 52 54 54 54 54 52 51 53 54 54 54 55 53 57 55 56 56 56
8 9 12 14 14 13 12 14 17 18 18 19 21 25 29 31 32 33 35 37 38 42 45 46 47 49 53 54 56 58 57 57 56 56 53 50 52 57 56 56 57 53 50
9 9 10 10 11 12 12 14 16 18 17 19 21 24 26 27 29 32 34 36 39 41 45 48 50 52 53 55 56 58 59 61 62 61 58 57 54 55 56 51 49 53 57
9 7 5 7 10 12 14 16 18 20 22 19 19 19 23 27 29 29 31 35 39 41 42 43 46 48 49 49 50 53 55 56 58 59 62 63 59 54 52 53 52 53 58
10 6 2 1 2 5 10 14 19 23 23 25 24 22 23 24 30 31 28 33 35 36 38 41 46 50 49 50 52 53 53 53 55 56 56 59 60 61 61 60 63 61 56
15 13 10 8 5 3 3 5 9 14 18 21 25 29 31 33 37 37 36 35 36 38 39 41 46 49 49 49 52 54 57 54 53 56 56 57 58 57 58 59 60 53 51
13 12 11 10 9 9 8 7 5 5 8 9 10 17 24 31 33 38 39 39 34 33 39 38 42 46 47 48 50 53 52 48 46 45 43 39 30 24 24 21 22 24 23
12 10 9 10 11 11 10 9 8 6 4 4 4 6 9 12 17 20 24 26 24 22 24 26 28 39 37 35 34 34 28 35 29 27 23 14 9 5 7 5 5 5 8
13 12 11 11 10 9 9 10 11 10 9 6 3 3 4 7 10 13 13 11 8 8 8 8 11 14 15 13 12 10 6 10 15 16 15 16 13 13 13 11 10 9 9
12 12 10 10 12 11 9 12 11 11 11 10 8 8 8 8 9 11 11 10 9 7 4 3 3 4 8 12 12 13 16 16 16 18 17 16 14 12 12 11 9 9 8
8 8 9 9 11 12 10 15 16 15 12 10 11 10 11 13 14 12 12 12 12 12 11 13 15 17 18 20 20 21 20 18 18 16 15 14 12 12 10 10 10 11 11
5 4 4 4 5 6 8 11 11 14 14 15 15 15 17 17 14 15 14 13 13 11 10 16 20 20 21 21 20 19 18 17 16 13 12 10 10 12 12 10 8 7 7
5 4 3 3 4 5 7 9 11 13 14 18 18 18 17 16 14 13 13 12 13 11 18 21 21 20 19 18 17 15 15 13 10 9 11 10 9 8 8 9 9 9 10
8 6 3 4 6 8 10 11 12 13 14 17 17 16 16 14 14 14 14 12 16 17 18 17 17 15 14 13 12 11 11 10 9 10 10 10 10 9 9 9 10 10 10
6 5 6 7 8 8 9 11 11 12 14 16 15 13 13 12 11 12 11 12 14 15 14 12 11 10 9 9 10 9 9 9 9 9 9 9 9 9 9 9 9 10 11
9 9 8 9 10 11 11 12 12 12 12 12 13 15 12 8 9 12 11 11 10 10 9 8 8 8 8 8 8 8 8 8 8 8 8 8 8 8 9 9 10 10 11
7 7 8 8 9 9 9 8 9 8 9 10 11 11 9 5 7 8 8 8 9 8 8 7 7 7 7 7 7 7 7 7 7 8 8 8 8 8 8 9 9 9 9
5 5 5 6 7 7 6 7 6 6 7 7 8 7 6 5 6 7 7 8 8 8 7 6 5 5 5 6 6 6 7 7 7 7 7 7 7 8 8 8 7 7 8
4 4 4 4 4 4 3 4 4 5 5 6 6 6 6 7 8 8 8 8 7 6 6 5 5 5 5 5 6 6 7 7 7 8 8 7 7 7 6 6 7 8 9
3 2 2 2 3 2 3 3 4 5 6 6 6 7 7 7 7 7 7 7 6 6 5 5 5 5 6 6 6 6 6 6 7 8 7 7 6 6 5 6 7 8 9
3 2 2 3 3 3 4 5 5 5 5 5 5 5 6 6 6 6 6 6 6 7 7 7 7 8 8 8 8 8 8 8 8 8 7 6 5 5 6 7 8 9 10
4 4 4 4 4 4 4 4 4 4 3 4 4 5 5 5 5 5 5 6 7 7 8 8 9 9 10 11 11 11 11 10 10 9 8 8 7 7 7 8 8 9 9

GFSGL_850_spd_102.txt.gz
Wind_Speed
37 36 32 26 22 19 15 15 15 15 17 14 14 16 19 21 23 24 24 28 30 33 38 42 45 45 44 44 40 33 33 31 29 29 36 28 23 31 31 29 32 36 36
33 31 28 24 22 18 16 16 16 16 19 18 15 14 15 16 18 18 19 19 21 24 28 33 36 37 39 33 43 43 36 29 27 30 32 41 33 28 29 30 37 36 39
25 30 27 24 21 17 16 16 17 17 18 19 18 18 16 15 14 12 12 13 15 17 20 26 25 29 35 38 39 43 42 36 34 38 38 36 38 35 33 31 31 32 41
24 26 23 22 18 16 15 16 17 18 17 18 17 16 17 17 17 16 16 14 15 17 18 21 26 31 37 37 39 41 47 45 46 43 45 45 40 37 36 38 37 36 33
21 20 18 18 15 16 16 15 15 16 17 17 17 17 18 20 22 23 23 22 22 21 23 24 25 28 31 34 40 43 45 46 47 47 40 44 48 45 40 41 41 42 42
22 19 16 14 12 11 10 15 15 15 15 15 16 17 17 17 18 20 21 23 25 27 29 30 30 30 32 35 36 35 34 35 40 41 46 47 52 48 46 45 43 41 43
18 18 17 16 16 14 11 9 11 13 13 15 15 15 15 17 22 22 22 24 22 25 27 28 29 31 32 33 33 35 39 41 43 42 40 39 39 38 40 42 43 42 43
18 17 14 13 13 11 11 11 12 14 16 17 18 17 19 23 22 21 23 26 29 29 26 27 29 32 31 30 31 32 36 37 41 46 51 55 57 57 56 52 49 49 49
19 17 14 10 10 7 8 10 13 14 14 15 17 17 18 19 20 20 19 19 20 24 30 33 32 32 34 33 34 35 37 36 40 41 43 44 45 44 43 44 41 45 48
18 17 13 9 8 9 7 6 6 8 10 11 12 14 17 19 22 23 22 22 24 26 27 29 30 31 33 34 34 32 32 33 34 36 37 36 36 37 40 40 37 34 31
16 13 10 10 7 10 8 7 7 6 6 7 6 5 5 7 11 15 16 13 18 21 23 25 25 27 29 31 31 28 25 28 27 28 26 24 25 18 15 13 11 10 11
17 13 12 10 12 10 9 9 9 9 7 7 5 4 3 3 2 3 3 1 6 9 10 8 6 9 10 10 8 7 7 7 10 11 10 6 2 4 6 8 9 9 7
13 13 13 14 14 13 10 10 9 9 9 7 6 5 5 5 7 7 6 5 5 3 4 3 4 5 5 5 10 8 6 6 6 5 7 7 7 8 8 8 9 9 8
10 11 12 12 13 12 12 12 11 11 10 9 9 9 9 8 8 7 8 8 10 9 11 12 11 12 12 13 13 12 12 11 10 10 10 10 9 8 7 7 6 5 6
8 9 9 10 11 12 11 12 13 13 11 12 12 12 12 13 15 13 11 11 11 12 11 11 12 13 14 14 14 14 14 13 12 11 10 8 7 6 6 6 7 7 7
6 6 6 6 7 9 11 13 15 14 15 16 16 16 17 16 14 14 14 15 14 12 11 13 14 14 14 14 13 12 11 9 8 7 6 5 5 5 5 6 6 7 7
7 6 5 5 6 8 9 11 14 15 13 15 16 15 15 16 16 17 15 13 12 11 14 14 14 13 11 10 9 8 7 7 6 6 5 5 5 5 6 6 7 6 7
8 8 7 8 8 9 10 10 10 9 11 14 13 14 14 14 14 15 13 11 10 10 12 11 10 9 8 8 7 7 7 6 5 5 5 5 5 5 5 5 6 6 5
8 8 8 8 8 8 9 9 9 9 10 10 11 11 11 10 9 7 5 7 9 9 9 9 8 8 8 8 8 8 7 6 5 5 4 4 4 4 4 4 5 5 6
8 8 7 7 7 7 8 7 8 8 8 8 8 9 9 7 6 5 5 6 6 7 8 8 8 7 7 7 7 6 5 5 4 4 4 4 4 4 4 4 4 4 4
6 6 6 6 6 6 6 6 6 6 7 7 6 6 6 4 4 4 4 5 6 7 7 6 6 6 6 5 4 4 3 3 3 3 3 3 2 2 2 3 3 4 4
5 5 4 4 4 4 5 4 4 4 5 4 4 3 2 2 3 3 3 4 5 5 5 4 4 3 3 3 3 3 3 3 3 2 2 2 2 2 2 2 3 4 5
4 4 4 3 3 3 2 2 2 2 1 2 2 1 1 2 2 3 3 3 3 3 3 2 2 2 2 2 3 3 3 3 3 3 3 3 2 2 2 3 4 4 4
2 2 2 1 1 2 1 1 1 1 2 2 2 2 1 2 2 2 2 2 2 2 2 2 2 3 3 3 3 4 4 4 4 4 4 4 4 4 4 4 4 5 6
4 3 3 3 3 3 3 3 2 2 2 2 2 2 1 1 0 0 1 1 1 2 2 3 3 4 4 4 5 5 5 6 6 6 5 5 5 5 6 6 6 5 7
3 3 3 3 3 3 3 2 2 1 1 1 1 0 0 1 1 2 2 2 3 3 4 4 5 5 6 6 6 7 7 7 8 8 7 7 7 7 7 7 8 6 7

GFSGL_850_spd_105.txt.gz
Wind_Speed
31 40 34 27 25 22 19 19 19 17 16 15 16 19 19 24 21 21 22 23 24 24 26 34 37 42 45 44 40 41 40 36 31 35 30 24 20 25 26 30 33 31 31
29 35 34 26 26 22 19 18 20 18 17 16 17 19 19 22 23 26 24 23 23 24 26 28 32 37 39 40 42 40 38 34 33 35 38 34 35 36 39 33 30 29 31
25 30 30 27 27 21 18 19 21 18 19 17 15 16 17 19 21 23 22 22 23 22 24 23 23 25 31 34 33 31 38 37 38 33 31 29 26 25 28 38 40 38 39
19 24 30 28 23 19 17 19 19 19 19 19 17 17 16 17 16 16 15 16 16 18 19 18 18 20 21 23 27 27 25 27 36 39 43 38 32 32 30 34 36 36 37
17 20 25 24 20 19 18 19 18 17 17 16 17 15 14 15 16 16 14 14 15 15 14 15 16 19 23 24 24 27 27 29 31 38 42 45 48 48 36 43 43 50 44
23 22 21 21 20 21 20 19 18 17 14 14 14 14 14 14 18 18 18 17 17 16 16 16 18 21 21 20 23 25 24 25 32 34 38 38 43 40 42 41 42 39 40
21 22 23 23 22 21 18 16 16 16 14 10 12 13 17 21 20 20 19 19 19 17 18 21 23 24 26 27 29 30 31 32 36 38 34 33 33 31 34 36 33 32 29
18 16 16 20 21 22 22 21 20 20 18 16 17 17 19 22 22 22 21 20 21 25 18 20 25 27 25 28 31 33 28 29 32 34 42 48 48 48 48 50 53 55 56
23 19 13 16 17 17 18 18 18 18 19 22 23 22 22 23 22 21 20 20 21 25 30 32 31 28 30 31 30 30 30 29 29 30 30 32 35 37 38 40 40 40 42
27 17 19 18 16 14 11 10 10 11 14 16 17 17 19 19 19 19 19 19 20 22 23 26 30 31 31 31 31 28 28 29 29 30 31 31 32 34 36 36 32 28 23
18 18 18 19 20 17 17 17 12 11 8 9 10 9 6 6 5 7 10 11 13 15 15 15 16 20 21 22 22 18 18 18 19 19 19 17 14 14 14 12 10 9 10
16 14 13 15 16 13 13 11 12 11 9 10 10 8 9 10 7 4 2 1 4 5 5 4 4 6 8 8 8 5 3 5 6 5 6 3 3 4 4 5 5 4 3
13 11 13 12 12 13 11 10 11 7 7 7 6 6 7 7 8 7 5 4 5 3 4 2 2 2 4 6 8 8 7 7 6 4 4 4 4 4 4 5 5 6 5
10 12 14 15 14 12 11 11 10 11 9 10 10 10 11 9 9 8 8 9 10 10 11 11 11 11 11 12 11 10 10 9 8 8 8 8 7 6 6 6 6 4 6
10 11 13 15 15 15 13 13 12 11 10 10 9 10 11 12 13 11 10 11 13 13 13 12 12 12 13 13 13 13 12 11 11 10 9 8 7 7 7 7 7 7 7
10 11 11 10 10 11 13 16 15 13 13 13 13 13 15 15 14 13 13 12 12 12 12 14 14 13 13 12 11 10 9 10 10 8 8 8 8 7 7 7 7 7 6
9 9 8 9 9 10 10 10 13 14 12 11 12 12 13 14 14 13 10 8 9 9 13 13 13 12 11 11 10 9 9 8 7 7 7 8 9 7 7 7 7 7 7
11 9 9 9 9 8 7 7 8 8 10 13 12 12 12 12 12 13 11 7 9 10 12 12 10 10 9 8 7 7 7 7 7 7 7 7 7 5 5 5 5 4 6
9 10 9 8 7 7 7 7 7 8 9 10 9 8 9 7 5 4 2 7 10 10 10 9 9 9 9 8 8 8 7 7 7 7 7 6 6 5 5 5 7 7 7
11 9 9 8 8 8 7 8 7 7 6 5 6 9 6 4 4 6 7 9 10 10 9 8 8 8 8 8 6 8 7 7 7 8 7 4 5 5 5 5 5 5 7
8 9 9 8 7 7 7 7 7 6 5 5 6 8 8 5 7 7 8 8 8 8 7 7 6 6 7 7 7 6 6 6 5 5 3 4 6 5 5 6 6 6 7
8 7 6 5 4 5 6 5 6 6 6 6 6 5 7 6 7 7 6 6 7 7 6 5 5 4 4 4 5 5 5 4 3 3 4 5 5 5 5 6 6 5 7
7 6 6 5 6 6 4 4 5 5 5 5 5 5 5 6 6 6 5 5 4 3 4 3 3 3 4 4 4 3 2 3 4 4 4 4 5 3 4 4 6 6 7
6 5 5 6 3 4 5 6 6 4 5 4 4 4 4 5 5 4 2 3 3 3 3 3 3 4 4 4 4 5 5 5 5 6 5 5 4 5 3 5 5 8 8
6 6 5 4 4 4 4 3 3 3 3 3 3 3 3 3 3 2 2 2 2 3 3 4 4 5 4 5 5 6 6 6 7 7 7 6 7 6 7 6 8 6 8
5 5 4 4 3 3 3 2 2 2 2 2 2 2 2 1 1 3 3 3 4 4 5 5 5 5 5 6 6 6 7 7 8 8 8 8 7 6 6 6 7 9 7

GFSGL_850_spd_108.txt.gz
Wind_Speed
24 33 33 34 34 29 28 29 26 28 24 18 22 24 25 26 25 23 24 26 26 26 24 32 38 33 37 38 39 42 42 40 36 31 29 29 26 17 24 23 24 27 30
25 32 34 32 33 27 28 27 29 26 22 16 20 19 26 22 23 21 20 23 24 25 25 23 31 40 36 35 39 42 39 39 37 40 34 32 32 34 24 25 26 29 31
11 20 27 32 33 29 26 25 23 20 19 18 18 18 20 22 23 22 21 22 18 18 21 22 24 26 29 32 33 33 34 33 36 38 36 32 33 32 34 34 32 33 31
13 17 28 34 25 27 25 24 19 20 21 18 17 15 17 18 21 22 22 23 22 21 21 22 23 24 25 26 27 25 27 29 33 34 33 34 35 33 27 28 31 32 33
13 17 24 29 26 26 22 22 18 19 21 21 20 17 16 16 16 15 17 16 16 15 15 15 16 17 17 18 18 21 23 23 23 24 28 32 34 33 36 38 38 39 35
12 16 20 24 23 22 22 19 18 19 19 20 20 17 13 21 19 17 16 13 11 11 12 13 12 11 14 17 17 17 21 23 23 25 27 29 27 27 29 29 30 29 29
13 14 16 18 23 24 22 21 20 19 17 19 19 22 21 19 17 17 17 15 14 18 18 17 18 20 19 19 22 24 25 29 28 27 27 23 28 31 30 29 32 30 30
23 15 13 15 19 22 23 25 25 25 24 25 25 24 23 22 20 20 19 20 22 21 18 20 23 22 22 23 24 24 25 28 32 35 35 37 40 37 34 33 37 43 45
33 31 25 15 9 14 17 23 28 28 27 26 26 25 23 22 21 20 19 22 22 23 25 28 25 22 23 22 19 20 20 19 20 20 23 27 29 30 31 33 31 30 32
27 25 24 24 24 22 14 11 14 21 22 22 22 18 17 18 21 24 24 25 25 25 25 24 27 29 29 29 28 26 23 22 22 23 25 23 25 24 26 25 23 22 19
20 18 20 18 20 22 22 17 18 20 17 18 14 12 7 4 2 7 11 13 15 16 14 12 10 12 13 14 14 13 13 16 14 14 12 11 10 9 10 10 9 8 9
16 16 17 15 17 18 15 13 15 16 17 14 15 11 9 8 6 9 6 6 6 7 8 6 4 3 3 2 2 5 7 7 5 4 2 2 0 2 2 3 3 2 1
16 17 14 13 13 12 12 12 10 14 14 14 13 12 11 10 11 10 10 9 9 8 9 8 6 8 10 11 13 12 12 10 8 7 6 5 5 5 5 6 6 6 5
16 16 17 17 15 13 11 12 12 13 11 12 11 12 10 11 11 10 11 11 12 12 15 17 16 15 14 15 14 13 12 10 10 11 11 10 9 8 8 8 7 7 6
14 13 15 16 16 16 15 15 15 13 11 12 12 12 12 13 13 12 14 14 15 15 15 15 14 13 14 14 15 15 14 14 13 13 11 10 10 8 7 6 6 4 3
12 13 13 11 13 15 16 17 17 14 11 12 13 14 17 16 15 15 16 16 14 12 13 15 15 15 14 13 12 12 11 10 9 8 7 6 5 5 6 6 5 4 5
12 11 9 9 10 11 13 14 14 15 13 12 13 14 17 18 16 14 12 10 11 9 15 15 15 12 12 11 10 9 9 8 6 6 6 6 6 5 4 4 5 5 6
13 13 11 10 9 8 8 8 8 9 14 16 15 13 12 12 11 11 9 8 12 13 14 13 12 10 9 8 7 6 6 7 6 5 6 6 5 4 5 5 5 3 5
10 10 11 11 10 9 8 8 7 7 10 10 10 10 8 6 5 5 6 9 11 11 10 10 10 9 7 7 9 8 8 7 6 4 4 5 4 4 3 2 3 4 1
13 11 9 8 8 7 7 7 6 5 4 4 5 8 4 3 5 6 7 8 8 8 7 6 6 6 6 6 6 5 3 3 3 3 3 3 3 3 3 2 3 2 3
8 8 8 7 7 6 7 6 6 5 6 6 6 5 4 3 4 3 5 6 5 5 4 2 4 4 5 4 3 3 1 2 2 2 1 3 4 2 2 2 1 2 7
7 7 6 7 4 4 5 5 4 5 5 6 5 5 4 3 2 2 4 4 4 4 3 2 2 3 2 2 2 1 1 1 1 1 2 5 3 1 3 3 5 1 5
6 6 6 4 5 5 2 3 5 4 3 1 1 2 1 1 2 2 3 2 2 2 1 1 1 1 1 0 0 1 3 3 2 1 1 1 2 3 3 2 3 6 6
6 6 5 8 6 3 6 7 7 3 2 2 2 1 2 3 2 1 1 1 1 1 1 2 1 0 2 3 3 2 2 3 4 3 3 4 5 4 5 4 5 5 3
4 3 3 5 3 4 4 3 1 1 1 2 1 1 2 1 2 3 2 1 1 3 2 1 3 2 3 3 3 4 4 5 5 5 5 6 5 2 4 2 6 5 3
6 4 3 2 2 1 1 3 4 3 3 3 3 2 2 2 3 5 4 3 2 2 4 4 3 3 6 6 5 5 6 6 6 5 6 7 7 7 7 6 7 7 3

GFSGL_850_spd_111.txt.gz
Wind_Speed
25 35 39 39 36 34 34 32 31 29 26 23 23 26 26 25 23 22 25 28 31 30 29 26 27 34 36 38 32 30 32 32 33 24 29 27 25 24 25 26 28 28 27
3 26 28 30 33 34 31 31 31 28 25 24 24 27 26 24 24 24 25 25 28 27 26 28 24 28 33 36 34 37 35 34 34 37 38 37 33 26 27 21 20 23 23
5 5 20 25 30 30 31 29 31 30 26 25 22 24 24 24 24 24 23 24 24 27 25 27 25 27 30 34 31 32 37 35 37 42 44 34 30 30 27 33 33 29 29
5 5 7 16 27 28 30 30 31 27 25 22 20 22 23 25 21 24 21 20 20 22 21 22 24 24 25 27 30 31 31 30 29 27 30 25 30 30 27 34 28 32 32
4 4 11 16 17 25 29 29 27 24 22 20 17 17 18 20 22 23 22 21 22 20 19 21 22 22 24 24 25 25 23 22 23 23 26 24 24 24 28 29 27 27 28
11 1 3 10 20 21 29 26 23 19 21 22 18 17 21 20 20 20 21 22 21 20 18 16 14 12 13 13 15 16 16 19 22 24 23 23 21 21 20 19 21 24 25
25 18 9 7 17 23 25 25 23 21 24 26 26 23 22 21 20 19 17 16 17 18 17 16 17 16 16 15 15 18 20 21 23 27 26 25 24 26 24 23 25 26 28
38 37 28 18 13 12 25 29 28 28 26 27 27 26 25 24 21 21 21 21 22 24 22 20 20 22 23 22 23 23 23 26 27 29 30 30 29 25 23 27 30 29 27
32 34 36 35 28 19 11 12 18 27 28 29 28 29 29 24 27 28 26 24 24 23 22 20 22 23 24 22 23 26 29 31 34 35 35 37 38 38 37 34 28 26 22
27 24 28 30 30 31 26 24 20 14 19 14 18 15 21 21 24 25 24 25 25 25 26 27 28 28 26 24 24 25 25 24 21 18 19 22 23 23 26 25 23 19 19
19 19 20 22 21 20 22 23 22 18 23 21 22 19 12 8 6 9 20 20 19 20 19 18 18 19 24 27 23 21 23 20 20 16 13 12 10 9 10 9 8 9 9
21 17 18 17 16 15 14 15 15 13 12 12 15 18 16 13 10 9 9 8 11 9 8 7 7 5 6 8 12 14 15 16 13 11 10 9 7 5 5 4 3 3 4
19 21 20 16 13 11 10 11 12 11 11 12 14 13 15 15 13 12 12 12 11 11 13 11 11 11 13 14 15 14 13 11 12 12 11 10 8 7 7 7 6 6 5
18 20 20 18 16 13 13 12 11 12 13 13 13 14 13 11 11 12 14 12 13 13 14 11 11 11 11 15 16 13 13 11 10 10 11 12 11 11 9 8 6 5 4
16 16 18 19 18 17 17 17 16 16 12 13 14 14 15 14 13 12 12 13 14 13 13 12 13 13 14 14 14 14 13 13 12 11 12 13 11 10 8 6 5 3 2
14 14 13 14 16 17 18 17 17 16 15 16 16 15 17 16 13 13 13 13 12 11 11 12 12 11 13 13 12 12 12 12 12 10 9 8 8 9 8 7 5 3 2
15 13 12 9 10 12 11 14 16 15 13 13 14 15 15 13 12 11 10 10 9 8 11 13 12 11 12 12 12 10 10 9 8 7 6 8 7 6 6 6 5 4 4
13 14 12 11 10 9 8 10 10 11 14 16 14 12 12 10 9 9 9 8 11 10 10 10 9 8 7 7 7 6 6 7 8 8 7 6 6 5 5 6 6 5 5
13 11 9 9 9 9 6 5 5 5 7 9 7 7 6 4 3 5 6 7 9 9 9 8 7 8 7 8 9 8 7 7 7 6 6 4 5 4 4 4 4 4 5
11 9 9 7 6 5 4 6 6 5 3 4 3 3 4 3 4 5 6 6 6 7 6 5 5 6 8 6 4 4 4 3 4 5 5 5 4 2 3 3 3 2 2
8 9 8 5 5 4 5 5 7 7 6 6 4 2 2 2 2 2 2 2 2 3 3 4 5 4 3 4 4 5 3 3 2 1 3 4 3 2 2 1 2 4 4
6 7 7 8 7 5 4 3 3 5 5 3 2 2 4 4 2 1 1 2 2 1 1 1 3 4 4 3 1 0 0 1 2 2 3 3 3 2 3 2 1 4 6
5 7 8 3 5 7 4 1 2 2 3 4 4 3 4 3 3 2 0 1 2 3 2 2 2 1 1 1 1 2 1 1 1 1 3 3 3 4 5 6 6 4 4
2 2 4 5 6 4 4 4 3 3 4 4 4 5 4 4 3 4 4 3 1 1 2 1 2 2 1 1 1 1 2 2 1 2 4 4 6 5 7 7 7 7 7
4 4 2 1 1 2 3 3 4 4 5 5 5 5 6 7 7 6 4 4 3 1 2 2 3 2 3 4 4 2 2 3 4 5 5 6 6 6 6 6 6 5 6
4 3 3 4 4 4 3 3 5 5 5 4 4 5 6 8 9 8 5 4 5 5 3 4 5 4 4 3 3 3 4 4 4 5 6 6 6 7 6 7 8 7 7

GFSGL_850_spd_114.txt.gz
Wind_Speed
9 10 19 28 43 47 41 37 33 31 24 23 27 29 32 31 30 29 25 27 27 27 26 25 32 33 34 35 30 27 28 29 32 30 27 27 30 35 36 26 30 32 27
12 6 11 26 35 40 39 36 34 33 28 25 26 27 28 30 29 28 28 27 27 29 29 31 26 29 32 34 32 33 32 32 34 34 32 29 31 32 33 25 28 28 30
12 7 3 12 22 33 32 32 33 32 30 27 25 26 25 27 28 27 26 25 24 28 30 34 32 30 31 31 35 38 40 37 33 32 34 31 32 37 30 32 27 23 20
14 8 5 6 12 19 25 29 32 31 29 27 26 24 22 25 26 25 26 25 25 26 27 28 29 29 28 25 26 27 34 34 34 36 38 38 31 34 37 28 29 32 30
19 15 8 6 7 13 16 24 29 29 30 28 27 25 22 26 26 23 26 26 24 25 24 26 26 25 26 27 26 26 26 25 27 26 29 26 23 24 26 23 25 25 27
28 21 16 6 4 13 19 26 29 30 30 26 25 22 27 27 25 25 24 23 24 24 23 24 21 21 23 23 21 22 25 26 25 24 23 24 23 23 21 20 17 21 24
41 34 27 19 10 6 14 28 28 28 28 23 26 25 26 24 23 22 23 24 24 23 23 25 24 22 20 18 19 20 20 21 22 22 24 24 23 21 20 21 22 23 26
34 36 38 32 27 18 9 20 24 29 31 29 28 26 28 28 23 21 20 21 23 24 23 22 22 21 21 21 19 21 22 22 21 22 24 26 28 28 26 25 27 27 28
29 30 31 33 34 32 27 26 17 9 18 25 27 29 28 28 25 24 25 26 26 27 26 25 26 26 28 25 25 26 26 27 27 28 29 31 31 30 29 27 26 27 30
25 24 23 24 26 27 28 31 27 27 23 16 9 13 13 19 27 29 31 30 32 29 31 30 28 27 25 27 27 29 29 30 32 31 32 35 37 37 38 37 34 29 32
24 20 19 19 20 19 20 23 22 20 19 17 20 22 19 12 5 8 18 23 26 27 21 22 21 24 24 24 23 25 27 29 29 23 22 18 15 16 16 18 16 19 19
23 21 19 17 15 14 15 15 15 15 16 14 18 17 19 16 15 14 9 5 3 7 8 9 14 15 19 16 16 19 20 20 17 16 14 13 11 9 7 6 7 8 10
20 22 21 18 17 15 13 14 15 13 12 13 14 14 18 15 11 10 7 6 6 6 9 10 9 5 6 10 11 12 13 12 12 11 10 9 9 8 7 7 6 5 5
18 20 21 20 19 17 16 16 15 15 14 14 13 14 15 13 12 10 10 9 8 7 8 7 7 7 8 12 14 12 10 9 9 9 8 8 8 8 8 8 6 6 4
15 16 18 19 20 20 18 18 18 18 16 14 14 14 14 13 12 9 8 9 9 9 10 11 12 13 13 12 13 12 11 10 9 11 11 11 9 7 8 7 6 4 4
15 15 14 15 16 17 17 14 14 15 14 15 15 14 14 12 10 9 9 9 8 7 4 8 11 12 12 11 11 12 11 9 9 10 10 10 8 6 4 4 3 4 3
16 14 12 12 11 13 13 12 11 11 11 13 13 12 11 9 8 7 5 5 6 4 7 11 11 11 12 11 9 9 10 9 7 7 6 7 8 8 6 5 3 3 2
10 11 12 11 10 10 10 10 8 8 7 7 9 8 7 7 6 6 5 4 6 5 7 8 8 8 8 8 7 7 7 7 6 6 6 6 6 5 5 5 4 4 3
11 11 10 9 9 8 8 8 7 6 5 5 5 3 4 4 4 3 4 1 4 5 6 5 6 6 6 5 5 4 5 6 6 5 4 3 4 4 5 6 6 7 5
11 11 10 9 8 7 8 8 7 4 2 3 4 5 4 3 2 2 2 2 2 3 4 3 4 3 3 4 4 3 3 3 3 3 3 3 3 3 4 4 4 4 4
9 10 10 8 6 6 8 8 9 6 3 3 4 5 6 5 4 3 2 1 1 1 1 0 1 2 2 2 2 2 3 2 2 3 3 3 3 3 3 3 3 4 4
10 9 9 9 7 6 5 5 6 6 6 6 7 8 8 7 5 3 2 2 1 1 1 1 2 2 2 1 1 1 2 3 2 3 4 4 3 3 4 4 5 6 7
11 9 8 7 7 8 4 3 5 6 6 7 7 7 8 6 5 4 4 4 4 4 3 2 1 1 1 1 2 2 2 3 3 4 5 5 5 6 6 7 6 6 6
10 10 9 8 6 5 5 6 7 7 8 8 8 8 8 8 8 7 6 4 3 3 3 2 2 2 2 2 2 2 3 3 4 4 5 5 5 7 8 9 9 9 8
11 9 9 7 6 4 4 6 7 7 8 8 9 9 9 9 9 9 8 5 4 4 3 2 3 2 2 3 3 4 4 4 4 5 5 5 6 6 6 8 8 9 8
10 9 8 9 9 8 7 6 6 7 7 8 8 8 9 10 10 10 9 9 7 6 5 4 3 3 3 3 3 4 5 6 6 6 6 5 7 7 7 8 8 9 8

GFSGL_850_spd_117.txt.gz
Wind_Speed
10 9 13 22 28 34 41 44 42 43 41 34 31 32 33 33 34 32 30 27 26 27 27 28 28 24 25 32 38 35 34 28 28 27 23 24 32 29 26 28 30 32 32
15 11 7 9 17 21 30 29 39 41 39 34 31 29 30 30 33 32 30 27 27 28 28 28 29 23 29 29 33 37 34 29 28 29 27 24 25 31 32 31 34 34 31
20 13 9 3 8 15 23 25 27 32 34 33 33 30 29 29 30 31 28 27 25 27 28 29 30 29 30 30 30 33 36 32 31 32 31 29 29 28 29 31 35 37 31
24 20 15 10 6 8 17 22 27 28 30 32 32 32 29 27 26 26 27 29 26 25 26 26 29 31 34 31 29 35 38 36 38 35 38 35 33 31 32 35 37 37 32
30 26 22 18 8 8 7 14 17 23 27 30 31 31 28 23 23 25 27 26 26 27 26 27 26 29 31 32 28 31 28 31 33 32 40 35 32 34 36 35 38 40 37
39 35 30 24 16 11 7 9 15 19 25 31 26 31 30 27 26 25 26 27 26 25 26 25 26 25 29 24 24 25 26 27 28 30 30 30 32 27 24 24 24 25 27
36 39 37 34 30 23 14 7 9 14 22 29 29 32 31 28 26 25 26 27 23 26 25 24 24 24 22 23 25 24 21 21 24 24 24 25 25 24 22 23 22 22 24
33 34 35 36 35 32 28 25 18 12 4 15 28 33 29 27 24 23 23 25 28 26 27 27 25 26 24 24 25 24 24 25 25 23 24 24 23 23 22 21 21 22 24
32 30 30 30 30 31 33 30 30 27 22 17 8 16 16 23 26 25 26 26 27 29 29 27 29 27 25 24 24 24 23 24 24 24 24 23 24 24 24 25 28 28 28
32 28 26 25 25 26 25 24 25 24 25 24 22 18 14 5 15 27 27 28 29 30 31 28 28 27 27 27 27 29 29 27 27 27 28 28 29 29 29 30 30 30 33
28 26 24 23 22 20 20 20 19 20 19 18 20 22 19 22 22 14 3 13 20 23 22 26 28 32 34 34 34 36 34 32 30 28 24 23 25 28 30 32 32 29 29
25 25 25 24 22 20 18 17 16 15 15 18 19 19 20 18 19 17 16 10 4 2 2 2 2 6 17 19 19 21 22 21 20 18 16 13 12 10 11 10 12 13 15
23 25 25 24 22 20 19 18 18 17 17 18 19 22 23 19 15 12 11 10 8 8 9 7 7 6 4 4 9 12 11 13 15 13 11 9 7 7 7 7 4 4 5
22 23 23 25 24 22 20 19 17 17 18 17 18 19 18 17 17 15 13 11 10 9 10 10 9 7 8 10 10 10 10 11 10 8 11 11 9 6 5 7 6 6 5
21 22 22 22 23 22 21 20 19 18 18 17 18 15 15 18 17 14 11 11 11 10 8 8 9 10 12 13 12 11 10 9 9 10 10 11 11 10 8 7 4 3 3
21 22 21 21 20 20 18 15 14 12 12 13 13 13 13 12 10 11 12 11 10 8 5 8 10 11 11 10 11 12 11 11 12 11 10 10 10 9 7 5 3 3 3
21 20 19 18 18 17 16 15 14 12 11 10 10 11 11 10 10 10 11 11 9 8 8 10 11 10 10 10 9 8 8 8 7 6 6 6 5 4 6 5 4 4 4
17 17 17 17 16 16 16 15 14 13 11 10 9 10 11 11 10 10 9 9 6 8 9 10 10 9 8 6 6 5 5 5 5 5 4 4 4 3 3 4 3 2 3
17 17 17 16 15 15 15 16 14 11 10 10 10 9 10 11 11 9 8 7 9 9 10 9 8 7 6 5 5 4 4 3 3 3 3 3 4 3 3 3 3 3 2
15 15 16 16 15 14 14 14 14 12 11 11 11 12 12 10 8 8 8 8 7 7 7 6 6 5 4 4 4 4 4 3 2 2 2 2 3 3 3 3 3 3 2
16 15 14 14 13 14 13 12 12 12 12 13 13 14 14 13 11 9 8 6 5 5 4 4 3 3 2 2 2 2 2 1 0 1 0 0 1 1 1 0 1 2 2
15 14 14 13 12 11 11 10 11 11 12 13 14 14 13 11 9 8 7 6 5 4 4 4 3 3 3 2 2 2 1 1 1 1 1 1 2 2 2 2 3 4 4
15 13 12 12 11 10 9 9 10 11 11 12 12 13 13 12 11 9 8 7 6 5 4 4 3 2 3 3 3 2 2 1 1 2 2 2 3 3 4 5 5 5 5
16 15 12 11 9 8 9 9 10 11 11 11 11 12 12 12 12 12 11 9 6 6 5 4 4 4 4 4 3 3 2 2 2 2 2 3 4 5 6 6 6 6 6
15 13 12 10 10 9 8 10 11 10 11 11 10 11 11 11 12 12 11 10 7 6 5 4 3 3 4 4 4 4 3 3 3 4 4 4 5 5 6 6 7 7 7
14 13 13 13 11 10 9 9 10 11 12 12 11 11 11 12 12 13 12 10 8 5 5 5 4 4 5 5 6 5 5 5 5 5 5 5 5 6 6 7 7 7 7

GFSGL_850_spd_123.txt.gz
Wind_Speed
12 6 6 5 6 11 18 21 25 31 37 34 32 32 37 41 38 34 35 35 37 38 37 38 39 36 35 34 31 28 27 25 27 28 32 34 36 37 34 32 31 35 31
17 11 6 8 7 7 10 14 16 20 21 24 27 30 35 41 43 39 35 37 37 39 40 38 39 34 29 31 28 27 27 24 24 32 31 33 35 34 29 28 29 33 35
25 23 20 17 13 12 8 7 9 11 16 14 20 23 29 31 33 34 34 35 36 39 39 38 39 31 28 31 28 28 26 25 19 30 32 30 36 31 27 29 27 40 36
34 31 30 28 24 20 17 12 7 3 8 13 16 16 19 26 31 34 36 37 36 37 38 36 37 30 28 28 30 31 27 23 22 28 34 30 33 31 27 27 28 34 37
37 37 36 33 30 27 24 19 16 10 5 5 10 16 18 22 30 33 36 37 36 36 38 40 33 29 27 28 29 28 27 26 22 24 30 33 32 32 31 30 29 32 36
36 37 36 36 34 33 32 28 24 19 16 11 6 7 10 17 26 31 33 36 33 36 39 38 31 28 26 26 27 27 29 28 27 26 29 30 36 38 35 34 33 34 35
33 33 34 34 33 35 34 31 32 31 25 21 17 13 9 11 19 29 36 37 37 43 40 33 28 29 28 28 28 27 28 28 29 31 31 30 32 29 31 31 37 42 41
33 31 31 31 32 32 32 33 33 32 30 28 26 24 21 17 16 18 25 30 23 25 22 26 26 28 28 29 29 28 29 29 28 27 28 27 28 26 28 28 26 34 36
36 34 31 29 29 28 30 30 30 29 28 30 28 27 27 26 26 16 7 10 21 20 24 27 27 29 29 29 29 31 31 32 32 32 29 29 30 27 26 25 27 29 29
36 34 31 29 28 27 27 26 26 26 25 26 28 28 27 29 30 28 20 9 5 7 4 10 25 30 31 36 35 32 32 34 32 31 29 30 29 30 28 27 28 27 30
30 30 30 30 29 27 25 24 23 23 22 25 27 28 29 28 28 27 26 21 18 13 12 10 6 7 22 27 30 32 35 35 36 33 31 32 31 30 29 30 30 32 33
27 29 29 29 28 27 26 25 25 26 26 27 26 26 28 28 27 26 25 24 22 18 15 12 11 10 9 7 14 20 26 27 27 26 26 27 27 27 28 29 29 30 32
26 27 27 28 28 28 28 28 28 29 29 29 30 30 28 26 25 23 22 21 21 20 19 18 16 13 8 6 6 3 5 11 16 18 16 14 15 17 17 19 21 19 20
24 24 25 26 26 26 26 26 27 28 29 29 29 28 27 26 26 24 21 18 16 16 16 15 14 13 11 12 10 10 11 10 11 14 16 16 14 14 14 13 13 13 14
21 23 24 23 24 24 23 23 23 23 23 24 25 24 25 26 26 23 22 19 16 15 12 9 10 12 14 15 15 15 15 14 14 15 15 15 14 14 15 14 14 14 16
22 23 23 22 22 22 20 18 18 18 19 19 19 20 19 18 19 18 17 17 15 12 8 10 13 15 16 17 17 16 15 15 14 13 13 13 14 14 15 15 14 14 15
21 21 22 22 23 23 23 22 20 17 17 17 18 18 18 18 17 17 16 16 13 9 10 13 14 14 15 15 14 14 14 13 11 11 11 12 12 13 14 15 14 12 13
17 18 20 21 21 20 20 20 20 20 20 19 19 19 18 17 16 15 13 10 8 11 13 13 13 13 12 12 11 11 10 9 9 10 10 10 10 11 12 13 13 11 10
17 17 17 17 18 17 17 17 18 19 19 19 18 15 15 15 15 14 11 11 11 10 11 11 11 11 10 10 10 10 10 10 10 10 10 10 10 10 11 13 13 13 12
16 16 16 16 16 16 16 16 17 19 20 20 20 20 18 15 13 13 12 11 9 9 8 8 7 7 6 6 7 7 7 7 8 8 8 8 9 8 8 8 9 8 9
16 16 16 15 14 15 15 15 16 17 18 18 19 19 19 18 16 14 12 10 8 8 7 6 6 5 5 4 5 5 5 6 6 7 8 8 7 7 7 7 7 7 8
17 16 16 15 14 13 13 14 15 16 16 16 16 16 17 16 14 14 12 11 9 8 6 6 6 6 5 4 3 3 3 4 5 6 6 6 6 6 6 6 6 7 7
16 16 15 15 14 12 12 12 13 14 15 15 14 14 15 15 14 14 13 11 9 8 7 6 6 5 5 5 4 3 2 2 2 3 4 4 4 4 4 5 5 5 5
17 17 16 15 14 13 13 12 12 13 14 14 14 14 14 14 13 13 12 11 9 8 8 7 6 6 6 5 4 3 2 1 1 1 1 2 2 2 2 2 2 3 3
17 17 16 16 16 15 15 14 14 13 14 14 14 14 13 13 12 12 11 10 9 9 8 8 7 6 5 4 4 3 2 1 1 1 1 1 1 1 1 1 1 2 2
17 18 17 16 16 15 15 15 15 14 14 13 13 14 14 13 12 11 10 10 10 10 10 9 8 6 6 4 3 3 3 3 3 2 2 2 2 2 2 2 2 2 2

GFSGL_850_spd_126.txt.gz
Wind_Speed
22 19 14 11 8 5 8 14 19 23 28 29 31 28 25 24 28 37 44 45 42 41 38 39 39 38 41 40 37 36 36 35 33 27 28 29 26 25 24 31 41 40 38
27 23 22 13 11 8 8 10 18 22 17 18 19 20 22 24 29 36 39 41 41 38 38 35 36 36 41 39 38 37 36 34 29 31 29 30 27 26 30 31 38 38 37
32 29 25 19 14 14 10 7 4 4 9 15 19 17 16 16 22 29 33 36 40 39 36 36 37 39 41 38 40 37 31 32 29 29 28 27 27 27 31 35 36 35 34
31 30 31 28 24 22 20 17 14 11 6 2 6 12 16 17 21 26 28 29 30 33 33 37 37 39 39 41 41 34 30 31 30 31 28 27 27 27 32 35 36 35 33
30 31 32 32 29 27 25 24 23 19 18 16 11 6 5 12 18 22 27 28 30 33 34 38 38 38 41 40 41 34 31 33 33 31 29 29 29 34 36 39 39 35 35
28 30 29 30 31 33 33 30 27 26 25 23 21 19 16 14 15 20 26 26 27 33 36 37 36 37 42 41 35 31 29 30 35 36 29 30 28 33 34 42 40 35 32
29 29 29 28 29 31 31 31 33 33 30 29 27 25 25 23 18 18 15 19 22 28 33 36 37 38 40 51 35 31 32 31 31 29 32 33 30 29 31 37 41 39 36
32 31 29 29 28 28 29 30 30 30 31 30 30 30 28 27 20 15 16 11 12 14 21 27 30 31 34 37 35 31 32 32 33 31 32 33 30 29 28 28 29 38 40
35 34 33 31 30 29 29 29 28 28 28 29 29 28 28 28 27 23 21 17 12 8 8 7 12 19 22 29 31 30 34 35 35 34 35 36 32 35 31 30 30 33 36
34 32 30 30 30 29 28 27 26 25 25 25 26 28 27 28 27 26 24 21 18 18 16 13 12 16 16 27 32 35 35 37 36 36 34 37 37 34 33 36 33 34 36
24 28 29 28 28 28 27 27 26 25 24 25 25 26 27 28 27 26 26 25 25 22 20 19 18 16 15 16 12 23 29 34 36 37 36 38 39 42 38 38 38 37 37
24 24 27 28 28 28 27 27 26 26 26 26 26 27 28 28 27 26 25 24 23 23 23 22 21 21 17 15 14 10 14 18 22 26 28 30 29 31 35 37 36 37 36
22 24 24 26 27 28 28 28 28 28 26 26 25 27 27 27 27 26 26 23 21 21 21 19 18 16 16 13 12 9 4 5 10 14 16 18 17 17 20 22 24 28 32
20 21 20 21 21 21 21 24 26 30 29 27 27 27 27 27 27 27 26 24 21 18 17 17 16 16 16 15 12 11 10 7 3 7 8 8 9 10 10 11 12 14 16
18 18 20 18 19 18 18 23 22 23 24 23 23 22 25 25 25 22 22 23 22 19 16 12 12 14 15 15 16 15 13 12 10 10 9 9 10 10 12 13 11 12 16
16 17 18 17 17 17 16 15 20 19 20 21 21 20 19 18 19 19 18 17 17 16 14 14 15 16 16 16 15 15 13 12 12 10 9 8 8 11 12 14 17 19 21
15 17 15 16 16 16 16 16 16 16 19 20 19 20 21 20 18 17 16 16 15 13 14 15 16 16 15 14 13 12 13 12 10 10 10 11 11 11 12 13 14 15 17
14 15 14 14 14 14 14 15 15 17 18 18 19 20 19 18 19 16 14 12 13 13 14 14 13 14 13 13 12 11 9 8 9 9 9 9 9 10 11 13 14 13 13
15 16 14 13 13 13 12 13 13 14 15 16 17 18 19 18 17 16 14 13 13 13 13 12 12 11 11 11 11 11 10 10 9 9 8 8 8 7 8 9 10 11 10
13 15 14 11 12 12 12 12 13 13 14 15 16 18 21 18 17 18 16 14 13 12 12 11 11 10 9 9 10 9 9 9 9 9 9 8 8 7 7 7 7 7 7
12 12 14 11 11 11 11 12 12 13 13 13 14 19 20 15 15 15 15 14 13 12 11 11 10 9 8 8 8 8 8 7 7 8 7 7 7 7 6 6 5 6 6
12 12 12 11 11 12 12 11 12 12 13 13 13 14 18 13 13 13 13 13 12 11 10 10 9 8 7 7 6 5 5 4 4 5 7 7 6 6 6 6 6 6 6
11 12 11 10 11 11 11 11 12 12 12 13 13 13 13 13 12 12 12 11 11 11 10 9 8 8 8 7 5 4 3 2 2 2 3 6 4 5 5 4 4 4 4
11 10 10 10 11 11 11 12 12 13 13 13 12 12 12 12 12 11 11 10 10 10 10 10 9 8 7 7 6 5 3 2 1 0 0 3 3 4 3 3 3 3 3
10 10 11 11 11 11 12 12 12 12 12 12 12 12 11 11 11 11 10 9 10 9 10 10 9 9 8 7 6 5 4 3 2 1 0 2 1 1 2 2 3 2 3
10 11 11 11 11 11 11 12 12 13 13 12 12 12 12 12 12 11 10 10 9 10 11 10 10 8 8 8 7 5 5 4 4 3 2 2 1 1 0 1 2 2 2

GFSGL_850_spd_129.txt.gz
Wind_Speed
27 25 22 18 18 10 8 6 3 2 2 6 8 13 15 18 19 20 24 33 40 42 39 44 42 40 37 41 42 40 38 34 34 38 26 28 29 28 26 24 23 26 35
37 32 26 24 23 21 22 19 18 14 9 6 6 8 13 16 15 19 24 29 35 39 44 45 45 39 39 45 43 45 45 46 38 42 38 33 34 35 29 24 23 25 27
33 33 34 33 30 29 27 23 18 16 13 9 10 11 14 16 17 21 29 28 31 37 39 42 41 38 40 44 46 40 46 44 41 39 36 30 34 30 29 26 27 27 27
37 38 38 37 38 35 30 27 25 21 20 18 14 11 9 10 15 20 25 27 30 34 35 39 36 39 40 41 39 41 44 45 43 40 32 34 33 33 25 26 26 32 35
38 40 39 36 34 32 30 28 25 25 23 21 18 19 19 17 15 15 15 20 24 28 29 25 34 33 36 40 41 39 42 46 43 35 32 34 39 36 30 26 29 32 36
37 35 33 33 32 30 26 29 29 29 28 27 27 26 26 22 20 15 11 11 12 18 23 27 25 28 34 36 35 44 45 46 45 39 34 37 40 37 32 28 31 38 35
33 34 33 30 28 27 26 28 29 29 29 31 30 28 28 27 25 24 22 18 15 14 15 17 22 24 31 35 39 40 44 50 47 38 37 39 41 39 31 29 33 37 42
34 33 31 28 27 27 28 29 28 27 29 29 30 29 29 27 26 25 23 22 21 21 19 19 17 20 20 28 36 41 43 49 42 37 35 33 31 34 33 31 31 34 42
32 30 29 29 28 28 28 27 27 27 27 28 29 30 30 29 27 25 25 25 24 22 21 21 21 21 19 21 22 30 30 38 45 40 38 36 33 35 34 32 34 35 41
27 27 27 27 27 26 26 26 23 23 24 25 25 28 28 30 30 29 28 25 23 23 23 22 22 23 24 23 21 21 19 22 29 38 41 40 40 41 40 39 40 37 42
19 24 26 25 25 25 24 24 23 22 23 24 25 25 27 29 29 29 28 27 26 26 26 27 27 27 25 25 22 20 19 21 27 26 30 32 36 39 40 41 39 39 46
19 19 22 24 22 25 27 25 25 25 25 26 26 27 27 28 28 27 27 27 26 26 26 26 26 25 24 23 20 16 13 12 14 14 16 20 20 23 28 31 36 40 43
18 19 20 21 22 23 25 27 27 29 28 28 29 30 31 30 29 29 29 27 25 24 22 22 21 21 20 19 19 16 14 11 9 7 5 6 9 12 13 16 21 28 31
17 19 18 19 20 20 19 21 24 28 27 26 29 29 29 31 33 33 31 29 28 26 23 21 19 17 17 17 18 18 17 16 15 13 10 7 4 0 4 6 5 9 12
16 16 18 17 18 18 20 24 23 26 29 28 26 25 27 29 30 28 27 27 26 23 22 20 19 19 19 19 19 19 17 16 15 12 9 8 8 5 4 3 2 3 6
15 16 17 17 17 18 18 17 22 27 28 30 30 26 25 24 25 24 23 22 24 20 19 20 20 20 21 21 19 19 19 18 16 14 12 10 9 9 9 9 10 15 17
15 16 15 16 17 17 17 18 19 18 19 22 28 28 24 24 25 26 21 17 20 20 18 18 18 18 19 18 18 18 18 17 16 15 13 11 11 10 10 12 13 14 17
16 17 16 16 16 17 17 17 17 18 19 20 21 28 25 23 25 25 24 17 18 18 17 18 18 17 16 16 16 17 17 17 16 15 15 14 12 9 9 11 11 12 13
14 15 16 13 14 15 14 15 15 16 17 18 20 21 25 21 21 22 21 19 17 18 17 16 16 16 16 15 15 13 14 13 14 15 13 14 14 13 12 12 11 11 9
11 15 15 12 13 14 14 14 16 16 17 18 19 20 24 22 20 21 20 19 17 16 16 15 16 16 14 13 14 14 13 12 12 13 13 10 11 11 10 9 11 10 8
11 12 14 12 13 13 14 15 15 16 17 17 17 21 25 19 17 17 18 18 17 16 15 15 14 15 15 14 13 11 12 11 7 11 11 12 11 10 9 8 8 7 7
11 12 12 13 13 14 14 14 15 16 16 17 17 17 20 16 16 15 15 16 14 15 14 13 13 11 13 13 13 12 10 9 10 5 9 10 9 9 9 7 7 7 7
11 12 12 12 13 15 14 14 15 15 16 17 17 17 16 16 16 15 15 15 14 13 14 12 12 13 13 11 10 11 10 9 7 7 7 9 9 6 6 6 6 3 4
11 12 12 13 14 14 14 15 15 16 16 17 16 16 16 15 15 15 15 15 14 13 13 14 13 13 13 12 11 10 10 9 8 6 5 6 4 3 5 6 6 6 6
11 12 13 14 14 15 15 15 15 16 16 17 16 16 16 16 15 15 15 14 15 13 13 15 15 12 12 13 11 10 9 8 7 5 4 5 6 7 4 2 4 4 3
12 13 15 15 15 16 16 17 17 17 17 17 17 16 17 16 15 15 15 14 15 15 13 14 13 18 12 11 14 11 9 8 7 5 2 5 3 3 2 4 3 2 2

GFSGL_850_spd_132.txt.gz
Wind_Speed
27 27 33 34 32 30 27 23 18 15 6 12 9 12 20 16 15 13 15 15 21 29 35 37 39 40 39 39 38 39 41 38 42 40 38 33 27 28 32 29 28 27 31
30 41 40 38 37 33 35 29 21 22 14 11 8 3 8 15 13 17 16 18 22 24 27 35 38 40 42 39 35 35 39 43 40 40 35 37 34 36 35 34 32 30 31
40 42 43 42 40 38 34 32 29 26 27 22 18 9 5 4 7 9 12 17 17 19 21 24 28 35 37 38 34 36 37 45 42 43 41 43 41 38 33 34 37 37 32
43 45 42 41 41 39 38 36 32 29 28 28 26 24 22 20 17 13 9 10 14 17 21 23 20 26 29 29 29 33 35 43 46 43 41 45 41 39 34 36 37 34 32
42 43 41 37 37 37 39 37 36 35 32 32 29 29 27 28 30 24 21 18 15 14 14 17 17 19 22 28 31 30 31 38 42 46 43 39 39 42 42 41 37 32 29
38 40 38 39 36 39 37 35 36 36 35 30 29 29 30 29 29 28 21 23 22 20 16 17 19 18 26 26 30 32 35 37 35 43 41 43 41 44 45 42 36 32 30
40 41 40 35 39 37 36 36 36 36 34 34 34 31 31 29 26 25 25 22 23 21 21 19 20 22 24 24 24 30 32 36 41 41 37 41 43 47 45 39 39 37 34
38 39 39 38 38 36 35 37 37 36 34 34 34 33 31 31 28 25 25 26 27 27 27 27 26 26 26 26 25 23 25 28 33 36 43 46 38 41 32 31 37 34 32
40 37 37 37 35 34 35 34 34 32 32 32 31 31 32 31 31 29 27 27 26 27 27 27 28 27 27 27 26 24 20 21 21 26 31 38 44 44 38 35 34 34 35
33 34 35 33 35 34 33 31 28 29 29 28 28 30 30 30 30 31 31 31 30 29 28 28 29 30 30 30 30 29 27 24 23 23 21 24 27 28 31 37 41 39 42
25 29 31 34 34 33 31 30 29 28 26 26 26 26 28 29 29 29 30 32 31 30 30 31 30 29 29 29 28 27 26 26 23 22 22 21 20 25 23 29 32 32 40
23 25 26 27 29 30 30 29 31 30 30 31 31 31 31 31 30 29 28 28 29 30 30 29 28 27 25 25 25 24 22 21 21 20 20 20 20 19 19 20 23 27 31
20 19 21 21 22 25 26 29 30 32 31 31 31 31 31 32 32 30 29 28 27 27 26 25 25 25 25 24 23 23 23 22 21 22 22 21 18 17 16 14 13 18 22
15 17 17 18 18 20 24 26 30 32 32 32 33 32 29 30 31 32 32 30 28 27 26 26 25 23 23 23 23 24 23 22 21 21 19 18 16 14 13 11 11 9 9
15 15 17 18 18 17 19 22 26 30 31 32 33 33 33 30 30 28 28 26 25 24 21 22 23 23 25 25 24 23 23 22 23 21 19 18 16 15 14 12 9 6 3
13 14 15 15 15 15 15 15 18 23 24 26 30 33 34 27 26 29 29 23 22 22 21 24 24 23 22 24 24 24 24 23 23 23 21 18 16 14 12 9 8 10 13
13 16 13 13 15 17 17 18 20 19 18 18 23 30 32 31 25 26 28 24 20 22 22 23 24 23 23 21 23 20 22 21 20 19 20 21 18 13 10 9 7 8 10
13 14 14 13 14 17 16 16 17 20 21 22 22 24 31 34 23 24 26 27 23 22 21 20 24 25 19 19 19 20 19 17 18 19 16 18 19 18 16 14 11 8 8
12 15 15 13 13 14 17 17 16 19 19 20 23 26 31 33 21 19 22 27 23 21 21 19 19 23 24 17 15 16 17 15 13 14 19 15 15 16 14 15 14 12 9
10 13 15 14 14 16 16 17 16 19 20 20 22 25 29 33 25 25 23 25 24 22 21 19 17 17 20 18 17 13 15 16 10 9 12 16 14 13 13 13 13 14 13
10 12 13 14 14 15 17 15 16 18 19 20 21 21 24 25 22 23 23 24 25 20 22 21 19 21 19 15 15 15 12 14 10 6 9 11 14 13 10 9 10 9 11
10 13 13 13 14 16 20 15 18 19 18 21 22 22 22 21 21 22 22 23 25 22 19 23 19 21 22 18 16 16 16 15 11 4 7 9 11 9 12 8 5 4 6
10 13 13 13 15 16 18 17 19 18 20 21 22 22 21 22 22 21 21 22 25 24 20 21 22 21 22 20 17 17 17 15 13 7 5 5 10 8 10 10 8 6 3
11 14 14 15 16 18 18 20 19 19 20 21 22 22 21 22 22 21 21 21 23 23 21 19 21 25 27 21 18 18 17 13 11 6 5 6 9 5 5 7 7 5 3
11 14 15 17 18 19 20 20 21 22 22 22 22 23 23 21 22 22 22 22 21 21 23 18 17 21 24 24 20 19 18 14 11 7 2 4 3 5 4 4 5 8 2
12 14 16 17 19 20 21 23 23 24 25 24 24 24 23 22 22 22 21 25 21 23 22 17 18 17 19 21 22 22 17 12 10 7 4 5 7 5 2 2 2 6 5

GFSGL_850_spd_135.txt.gz
Wind_Speed
32 31 29 24 24 33 33 28 23 17 16 8 9 6 3 8 6 6 7 7 10 14 18 20 22 28 34 35 40 41 45 38 47 45 40 36 34 36 34 34 34 34 31
38 34 33 29 33 50 47 44 37 29 28 29 17 5 4 2 6 2 2 6 8 11 16 16 21 25 29 26 25 33 39 36 39 42 35 40 41 41 40 37 38 35 34
34 38 42 43 49 48 46 42 39 37 33 27 25 22 17 17 11 8 7 7 9 9 11 12 15 18 21 25 30 29 28 33 41 42 40 42 42 40 35 35 37 36 40
37 39 44 47 48 50 47 43 39 37 36 31 29 29 25 22 20 17 13 13 13 12 13 11 11 14 16 20 25 24 25 30 28 31 35 35 41 39 43 40 42 44 42
39 40 44 44 44 47 48 48 45 43 43 40 34 28 28 28 25 21 19 18 16 16 16 15 16 16 15 16 20 22 27 33 26 29 26 37 42 36 38 31 42 43 42
37 35 37 38 41 43 42 43 44 43 42 41 38 35 34 33 28 26 25 25 23 20 19 19 17 18 19 18 16 18 19 22 23 19 23 26 21 27 39 42 47 40 41
40 38 38 37 39 39 39 40 39 39 37 36 34 34 33 31 28 26 24 22 24 24 21 22 23 22 22 22 21 20 19 21 23 22 21 21 26 28 26 26 44 49 49
37 39 38 38 37 36 38 39 38 36 35 37 36 34 32 32 28 27 27 27 25 25 25 26 27 27 27 27 26 23 21 21 20 21 20 20 21 26 30 32 36 43 47
33 35 36 36 36 36 36 36 36 34 34 35 34 33 34 33 32 30 29 28 27 27 27 28 28 29 32 30 29 29 28 24 22 21 21 22 20 22 26 33 33 27 45
28 29 32 33 34 35 35 35 33 33 32 32 33 34 33 33 32 32 32 30 30 29 27 26 27 29 30 30 30 31 32 32 32 29 23 20 19 20 19 19 24 31 24
24 24 28 31 33 32 32 32 32 32 32 33 33 34 34 33 32 31 30 30 30 30 31 31 31 30 29 28 27 26 27 29 28 28 27 24 21 18 17 16 16 19 25
19 23 23 25 27 29 31 32 32 31 32 33 33 33 33 32 31 32 33 31 29 29 29 27 29 27 27 27 26 25 25 26 27 28 28 28 27 26 22 18 15 15 18
18 20 20 19 22 25 27 29 31 31 32 34 34 34 33 32 31 30 28 26 26 26 24 26 27 26 25 25 25 25 25 26 28 30 30 29 27 25 24 20 16 15 15
16 17 18 18 19 22 25 28 30 32 32 32 33 34 34 32 32 33 31 26 26 25 24 25 24 24 23 24 24 25 24 24 25 27 28 27 26 24 23 21 21 17 12
15 16 18 19 20 20 22 24 27 28 28 30 32 32 36 38 28 26 28 26 26 25 22 24 25 26 26 26 26 23 23 24 25 25 27 29 28 25 22 20 18 16 13
14 15 16 18 20 19 20 20 19 20 22 23 26 29 32 31 25 26 27 29 26 25 25 26 28 28 27 25 25 24 22 22 24 23 22 24 27 27 23 18 14 14 14
13 14 14 15 16 17 18 17 18 17 16 16 18 24 27 28 22 21 23 27 26 23 24 23 23 27 27 24 21 21 22 21 19 20 19 21 21 22 23 23 19 13 11
11 11 11 12 13 13 14 15 13 15 18 19 19 23 25 28 24 21 21 28 29 28 26 25 23 23 26 26 23 20 20 20 17 17 19 17 19 20 21 20 22 20 11
10 12 11 11 12 13 14 15 12 13 16 18 19 22 26 27 25 23 27 28 29 30 27 26 25 24 25 25 22 20 19 19 18 14 15 16 15 19 18 16 16 18 14
8 10 11 12 13 14 16 16 12 15 17 17 19 23 26 27 26 26 27 27 27 28 30 26 26 26 26 25 22 22 21 21 18 12 13 14 14 17 17 16 13 12 13
9 10 12 12 11 15 17 16 15 16 17 17 20 21 21 21 22 23 24 25 26 26 29 28 25 28 28 27 24 21 19 19 17 12 10 12 12 15 15 15 13 11 9
9 12 12 11 13 15 16 15 16 18 16 19 21 22 22 21 22 22 22 22 24 25 26 27 25 26 26 29 26 21 19 18 16 13 8 10 12 12 14 15 16 12 9
10 11 12 11 13 16 17 17 19 19 20 21 22 23 23 23 23 23 23 23 24 25 26 25 28 24 24 28 28 21 20 20 16 14 11 12 12 10 12 12 12 12 8
12 11 12 13 16 17 18 19 20 22 23 24 25 24 24 25 24 23 23 25 24 27 26 24 30 22 24 26 27 23 21 21 15 12 10 11 11 10 11 11 10 11 10
15 11 11 14 15 17 19 20 22 23 24 25 26 26 25 25 24 24 25 24 26 27 24 25 30 28 25 24 23 24 25 19 15 12 10 10 12 12 10 10 7 8 7
16 13 12 13 16 19 21 22 24 26 27 26 28 28 27 27 25 25 25 26 27 24 26 29 33 26 18 19 24 25 23 19 14 10 10 12 12 10 7 7 6 5 8